<?xml version="1.0" encoding="ISO-8859-1" standalone="yes"?>
<gpx
  xmlns="http://www.topografix.com/GPX/1/1"
  version="1.1" creator="LoadMyTracks/073 http://www.cluetrust.com/LoadMyTracks.html"
  xmlns:xsi="http://www.w3.org/2001/XMLSchema-instance"
  xmlns:gpxdata="http://www.cluetrust.com/XML/GPXDATA/1/0"
  xmlns:geocache="http://www.groundspeak.com/cache/1/0"
  xsi:schemaLocation="http://www.topografix.com/GPX/1/1 http://www.topografix.com/GPX/1/1/gpx.xsd
http://www.cluetrust.com/XML/GPXDATA/1/0 http://www.cluetrust.com/Schemas/gpxdata10.xsd">
<trk>
<name>2010/6/9 8:58:3 GMT</name>
<trkseg>
	<trkpt lat="52.10468333" lon="-2.165731667"><ele>36.000000</ele><time>2010-06-09T08:58:03Z</time></trkpt>
	<trkpt lat="52.10468667" lon="-2.165731667"><ele>36.000000</ele><time>2010-06-09T08:58:09Z</time></trkpt>
	<trkpt lat="52.10469833" lon="-2.165725"><ele>36.000000</ele><time>2010-06-09T08:58:14Z</time></trkpt>
	<trkpt lat="52.10469833" lon="-2.165711667"><ele>36.000000</ele><time>2010-06-09T08:58:19Z</time></trkpt>
	<trkpt lat="52.10469833" lon="-2.165715"><ele>36.000000</ele><time>2010-06-09T08:58:24Z</time></trkpt>
	<trkpt lat="52.10469333" lon="-2.165735"><ele>36.000000</ele><time>2010-06-09T08:58:29Z</time></trkpt>
	<trkpt lat="52.10466" lon="-2.165795"><ele>36.000000</ele><time>2010-06-09T08:58:34Z</time></trkpt>
	<trkpt lat="52.10462667" lon="-2.165858333"><ele>36.000000</ele><time>2010-06-09T08:58:39Z</time></trkpt>
	<trkpt lat="52.10460833" lon="-2.165931667"><ele>36.000000</ele><time>2010-06-09T08:58:44Z</time></trkpt>
	<trkpt lat="52.104595" lon="-2.166005"><ele>37.000000</ele><time>2010-06-09T08:58:49Z</time></trkpt>
	<trkpt lat="52.10458333" lon="-2.166085"><ele>37.000000</ele><time>2010-06-09T08:58:54Z</time></trkpt>
	<trkpt lat="52.10458167" lon="-2.166166667"><ele>37.000000</ele><time>2010-06-09T08:58:59Z</time></trkpt>
	<trkpt lat="52.10458167" lon="-2.166253333"><ele>38.000000</ele><time>2010-06-09T08:59:04Z</time></trkpt>
	<trkpt lat="52.1046" lon="-2.166325"><ele>38.000000</ele><time>2010-06-09T08:59:09Z</time></trkpt>
	<trkpt lat="52.10463333" lon="-2.166366667"><ele>39.000000</ele><time>2010-06-09T08:59:14Z</time></trkpt>
	<trkpt lat="52.10464167" lon="-2.16637"><ele>40.000000</ele><time>2010-06-09T08:59:19Z</time></trkpt>
	<trkpt lat="52.10464667" lon="-2.16638"><ele>41.000000</ele><time>2010-06-09T08:59:24Z</time></trkpt>
	<trkpt lat="52.10465" lon="-2.166378333"><ele>41.000000</ele><time>2010-06-09T08:59:30Z</time></trkpt>
	<trkpt lat="52.10465167" lon="-2.166383333"><ele>41.000000</ele><time>2010-06-09T08:59:36Z</time></trkpt>
	<trkpt lat="52.10464667" lon="-2.166396667"><ele>39.000000</ele><time>2010-06-09T08:59:41Z</time></trkpt>
	<trkpt lat="52.104645" lon="-2.166413333"><ele>37.000000</ele><time>2010-06-09T08:59:47Z</time></trkpt>
	<trkpt lat="52.10464667" lon="-2.166428333"><ele>35.000000</ele><time>2010-06-09T08:59:52Z</time></trkpt>
	<trkpt lat="52.104635" lon="-2.166446667"><ele>35.000000</ele><time>2010-06-09T08:59:57Z</time></trkpt>
	<trkpt lat="52.10465667" lon="-2.16645"><ele>32.000000</ele><time>2010-06-09T09:00:02Z</time></trkpt>
	<trkpt lat="52.10466833" lon="-2.166471667"><ele>32.000000</ele><time>2010-06-09T09:00:07Z</time></trkpt>
	<trkpt lat="52.10469333" lon="-2.166473333"><ele>35.000000</ele><time>2010-06-09T09:00:12Z</time></trkpt>
	<trkpt lat="52.10465667" lon="-2.16648"><ele>33.000000</ele><time>2010-06-09T09:00:18Z</time></trkpt>
	<trkpt lat="52.10463833" lon="-2.166468333"><ele>35.000000</ele><time>2010-06-09T09:00:23Z</time></trkpt>
	<trkpt lat="52.10464833" lon="-2.16645"><ele>38.000000</ele><time>2010-06-09T09:00:28Z</time></trkpt>
	<trkpt lat="52.10468" lon="-2.166416667"><ele>34.000000</ele><time>2010-06-09T09:00:33Z</time></trkpt>
	<trkpt lat="52.104675" lon="-2.166418333"><ele>33.000000</ele><time>2010-06-09T09:00:38Z</time></trkpt>
	<trkpt lat="52.10468333" lon="-2.166438333"><ele>35.000000</ele><time>2010-06-09T09:00:43Z</time></trkpt>
	<trkpt lat="52.1047" lon="-2.166446667"><ele>38.000000</ele><time>2010-06-09T09:00:48Z</time></trkpt>
	<trkpt lat="52.10470167" lon="-2.166448333"><ele>37.000000</ele><time>2010-06-09T09:00:53Z</time></trkpt>
	<trkpt lat="52.10470167" lon="-2.166393333"><ele>33.000000</ele><time>2010-06-09T09:00:58Z</time></trkpt>
	<trkpt lat="52.10471167" lon="-2.166411667"><ele>26.000000</ele><time>2010-06-09T09:01:03Z</time></trkpt>
	<trkpt lat="52.10473833" lon="-2.166435"><ele>20.000000</ele><time>2010-06-09T09:01:08Z</time></trkpt>
	<trkpt lat="52.10473167" lon="-2.166448333"><ele>15.000000</ele><time>2010-06-09T09:01:13Z</time></trkpt>
	<trkpt lat="52.10473333" lon="-2.166466667"><ele>11.000000</ele><time>2010-06-09T09:01:18Z</time></trkpt>
	<trkpt lat="52.10473667" lon="-2.166465"><ele>15.000000</ele><time>2010-06-09T09:01:23Z</time></trkpt>
	<trkpt lat="52.104735" lon="-2.16648"><ele>20.000000</ele><time>2010-06-09T09:01:28Z</time></trkpt>
	<trkpt lat="52.10472" lon="-2.166456667"><ele>25.000000</ele><time>2010-06-09T09:01:33Z</time></trkpt>
	<trkpt lat="52.10469833" lon="-2.166463333"><ele>33.000000</ele><time>2010-06-09T09:01:38Z</time></trkpt>
	<trkpt lat="52.10467833" lon="-2.166468333"><ele>39.000000</ele><time>2010-06-09T09:01:43Z</time></trkpt>
	<trkpt lat="52.10468333" lon="-2.166498333"><ele>36.000000</ele><time>2010-06-09T09:01:48Z</time></trkpt>
	<trkpt lat="52.10470667" lon="-2.16646"><ele>30.000000</ele><time>2010-06-09T09:01:53Z</time></trkpt>
	<trkpt lat="52.10469" lon="-2.166441667"><ele>31.000000</ele><time>2010-06-09T09:01:58Z</time></trkpt>
	<trkpt lat="52.10469333" lon="-2.166446667"><ele>31.000000</ele><time>2010-06-09T09:02:03Z</time></trkpt>
	<trkpt lat="52.10469333" lon="-2.16644"><ele>34.000000</ele><time>2010-06-09T09:02:08Z</time></trkpt>
	<trkpt lat="52.10468667" lon="-2.166418333"><ele>36.000000</ele><time>2010-06-09T09:02:13Z</time></trkpt>
	<trkpt lat="52.10469" lon="-2.166413333"><ele>35.000000</ele><time>2010-06-09T09:02:18Z</time></trkpt>
	<trkpt lat="52.1047" lon="-2.166433333"><ele>35.000000</ele><time>2010-06-09T09:02:23Z</time></trkpt>
	<trkpt lat="52.1047" lon="-2.166433333"><ele>39.000000</ele><time>2010-06-09T09:02:29Z</time></trkpt>
	<trkpt lat="52.10469833" lon="-2.166433333"><ele>37.000000</ele><time>2010-06-09T09:02:34Z</time></trkpt>
	<trkpt lat="52.10469333" lon="-2.166443333"><ele>33.000000</ele><time>2010-06-09T09:02:39Z</time></trkpt>
	<trkpt lat="52.10469333" lon="-2.166436667"><ele>30.000000</ele><time>2010-06-09T09:02:44Z</time></trkpt>
	<trkpt lat="52.10470833" lon="-2.166471667"><ele>27.000000</ele><time>2010-06-09T09:02:49Z</time></trkpt>
	<trkpt lat="52.10470833" lon="-2.166465"><ele>28.000000</ele><time>2010-06-09T09:02:54Z</time></trkpt>
	<trkpt lat="52.104685" lon="-2.166433333"><ele>29.000000</ele><time>2010-06-09T09:02:59Z</time></trkpt>
	<trkpt lat="52.10468167" lon="-2.166451667"><ele>29.000000</ele><time>2010-06-09T09:03:05Z</time></trkpt>
	<trkpt lat="52.104675" lon="-2.166456667"><ele>30.000000</ele><time>2010-06-09T09:03:10Z</time></trkpt>
	<trkpt lat="52.10466" lon="-2.166455"><ele>33.000000</ele><time>2010-06-09T09:03:15Z</time></trkpt>
	<trkpt lat="52.10465167" lon="-2.166465"><ele>36.000000</ele><time>2010-06-09T09:03:20Z</time></trkpt>
	<trkpt lat="52.10465333" lon="-2.166473333"><ele>38.000000</ele><time>2010-06-09T09:03:25Z</time></trkpt>
	<trkpt lat="52.10465333" lon="-2.166478333"><ele>38.000000</ele><time>2010-06-09T09:03:30Z</time></trkpt>
	<trkpt lat="52.10466167" lon="-2.166483333"><ele>38.000000</ele><time>2010-06-09T09:03:36Z</time></trkpt>
	<trkpt lat="52.10465167" lon="-2.166455"><ele>39.000000</ele><time>2010-06-09T09:03:42Z</time></trkpt>
	<trkpt lat="52.10465167" lon="-2.166466667"><ele>38.000000</ele><time>2010-06-09T09:03:48Z</time></trkpt>
	<trkpt lat="52.10465" lon="-2.166466667"><ele>39.000000</ele><time>2010-06-09T09:03:53Z</time></trkpt>
	<trkpt lat="52.10465333" lon="-2.166471667"><ele>41.000000</ele><time>2010-06-09T09:03:58Z</time></trkpt>
	<trkpt lat="52.10464667" lon="-2.166473333"><ele>42.000000</ele><time>2010-06-09T09:04:03Z</time></trkpt>
	<trkpt lat="52.104645" lon="-2.166478333"><ele>44.000000</ele><time>2010-06-09T09:04:08Z</time></trkpt>
	<trkpt lat="52.10464167" lon="-2.166483333"><ele>47.000000</ele><time>2010-06-09T09:04:14Z</time></trkpt>
	<trkpt lat="52.10464167" lon="-2.16649"><ele>48.000000</ele><time>2010-06-09T09:04:19Z</time></trkpt>
	<trkpt lat="52.10463833" lon="-2.166496667"><ele>51.000000</ele><time>2010-06-09T09:04:24Z</time></trkpt>
	<trkpt lat="52.10463833" lon="-2.166493333"><ele>51.000000</ele><time>2010-06-09T09:04:29Z</time></trkpt>
	<trkpt lat="52.10463" lon="-2.166491667"><ele>46.000000</ele><time>2010-06-09T09:04:34Z</time></trkpt>
	<trkpt lat="52.10461667" lon="-2.166476667"><ele>44.000000</ele><time>2010-06-09T09:04:39Z</time></trkpt>
	<trkpt lat="52.10462667" lon="-2.166468333"><ele>45.000000</ele><time>2010-06-09T09:04:44Z</time></trkpt>
	<trkpt lat="52.10462833" lon="-2.16645"><ele>44.000000</ele><time>2010-06-09T09:04:49Z</time></trkpt>
	<trkpt lat="52.104635" lon="-2.166446667"><ele>42.000000</ele><time>2010-06-09T09:04:54Z</time></trkpt>
	<trkpt lat="52.10464833" lon="-2.166416667"><ele>40.000000</ele><time>2010-06-09T09:05:00Z</time></trkpt>
	<trkpt lat="52.10467167" lon="-2.166383333"><ele>39.000000</ele><time>2010-06-09T09:05:05Z</time></trkpt>
	<trkpt lat="52.10468333" lon="-2.166385"><ele>38.000000</ele><time>2010-06-09T09:05:10Z</time></trkpt>
	<trkpt lat="52.104705" lon="-2.166383333"><ele>39.000000</ele><time>2010-06-09T09:05:15Z</time></trkpt>
	<trkpt lat="52.10472" lon="-2.166383333"><ele>37.000000</ele><time>2010-06-09T09:05:20Z</time></trkpt>
	<trkpt lat="52.10473833" lon="-2.1664"><ele>34.000000</ele><time>2010-06-09T09:05:25Z</time></trkpt>
	<trkpt lat="52.10475" lon="-2.16643"><ele>31.000000</ele><time>2010-06-09T09:05:30Z</time></trkpt>
	<trkpt lat="52.10476" lon="-2.166431667"><ele>27.000000</ele><time>2010-06-09T09:05:35Z</time></trkpt>
	<trkpt lat="52.10476333" lon="-2.166431667"><ele>22.000000</ele><time>2010-06-09T09:05:40Z</time></trkpt>
	<trkpt lat="52.10476333" lon="-2.166416667"><ele>24.000000</ele><time>2010-06-09T09:05:45Z</time></trkpt>
	<trkpt lat="52.10475833" lon="-2.166426667"><ele>25.000000</ele><time>2010-06-09T09:05:50Z</time></trkpt>
	<trkpt lat="52.10474333" lon="-2.166431667"><ele>28.000000</ele><time>2010-06-09T09:05:55Z</time></trkpt>
	<trkpt lat="52.10472833" lon="-2.166395"><ele>31.000000</ele><time>2010-06-09T09:06:00Z</time></trkpt>
	<trkpt lat="52.10471333" lon="-2.166371667"><ele>34.000000</ele><time>2010-06-09T09:06:06Z</time></trkpt>
	<trkpt lat="52.10470833" lon="-2.166365"><ele>35.000000</ele><time>2010-06-09T09:06:11Z</time></trkpt>
	<trkpt lat="52.10469333" lon="-2.166388333"><ele>35.000000</ele><time>2010-06-09T09:06:17Z</time></trkpt>
	<trkpt lat="52.10469333" lon="-2.166383333"><ele>35.000000</ele><time>2010-06-09T09:06:22Z</time></trkpt>
	<trkpt lat="52.10469333" lon="-2.16638"><ele>35.000000</ele><time>2010-06-09T09:06:27Z</time></trkpt>
	<trkpt lat="52.10468833" lon="-2.166368333"><ele>35.000000</ele><time>2010-06-09T09:06:33Z</time></trkpt>
	<trkpt lat="52.104685" lon="-2.166375"><ele>36.000000</ele><time>2010-06-09T09:06:38Z</time></trkpt>
	<trkpt lat="52.10468667" lon="-2.166373333"><ele>37.000000</ele><time>2010-06-09T09:06:43Z</time></trkpt>
	<trkpt lat="52.10469667" lon="-2.166353333"><ele>35.000000</ele><time>2010-06-09T09:06:48Z</time></trkpt>
	<trkpt lat="52.104705" lon="-2.166336667"><ele>34.000000</ele><time>2010-06-09T09:06:53Z</time></trkpt>
	<trkpt lat="52.10471167" lon="-2.166333333"><ele>33.000000</ele><time>2010-06-09T09:06:59Z</time></trkpt>
	<trkpt lat="52.10471333" lon="-2.16634"><ele>33.000000</ele><time>2010-06-09T09:07:05Z</time></trkpt>
	<trkpt lat="52.10470833" lon="-2.16634"><ele>34.000000</ele><time>2010-06-09T09:07:10Z</time></trkpt>
	<trkpt lat="52.104705" lon="-2.166343333"><ele>33.000000</ele><time>2010-06-09T09:07:15Z</time></trkpt>
	<trkpt lat="52.10470333" lon="-2.166345"><ele>32.000000</ele><time>2010-06-09T09:07:20Z</time></trkpt>
	<trkpt lat="52.10470167" lon="-2.16634"><ele>31.000000</ele><time>2010-06-09T09:07:25Z</time></trkpt>
	<trkpt lat="52.10469833" lon="-2.166336667"><ele>31.000000</ele><time>2010-06-09T09:07:30Z</time></trkpt>
	<trkpt lat="52.10469167" lon="-2.16633"><ele>33.000000</ele><time>2010-06-09T09:07:36Z</time></trkpt>
	<trkpt lat="52.10469" lon="-2.166321667"><ele>35.000000</ele><time>2010-06-09T09:07:41Z</time></trkpt>
	<trkpt lat="52.10469" lon="-2.166323333"><ele>33.000000</ele><time>2010-06-09T09:07:46Z</time></trkpt>
	<trkpt lat="52.10468167" lon="-2.166308333"><ele>31.000000</ele><time>2010-06-09T09:07:51Z</time></trkpt>
	<trkpt lat="52.10469333" lon="-2.166328333"><ele>29.000000</ele><time>2010-06-09T09:07:57Z</time></trkpt>
	<trkpt lat="52.1047" lon="-2.16634"><ele>29.000000</ele><time>2010-06-09T09:08:02Z</time></trkpt>
	<trkpt lat="52.10469833" lon="-2.166335"><ele>30.000000</ele><time>2010-06-09T09:08:07Z</time></trkpt>
	<trkpt lat="52.10469333" lon="-2.166328333"><ele>31.000000</ele><time>2010-06-09T09:08:12Z</time></trkpt>
	<trkpt lat="52.10468667" lon="-2.166303333"><ele>40.000000</ele><time>2010-06-09T09:08:17Z</time></trkpt>
	<trkpt lat="52.10468333" lon="-2.166291667"><ele>49.000000</ele><time>2010-06-09T09:08:22Z</time></trkpt>
	<trkpt lat="52.10468" lon="-2.16631"><ele>48.000000</ele><time>2010-06-09T09:08:27Z</time></trkpt>
	<trkpt lat="52.10468333" lon="-2.16636"><ele>44.000000</ele><time>2010-06-09T09:08:32Z</time></trkpt>
	<trkpt lat="52.10468" lon="-2.166376667"><ele>42.000000</ele><time>2010-06-09T09:08:37Z</time></trkpt>
	<trkpt lat="52.10467667" lon="-2.166413333"><ele>39.000000</ele><time>2010-06-09T09:08:42Z</time></trkpt>
	<trkpt lat="52.10468333" lon="-2.166433333"><ele>37.000000</ele><time>2010-06-09T09:08:47Z</time></trkpt>
	<trkpt lat="52.104685" lon="-2.166466667"><ele>30.000000</ele><time>2010-06-09T09:08:53Z</time></trkpt>
	<trkpt lat="52.10468" lon="-2.166481667"><ele>27.000000</ele><time>2010-06-09T09:08:58Z</time></trkpt>
	<trkpt lat="52.10468833" lon="-2.166483333"><ele>27.000000</ele><time>2010-06-09T09:09:03Z</time></trkpt>
	<trkpt lat="52.1047" lon="-2.166515"><ele>27.000000</ele><time>2010-06-09T09:09:09Z</time></trkpt>
	<trkpt lat="52.10470833" lon="-2.166546667"><ele>28.000000</ele><time>2010-06-09T09:09:14Z</time></trkpt>
	<trkpt lat="52.10470833" lon="-2.166575"><ele>28.000000</ele><time>2010-06-09T09:09:19Z</time></trkpt>
	<trkpt lat="52.1047" lon="-2.16661"><ele>29.000000</ele><time>2010-06-09T09:09:24Z</time></trkpt>
	<trkpt lat="52.10468833" lon="-2.166653333"><ele>29.000000</ele><time>2010-06-09T09:09:29Z</time></trkpt>
	<trkpt lat="52.10468" lon="-2.1667"><ele>30.000000</ele><time>2010-06-09T09:09:34Z</time></trkpt>
	<trkpt lat="52.104675" lon="-2.16673"><ele>31.000000</ele><time>2010-06-09T09:09:39Z</time></trkpt>
	<trkpt lat="52.10468333" lon="-2.16669"><ele>32.000000</ele><time>2010-06-09T09:09:44Z</time></trkpt>
	<trkpt lat="52.10470833" lon="-2.166576667"><ele>33.000000</ele><time>2010-06-09T09:09:49Z</time></trkpt>
	<trkpt lat="52.10472833" lon="-2.166476667"><ele>33.000000</ele><time>2010-06-09T09:09:55Z</time></trkpt>
	<trkpt lat="52.10472667" lon="-2.166465"><ele>35.000000</ele><time>2010-06-09T09:10:00Z</time></trkpt>
	<trkpt lat="52.10470833" lon="-2.166405"><ele>37.000000</ele><time>2010-06-09T09:10:05Z</time></trkpt>
	<trkpt lat="52.10470167" lon="-2.16633"><ele>39.000000</ele><time>2010-06-09T09:10:11Z</time></trkpt>
	<trkpt lat="52.10470667" lon="-2.166243333"><ele>39.000000</ele><time>2010-06-09T09:10:17Z</time></trkpt>
	<trkpt lat="52.10470667" lon="-2.166223333"><ele>37.000000</ele><time>2010-06-09T09:10:23Z</time></trkpt>
	<trkpt lat="52.10470667" lon="-2.166203333"><ele>37.000000</ele><time>2010-06-09T09:10:28Z</time></trkpt>
	<trkpt lat="52.10470833" lon="-2.166196667"><ele>37.000000</ele><time>2010-06-09T09:10:33Z</time></trkpt>
	<trkpt lat="52.10470833" lon="-2.166186667"><ele>37.000000</ele><time>2010-06-09T09:10:38Z</time></trkpt>
	<trkpt lat="52.10469667" lon="-2.166191667"><ele>35.000000</ele><time>2010-06-09T09:10:43Z</time></trkpt>
	<trkpt lat="52.10469333" lon="-2.166278333"><ele>35.000000</ele><time>2010-06-09T09:10:49Z</time></trkpt>
	<trkpt lat="52.10470667" lon="-2.166351667"><ele>33.000000</ele><time>2010-06-09T09:10:54Z</time></trkpt>
	<trkpt lat="52.10473" lon="-2.166378333"><ele>32.000000</ele><time>2010-06-09T09:10:59Z</time></trkpt>
	<trkpt lat="52.10473" lon="-2.166523333"><ele>34.000000</ele><time>2010-06-09T09:11:05Z</time></trkpt>
	<trkpt lat="52.10470667" lon="-2.166633333"><ele>33.000000</ele><time>2010-06-09T09:11:10Z</time></trkpt>
	<trkpt lat="52.10468167" lon="-2.166745"><ele>33.000000</ele><time>2010-06-09T09:11:15Z</time></trkpt>
	<trkpt lat="52.104655" lon="-2.166856667"><ele>33.000000</ele><time>2010-06-09T09:11:20Z</time></trkpt>
	<trkpt lat="52.104625" lon="-2.166948333"><ele>34.000000</ele><time>2010-06-09T09:11:25Z</time></trkpt>
	<trkpt lat="52.10459167" lon="-2.167005"><ele>33.000000</ele><time>2010-06-09T09:11:30Z</time></trkpt>
	<trkpt lat="52.10457" lon="-2.167016667"><ele>31.000000</ele><time>2010-06-09T09:11:35Z</time></trkpt>
	<trkpt lat="52.10455667" lon="-2.167021667"><ele>30.000000</ele><time>2010-06-09T09:11:40Z</time></trkpt>
	<trkpt lat="52.10455" lon="-2.16703"><ele>29.000000</ele><time>2010-06-09T09:11:45Z</time></trkpt>
	<trkpt lat="52.10454833" lon="-2.167036667"><ele>28.000000</ele><time>2010-06-09T09:11:51Z</time></trkpt>
	<trkpt lat="52.10455" lon="-2.167043333"><ele>28.000000</ele><time>2010-06-09T09:11:56Z</time></trkpt>
	<trkpt lat="52.10454833" lon="-2.16705"><ele>29.000000</ele><time>2010-06-09T09:12:01Z</time></trkpt>
	<trkpt lat="52.10455167" lon="-2.167058333"><ele>29.000000</ele><time>2010-06-09T09:12:06Z</time></trkpt>
	<trkpt lat="52.10455333" lon="-2.167066667"><ele>29.000000</ele><time>2010-06-09T09:12:11Z</time></trkpt>
	<trkpt lat="52.10453" lon="-2.167091667"><ele>30.000000</ele><time>2010-06-09T09:12:17Z</time></trkpt>
	<trkpt lat="52.10448167" lon="-2.167135"><ele>31.000000</ele><time>2010-06-09T09:12:23Z</time></trkpt>
	<trkpt lat="52.1044" lon="-2.167125"><ele>34.000000</ele><time>2010-06-09T09:12:28Z</time></trkpt>
	<trkpt lat="52.10434" lon="-2.16709"><ele>37.000000</ele><time>2010-06-09T09:12:33Z</time></trkpt>
	<trkpt lat="52.10427167" lon="-2.167073333"><ele>40.000000</ele><time>2010-06-09T09:12:39Z</time></trkpt>
	<trkpt lat="52.104215" lon="-2.167103333"><ele>40.000000</ele><time>2010-06-09T09:12:44Z</time></trkpt>
	<trkpt lat="52.10415" lon="-2.167138333"><ele>40.000000</ele><time>2010-06-09T09:12:49Z</time></trkpt>
	<trkpt lat="52.10411333" lon="-2.167185"><ele>42.000000</ele><time>2010-06-09T09:12:54Z</time></trkpt>
	<trkpt lat="52.104065" lon="-2.167176667"><ele>43.000000</ele><time>2010-06-09T09:13:00Z</time></trkpt>
	<trkpt lat="52.10403333" lon="-2.167178333"><ele>43.000000</ele><time>2010-06-09T09:13:05Z</time></trkpt>
	<trkpt lat="52.10399333" lon="-2.167186667"><ele>44.000000</ele><time>2010-06-09T09:13:11Z</time></trkpt>
	<trkpt lat="52.10396167" lon="-2.167183333"><ele>43.000000</ele><time>2010-06-09T09:13:16Z</time></trkpt>
	<trkpt lat="52.10393" lon="-2.167198333"><ele>39.000000</ele><time>2010-06-09T09:13:21Z</time></trkpt>
	<trkpt lat="52.10391" lon="-2.167216667"><ele>38.000000</ele><time>2010-06-09T09:13:26Z</time></trkpt>
	<trkpt lat="52.103895" lon="-2.167243333"><ele>38.000000</ele><time>2010-06-09T09:13:31Z</time></trkpt>
	<trkpt lat="52.10387667" lon="-2.167288333"><ele>36.000000</ele><time>2010-06-09T09:13:36Z</time></trkpt>
	<trkpt lat="52.103875" lon="-2.16732"><ele>37.000000</ele><time>2010-06-09T09:13:41Z</time></trkpt>
	<trkpt lat="52.10385167" lon="-2.167335"><ele>38.000000</ele><time>2010-06-09T09:13:46Z</time></trkpt>
	<trkpt lat="52.10383833" lon="-2.167345"><ele>38.000000</ele><time>2010-06-09T09:13:51Z</time></trkpt>
	<trkpt lat="52.10384167" lon="-2.167348333"><ele>42.000000</ele><time>2010-06-09T09:13:57Z</time></trkpt>
	<trkpt lat="52.10386167" lon="-2.167358333"><ele>38.000000</ele><time>2010-06-09T09:14:03Z</time></trkpt>
	<trkpt lat="52.10387667" lon="-2.167371667"><ele>37.000000</ele><time>2010-06-09T09:14:08Z</time></trkpt>
	<trkpt lat="52.10388833" lon="-2.167371667"><ele>37.000000</ele><time>2010-06-09T09:14:13Z</time></trkpt>
	<trkpt lat="52.103915" lon="-2.16738"><ele>37.000000</ele><time>2010-06-09T09:14:18Z</time></trkpt>
	<trkpt lat="52.103925" lon="-2.167385"><ele>37.000000</ele><time>2010-06-09T09:14:24Z</time></trkpt>
	<trkpt lat="52.103925" lon="-2.167385"><ele>36.000000</ele><time>2010-06-09T09:14:29Z</time></trkpt>
	<trkpt lat="52.10395833" lon="-2.167375"><ele>35.000000</ele><time>2010-06-09T09:14:34Z</time></trkpt>
	<trkpt lat="52.10396667" lon="-2.167376667"><ele>34.000000</ele><time>2010-06-09T09:14:40Z</time></trkpt>
	<trkpt lat="52.10400167" lon="-2.16738"><ele>34.000000</ele><time>2010-06-09T09:14:45Z</time></trkpt>
	<trkpt lat="52.10403" lon="-2.167371667"><ele>33.000000</ele><time>2010-06-09T09:14:50Z</time></trkpt>
	<trkpt lat="52.10404" lon="-2.167361667"><ele>32.000000</ele><time>2010-06-09T09:14:56Z</time></trkpt>
	<trkpt lat="52.10404167" lon="-2.167375"><ele>33.000000</ele><time>2010-06-09T09:15:01Z</time></trkpt>
	<trkpt lat="52.10407" lon="-2.167401667"><ele>34.000000</ele><time>2010-06-09T09:15:06Z</time></trkpt>
	<trkpt lat="52.10410833" lon="-2.167431667"><ele>35.000000</ele><time>2010-06-09T09:15:11Z</time></trkpt>
	<trkpt lat="52.10415167" lon="-2.167463333"><ele>36.000000</ele><time>2010-06-09T09:15:16Z</time></trkpt>
	<trkpt lat="52.10419167" lon="-2.167505"><ele>36.000000</ele><time>2010-06-09T09:15:21Z</time></trkpt>
	<trkpt lat="52.10422167" lon="-2.167558333"><ele>35.000000</ele><time>2010-06-09T09:15:27Z</time></trkpt>
	<trkpt lat="52.10424333" lon="-2.167606667"><ele>36.000000</ele><time>2010-06-09T09:15:32Z</time></trkpt>
	<trkpt lat="52.104265" lon="-2.167665"><ele>35.000000</ele><time>2010-06-09T09:15:37Z</time></trkpt>
	<trkpt lat="52.10428" lon="-2.167725"><ele>35.000000</ele><time>2010-06-09T09:15:42Z</time></trkpt>
	<trkpt lat="52.10429667" lon="-2.167795"><ele>34.000000</ele><time>2010-06-09T09:15:48Z</time></trkpt>
	<trkpt lat="52.10431167" lon="-2.167866667"><ele>33.000000</ele><time>2010-06-09T09:15:54Z</time></trkpt>
	<trkpt lat="52.10432667" lon="-2.167936667"><ele>33.000000</ele><time>2010-06-09T09:15:59Z</time></trkpt>
	<trkpt lat="52.10433833" lon="-2.168005"><ele>32.000000</ele><time>2010-06-09T09:16:04Z</time></trkpt>
	<trkpt lat="52.10435167" lon="-2.168071667"><ele>32.000000</ele><time>2010-06-09T09:16:09Z</time></trkpt>
	<trkpt lat="52.10436333" lon="-2.168155"><ele>31.000000</ele><time>2010-06-09T09:16:15Z</time></trkpt>
	<trkpt lat="52.104375" lon="-2.16822"><ele>30.000000</ele><time>2010-06-09T09:16:20Z</time></trkpt>
	<trkpt lat="52.10438667" lon="-2.168296667"><ele>30.000000</ele><time>2010-06-09T09:16:25Z</time></trkpt>
	<trkpt lat="52.10440167" lon="-2.16837"><ele>30.000000</ele><time>2010-06-09T09:16:30Z</time></trkpt>
	<trkpt lat="52.104415" lon="-2.16845"><ele>29.000000</ele><time>2010-06-09T09:16:36Z</time></trkpt>
	<trkpt lat="52.10442667" lon="-2.168518333"><ele>29.000000</ele><time>2010-06-09T09:16:41Z</time></trkpt>
	<trkpt lat="52.10443833" lon="-2.168576667"><ele>29.000000</ele><time>2010-06-09T09:16:46Z</time></trkpt>
	<trkpt lat="52.10445" lon="-2.168648333"><ele>28.000000</ele><time>2010-06-09T09:16:51Z</time></trkpt>
	<trkpt lat="52.10446" lon="-2.168721667"><ele>27.000000</ele><time>2010-06-09T09:16:56Z</time></trkpt>
	<trkpt lat="52.10447" lon="-2.168788333"><ele>27.000000</ele><time>2010-06-09T09:17:01Z</time></trkpt>
	<trkpt lat="52.104475" lon="-2.168833333"><ele>27.000000</ele><time>2010-06-09T09:17:06Z</time></trkpt>
	<trkpt lat="52.104475" lon="-2.168838333"><ele>25.000000</ele><time>2010-06-09T09:17:11Z</time></trkpt>
	<trkpt lat="52.10447167" lon="-2.168835"><ele>24.000000</ele><time>2010-06-09T09:17:16Z</time></trkpt>
	<trkpt lat="52.10447667" lon="-2.168831667"><ele>25.000000</ele><time>2010-06-09T09:17:21Z</time></trkpt>
	<trkpt lat="52.10448167" lon="-2.168831667"><ele>25.000000</ele><time>2010-06-09T09:17:27Z</time></trkpt>
	<trkpt lat="52.10448" lon="-2.168828333"><ele>24.000000</ele><time>2010-06-09T09:17:32Z</time></trkpt>
	<trkpt lat="52.10447667" lon="-2.16883"><ele>22.000000</ele><time>2010-06-09T09:17:37Z</time></trkpt>
	<trkpt lat="52.10448" lon="-2.168835"><ele>22.000000</ele><time>2010-06-09T09:17:42Z</time></trkpt>
	<trkpt lat="52.10448" lon="-2.168835"><ele>21.000000</ele><time>2010-06-09T09:17:47Z</time></trkpt>
	<trkpt lat="52.10448" lon="-2.168836667"><ele>21.000000</ele><time>2010-06-09T09:17:52Z</time></trkpt>
	<trkpt lat="52.10448" lon="-2.168836667"><ele>21.000000</ele><time>2010-06-09T09:17:57Z</time></trkpt>
	<trkpt lat="52.10448" lon="-2.168836667"><ele>21.000000</ele><time>2010-06-09T09:18:02Z</time></trkpt>
	<trkpt lat="52.10448" lon="-2.168836667"><ele>21.000000</ele><time>2010-06-09T09:18:07Z</time></trkpt>
	<trkpt lat="52.10448" lon="-2.168836667"><ele>21.000000</ele><time>2010-06-09T09:18:12Z</time></trkpt>
	<trkpt lat="52.10448" lon="-2.168836667"><ele>21.000000</ele><time>2010-06-09T09:18:17Z</time></trkpt>
	<trkpt lat="52.10447667" lon="-2.168836667"><ele>21.000000</ele><time>2010-06-09T09:18:22Z</time></trkpt>
	<trkpt lat="52.10447667" lon="-2.168836667"><ele>21.000000</ele><time>2010-06-09T09:18:27Z</time></trkpt>
	<trkpt lat="52.10447667" lon="-2.168836667"><ele>21.000000</ele><time>2010-06-09T09:18:33Z</time></trkpt>
	<trkpt lat="52.10447667" lon="-2.168836667"><ele>21.000000</ele><time>2010-06-09T09:18:38Z</time></trkpt>
	<trkpt lat="52.10447667" lon="-2.168836667"><ele>21.000000</ele><time>2010-06-09T09:18:43Z</time></trkpt>
	<trkpt lat="52.10447667" lon="-2.168836667"><ele>21.000000</ele><time>2010-06-09T09:18:48Z</time></trkpt>
	<trkpt lat="52.10447667" lon="-2.168835"><ele>21.000000</ele><time>2010-06-09T09:18:53Z</time></trkpt>
	<trkpt lat="52.10447667" lon="-2.168835"><ele>21.000000</ele><time>2010-06-09T09:18:58Z</time></trkpt>
	<trkpt lat="52.10447667" lon="-2.168835"><ele>21.000000</ele><time>2010-06-09T09:19:03Z</time></trkpt>
	<trkpt lat="52.10447667" lon="-2.168835"><ele>21.000000</ele><time>2010-06-09T09:19:08Z</time></trkpt>
	<trkpt lat="52.10447667" lon="-2.168835"><ele>21.000000</ele><time>2010-06-09T09:19:13Z</time></trkpt>
	<trkpt lat="52.10447667" lon="-2.168835"><ele>21.000000</ele><time>2010-06-09T09:19:18Z</time></trkpt>
	<trkpt lat="52.104475" lon="-2.168833333"><ele>21.000000</ele><time>2010-06-09T09:19:23Z</time></trkpt>
	<trkpt lat="52.104475" lon="-2.168833333"><ele>21.000000</ele><time>2010-06-09T09:19:29Z</time></trkpt>
	<trkpt lat="52.104475" lon="-2.168833333"><ele>21.000000</ele><time>2010-06-09T09:19:34Z</time></trkpt>
	<trkpt lat="52.104475" lon="-2.168833333"><ele>22.000000</ele><time>2010-06-09T09:19:39Z</time></trkpt>
	<trkpt lat="52.104475" lon="-2.168833333"><ele>22.000000</ele><time>2010-06-09T09:19:44Z</time></trkpt>
	<trkpt lat="52.10447333" lon="-2.168831667"><ele>22.000000</ele><time>2010-06-09T09:19:49Z</time></trkpt>
	<trkpt lat="52.10447333" lon="-2.168831667"><ele>22.000000</ele><time>2010-06-09T09:19:54Z</time></trkpt>
	<trkpt lat="52.10447333" lon="-2.168831667"><ele>22.000000</ele><time>2010-06-09T09:19:59Z</time></trkpt>
	<trkpt lat="52.10447333" lon="-2.168831667"><ele>22.000000</ele><time>2010-06-09T09:20:04Z</time></trkpt>
	<trkpt lat="52.10447333" lon="-2.168831667"><ele>22.000000</ele><time>2010-06-09T09:20:09Z</time></trkpt>
	<trkpt lat="52.10447333" lon="-2.168831667"><ele>21.000000</ele><time>2010-06-09T09:20:14Z</time></trkpt>
	<trkpt lat="52.10447167" lon="-2.168831667"><ele>21.000000</ele><time>2010-06-09T09:20:19Z</time></trkpt>
	<trkpt lat="52.10447167" lon="-2.168831667"><ele>21.000000</ele><time>2010-06-09T09:20:24Z</time></trkpt>
	<trkpt lat="52.10447167" lon="-2.168831667"><ele>21.000000</ele><time>2010-06-09T09:20:29Z</time></trkpt>
	<trkpt lat="52.10447167" lon="-2.168833333"><ele>21.000000</ele><time>2010-06-09T09:20:34Z</time></trkpt>
	<trkpt lat="52.10447167" lon="-2.168833333"><ele>21.000000</ele><time>2010-06-09T09:20:39Z</time></trkpt>
	<trkpt lat="52.10447167" lon="-2.168833333"><ele>21.000000</ele><time>2010-06-09T09:20:45Z</time></trkpt>
	<trkpt lat="52.10447167" lon="-2.168833333"><ele>21.000000</ele><time>2010-06-09T09:20:50Z</time></trkpt>
	<trkpt lat="52.10447" lon="-2.168833333"><ele>21.000000</ele><time>2010-06-09T09:20:55Z</time></trkpt>
	<trkpt lat="52.10447" lon="-2.168833333"><ele>21.000000</ele><time>2010-06-09T09:21:00Z</time></trkpt>
	<trkpt lat="52.10447" lon="-2.168833333"><ele>21.000000</ele><time>2010-06-09T09:21:05Z</time></trkpt>
	<trkpt lat="52.10447" lon="-2.168833333"><ele>21.000000</ele><time>2010-06-09T09:21:10Z</time></trkpt>
	<trkpt lat="52.10447" lon="-2.168833333"><ele>21.000000</ele><time>2010-06-09T09:21:15Z</time></trkpt>
	<trkpt lat="52.10447" lon="-2.168833333"><ele>21.000000</ele><time>2010-06-09T09:21:20Z</time></trkpt>
	<trkpt lat="52.10447" lon="-2.168833333"><ele>22.000000</ele><time>2010-06-09T09:21:25Z</time></trkpt>
	<trkpt lat="52.10447" lon="-2.168833333"><ele>22.000000</ele><time>2010-06-09T09:21:30Z</time></trkpt>
	<trkpt lat="52.10447" lon="-2.168833333"><ele>22.000000</ele><time>2010-06-09T09:21:35Z</time></trkpt>
	<trkpt lat="52.10446833" lon="-2.168833333"><ele>22.000000</ele><time>2010-06-09T09:21:41Z</time></trkpt>
	<trkpt lat="52.10446833" lon="-2.168833333"><ele>22.000000</ele><time>2010-06-09T09:21:47Z</time></trkpt>
	<trkpt lat="52.10446833" lon="-2.168833333"><ele>22.000000</ele><time>2010-06-09T09:21:52Z</time></trkpt>
	<trkpt lat="52.10447" lon="-2.168833333"><ele>22.000000</ele><time>2010-06-09T09:21:57Z</time></trkpt>
	<trkpt lat="52.10447" lon="-2.168833333"><ele>22.000000</ele><time>2010-06-09T09:22:02Z</time></trkpt>
	<trkpt lat="52.10447" lon="-2.168831667"><ele>21.000000</ele><time>2010-06-09T09:22:07Z</time></trkpt>
	<trkpt lat="52.10447" lon="-2.168831667"><ele>21.000000</ele><time>2010-06-09T09:22:12Z</time></trkpt>
	<trkpt lat="52.10447" lon="-2.168831667"><ele>21.000000</ele><time>2010-06-09T09:22:18Z</time></trkpt>
	<trkpt lat="52.10447" lon="-2.168831667"><ele>21.000000</ele><time>2010-06-09T09:22:24Z</time></trkpt>
	<trkpt lat="52.10447" lon="-2.168831667"><ele>21.000000</ele><time>2010-06-09T09:22:29Z</time></trkpt>
	<trkpt lat="52.10447167" lon="-2.168831667"><ele>21.000000</ele><time>2010-06-09T09:22:35Z</time></trkpt>
	<trkpt lat="52.10447167" lon="-2.168831667"><ele>21.000000</ele><time>2010-06-09T09:22:40Z</time></trkpt>
	<trkpt lat="52.10447167" lon="-2.168831667"><ele>21.000000</ele><time>2010-06-09T09:22:45Z</time></trkpt>
	<trkpt lat="52.10447167" lon="-2.168833333"><ele>21.000000</ele><time>2010-06-09T09:22:50Z</time></trkpt>
	<trkpt lat="52.10447167" lon="-2.168833333"><ele>22.000000</ele><time>2010-06-09T09:22:55Z</time></trkpt>
	<trkpt lat="52.10447167" lon="-2.168831667"><ele>22.000000</ele><time>2010-06-09T09:23:00Z</time></trkpt>
	<trkpt lat="52.10447167" lon="-2.168831667"><ele>22.000000</ele><time>2010-06-09T09:23:05Z</time></trkpt>
	<trkpt lat="52.10447167" lon="-2.168833333"><ele>22.000000</ele><time>2010-06-09T09:23:11Z</time></trkpt>
	<trkpt lat="52.10447" lon="-2.168835"><ele>22.000000</ele><time>2010-06-09T09:23:16Z</time></trkpt>
	<trkpt lat="52.10447" lon="-2.16885"><ele>23.000000</ele><time>2010-06-09T09:23:21Z</time></trkpt>
	<trkpt lat="52.10448667" lon="-2.168961667"><ele>22.000000</ele><time>2010-06-09T09:23:27Z</time></trkpt>
	<trkpt lat="52.10450667" lon="-2.169086667"><ele>22.000000</ele><time>2010-06-09T09:23:32Z</time></trkpt>
	<trkpt lat="52.10452333" lon="-2.169206667"><ele>21.000000</ele><time>2010-06-09T09:23:37Z</time></trkpt>
	<trkpt lat="52.10453667" lon="-2.169318333"><ele>21.000000</ele><time>2010-06-09T09:23:42Z</time></trkpt>
	<trkpt lat="52.10454667" lon="-2.169433333"><ele>21.000000</ele><time>2010-06-09T09:23:47Z</time></trkpt>
	<trkpt lat="52.10455333" lon="-2.169546667"><ele>21.000000</ele><time>2010-06-09T09:23:52Z</time></trkpt>
	<trkpt lat="52.10456167" lon="-2.169666667"><ele>21.000000</ele><time>2010-06-09T09:23:57Z</time></trkpt>
	<trkpt lat="52.10457833" lon="-2.169783333"><ele>21.000000</ele><time>2010-06-09T09:24:02Z</time></trkpt>
	<trkpt lat="52.10461" lon="-2.169893333"><ele>20.000000</ele><time>2010-06-09T09:24:07Z</time></trkpt>
	<trkpt lat="52.10464167" lon="-2.170006667"><ele>21.000000</ele><time>2010-06-09T09:24:12Z</time></trkpt>
	<trkpt lat="52.10467167" lon="-2.17012"><ele>21.000000</ele><time>2010-06-09T09:24:17Z</time></trkpt>
	<trkpt lat="52.10472167" lon="-2.170216667"><ele>21.000000</ele><time>2010-06-09T09:24:22Z</time></trkpt>
	<trkpt lat="52.10476833" lon="-2.17031"><ele>21.000000</ele><time>2010-06-09T09:24:27Z</time></trkpt>
	<trkpt lat="52.10482333" lon="-2.170391667"><ele>21.000000</ele><time>2010-06-09T09:24:32Z</time></trkpt>
	<trkpt lat="52.10487333" lon="-2.170475"><ele>21.000000</ele><time>2010-06-09T09:24:37Z</time></trkpt>
	<trkpt lat="52.10492667" lon="-2.170558333"><ele>22.000000</ele><time>2010-06-09T09:24:42Z</time></trkpt>
	<trkpt lat="52.10497833" lon="-2.170638333"><ele>22.000000</ele><time>2010-06-09T09:24:47Z</time></trkpt>
	<trkpt lat="52.10503167" lon="-2.17072"><ele>22.000000</ele><time>2010-06-09T09:24:52Z</time></trkpt>
	<trkpt lat="52.10508333" lon="-2.1708"><ele>22.000000</ele><time>2010-06-09T09:24:57Z</time></trkpt>
	<trkpt lat="52.10514167" lon="-2.170886667"><ele>22.000000</ele><time>2010-06-09T09:25:02Z</time></trkpt>
	<trkpt lat="52.105195" lon="-2.170975"><ele>22.000000</ele><time>2010-06-09T09:25:07Z</time></trkpt>
	<trkpt lat="52.10524833" lon="-2.171063333"><ele>23.000000</ele><time>2010-06-09T09:25:12Z</time></trkpt>
	<trkpt lat="52.1053" lon="-2.171151667"><ele>23.000000</ele><time>2010-06-09T09:25:17Z</time></trkpt>
	<trkpt lat="52.10535333" lon="-2.171235"><ele>23.000000</ele><time>2010-06-09T09:25:22Z</time></trkpt>
	<trkpt lat="52.10540167" lon="-2.171323333"><ele>23.000000</ele><time>2010-06-09T09:25:27Z</time></trkpt>
	<trkpt lat="52.10545333" lon="-2.171406667"><ele>23.000000</ele><time>2010-06-09T09:25:32Z</time></trkpt>
	<trkpt lat="52.10550167" lon="-2.171488333"><ele>24.000000</ele><time>2010-06-09T09:25:37Z</time></trkpt>
	<trkpt lat="52.10556" lon="-2.171588333"><ele>24.000000</ele><time>2010-06-09T09:25:43Z</time></trkpt>
	<trkpt lat="52.10560833" lon="-2.17167"><ele>24.000000</ele><time>2010-06-09T09:25:48Z</time></trkpt>
	<trkpt lat="52.10565667" lon="-2.171751667"><ele>24.000000</ele><time>2010-06-09T09:25:53Z</time></trkpt>
	<trkpt lat="52.105715" lon="-2.171846667"><ele>24.000000</ele><time>2010-06-09T09:25:59Z</time></trkpt>
	<trkpt lat="52.10576333" lon="-2.171931667"><ele>25.000000</ele><time>2010-06-09T09:26:04Z</time></trkpt>
	<trkpt lat="52.10581" lon="-2.17201"><ele>25.000000</ele><time>2010-06-09T09:26:09Z</time></trkpt>
	<trkpt lat="52.105855" lon="-2.172088333"><ele>25.000000</ele><time>2010-06-09T09:26:14Z</time></trkpt>
	<trkpt lat="52.10590333" lon="-2.172165"><ele>25.000000</ele><time>2010-06-09T09:26:19Z</time></trkpt>
	<trkpt lat="52.10594833" lon="-2.172243333"><ele>25.000000</ele><time>2010-06-09T09:26:24Z</time></trkpt>
	<trkpt lat="52.10599" lon="-2.17232"><ele>25.000000</ele><time>2010-06-09T09:26:29Z</time></trkpt>
	<trkpt lat="52.106025" lon="-2.172385"><ele>26.000000</ele><time>2010-06-09T09:26:35Z</time></trkpt>
	<trkpt lat="52.106025" lon="-2.172398333"><ele>26.000000</ele><time>2010-06-09T09:26:40Z</time></trkpt>
	<trkpt lat="52.10602667" lon="-2.172396667"><ele>26.000000</ele><time>2010-06-09T09:26:45Z</time></trkpt>
	<trkpt lat="52.106055" lon="-2.172441667"><ele>26.000000</ele><time>2010-06-09T09:26:50Z</time></trkpt>
	<trkpt lat="52.10609167" lon="-2.172498333"><ele>26.000000</ele><time>2010-06-09T09:26:55Z</time></trkpt>
	<trkpt lat="52.106125" lon="-2.172556667"><ele>26.000000</ele><time>2010-06-09T09:27:00Z</time></trkpt>
	<trkpt lat="52.10616" lon="-2.172613333"><ele>26.000000</ele><time>2010-06-09T09:27:05Z</time></trkpt>
	<trkpt lat="52.10619333" lon="-2.172635"><ele>26.000000</ele><time>2010-06-09T09:27:10Z</time></trkpt>
	<trkpt lat="52.1062" lon="-2.172645"><ele>25.000000</ele><time>2010-06-09T09:27:15Z</time></trkpt>
	<trkpt lat="52.10621" lon="-2.172643333"><ele>25.000000</ele><time>2010-06-09T09:27:20Z</time></trkpt>
	<trkpt lat="52.106215" lon="-2.172651667"><ele>25.000000</ele><time>2010-06-09T09:27:25Z</time></trkpt>
	<trkpt lat="52.10621333" lon="-2.17265"><ele>25.000000</ele><time>2010-06-09T09:27:30Z</time></trkpt>
	<trkpt lat="52.10621833" lon="-2.172651667"><ele>26.000000</ele><time>2010-06-09T09:27:35Z</time></trkpt>
	<trkpt lat="52.10625167" lon="-2.172638333"><ele>26.000000</ele><time>2010-06-09T09:27:40Z</time></trkpt>
	<trkpt lat="52.106285" lon="-2.172635"><ele>26.000000</ele><time>2010-06-09T09:27:45Z</time></trkpt>
	<trkpt lat="52.10632" lon="-2.172631667"><ele>27.000000</ele><time>2010-06-09T09:27:51Z</time></trkpt>
	<trkpt lat="52.10635" lon="-2.172641667"><ele>28.000000</ele><time>2010-06-09T09:27:57Z</time></trkpt>
	<trkpt lat="52.10635" lon="-2.172646667"><ele>27.000000</ele><time>2010-06-09T09:28:02Z</time></trkpt>
	<trkpt lat="52.10636" lon="-2.172651667"><ele>27.000000</ele><time>2010-06-09T09:28:07Z</time></trkpt>
	<trkpt lat="52.106365" lon="-2.172646667"><ele>26.000000</ele><time>2010-06-09T09:28:13Z</time></trkpt>
	<trkpt lat="52.10636833" lon="-2.172648333"><ele>26.000000</ele><time>2010-06-09T09:28:18Z</time></trkpt>
	<trkpt lat="52.106385" lon="-2.172645"><ele>26.000000</ele><time>2010-06-09T09:28:24Z</time></trkpt>
	<trkpt lat="52.10639" lon="-2.172643333"><ele>26.000000</ele><time>2010-06-09T09:28:29Z</time></trkpt>
	<trkpt lat="52.10639167" lon="-2.172646667"><ele>26.000000</ele><time>2010-06-09T09:28:34Z</time></trkpt>
	<trkpt lat="52.10639333" lon="-2.172648333"><ele>27.000000</ele><time>2010-06-09T09:28:39Z</time></trkpt>
	<trkpt lat="52.10640333" lon="-2.172651667"><ele>26.000000</ele><time>2010-06-09T09:28:44Z</time></trkpt>
	<trkpt lat="52.10640667" lon="-2.172658333"><ele>27.000000</ele><time>2010-06-09T09:28:49Z</time></trkpt>
	<trkpt lat="52.10641" lon="-2.172663333"><ele>27.000000</ele><time>2010-06-09T09:28:54Z</time></trkpt>
	<trkpt lat="52.10641333" lon="-2.172676667"><ele>27.000000</ele><time>2010-06-09T09:28:59Z</time></trkpt>
	<trkpt lat="52.10644" lon="-2.172685"><ele>27.000000</ele><time>2010-06-09T09:29:04Z</time></trkpt>
	<trkpt lat="52.10647" lon="-2.172733333"><ele>27.000000</ele><time>2010-06-09T09:29:09Z</time></trkpt>
	<trkpt lat="52.10650333" lon="-2.172786667"><ele>27.000000</ele><time>2010-06-09T09:29:14Z</time></trkpt>
	<trkpt lat="52.10654" lon="-2.172845"><ele>27.000000</ele><time>2010-06-09T09:29:19Z</time></trkpt>
	<trkpt lat="52.106575" lon="-2.172896667"><ele>27.000000</ele><time>2010-06-09T09:29:24Z</time></trkpt>
	<trkpt lat="52.10661167" lon="-2.172953333"><ele>27.000000</ele><time>2010-06-09T09:29:29Z</time></trkpt>
	<trkpt lat="52.10664667" lon="-2.173008333"><ele>27.000000</ele><time>2010-06-09T09:29:34Z</time></trkpt>
	<trkpt lat="52.10668667" lon="-2.17306"><ele>27.000000</ele><time>2010-06-09T09:29:39Z</time></trkpt>
	<trkpt lat="52.10672667" lon="-2.173116667"><ele>27.000000</ele><time>2010-06-09T09:29:44Z</time></trkpt>
	<trkpt lat="52.10676833" lon="-2.173163333"><ele>27.000000</ele><time>2010-06-09T09:29:49Z</time></trkpt>
	<trkpt lat="52.10680333" lon="-2.173218333"><ele>27.000000</ele><time>2010-06-09T09:29:54Z</time></trkpt>
	<trkpt lat="52.10683333" lon="-2.173276667"><ele>27.000000</ele><time>2010-06-09T09:29:59Z</time></trkpt>
	<trkpt lat="52.10686667" lon="-2.173323333"><ele>27.000000</ele><time>2010-06-09T09:30:04Z</time></trkpt>
	<trkpt lat="52.1069" lon="-2.173373333"><ele>27.000000</ele><time>2010-06-09T09:30:09Z</time></trkpt>
	<trkpt lat="52.10693667" lon="-2.173413333"><ele>28.000000</ele><time>2010-06-09T09:30:14Z</time></trkpt>
	<trkpt lat="52.10697167" lon="-2.173456667"><ele>27.000000</ele><time>2010-06-09T09:30:19Z</time></trkpt>
	<trkpt lat="52.10701167" lon="-2.173503333"><ele>27.000000</ele><time>2010-06-09T09:30:24Z</time></trkpt>
	<trkpt lat="52.10704667" lon="-2.173551667"><ele>27.000000</ele><time>2010-06-09T09:30:29Z</time></trkpt>
	<trkpt lat="52.10708333" lon="-2.173598333"><ele>27.000000</ele><time>2010-06-09T09:30:34Z</time></trkpt>
	<trkpt lat="52.107115" lon="-2.173646667"><ele>27.000000</ele><time>2010-06-09T09:30:39Z</time></trkpt>
	<trkpt lat="52.10715167" lon="-2.173695"><ele>28.000000</ele><time>2010-06-09T09:30:44Z</time></trkpt>
	<trkpt lat="52.10719333" lon="-2.173746667"><ele>27.000000</ele><time>2010-06-09T09:30:49Z</time></trkpt>
	<trkpt lat="52.10723167" lon="-2.1738"><ele>27.000000</ele><time>2010-06-09T09:30:54Z</time></trkpt>
	<trkpt lat="52.10726833" lon="-2.173846667"><ele>28.000000</ele><time>2010-06-09T09:30:59Z</time></trkpt>
	<trkpt lat="52.107295" lon="-2.17389"><ele>28.000000</ele><time>2010-06-09T09:31:04Z</time></trkpt>
	<trkpt lat="52.10732667" lon="-2.173941667"><ele>28.000000</ele><time>2010-06-09T09:31:09Z</time></trkpt>
	<trkpt lat="52.107365" lon="-2.173993333"><ele>28.000000</ele><time>2010-06-09T09:31:14Z</time></trkpt>
	<trkpt lat="52.10739667" lon="-2.174048333"><ele>28.000000</ele><time>2010-06-09T09:31:19Z</time></trkpt>
	<trkpt lat="52.10743667" lon="-2.174096667"><ele>28.000000</ele><time>2010-06-09T09:31:24Z</time></trkpt>
	<trkpt lat="52.107475" lon="-2.17415"><ele>28.000000</ele><time>2010-06-09T09:31:29Z</time></trkpt>
	<trkpt lat="52.10751167" lon="-2.174205"><ele>28.000000</ele><time>2010-06-09T09:31:34Z</time></trkpt>
	<trkpt lat="52.10755167" lon="-2.17426"><ele>28.000000</ele><time>2010-06-09T09:31:39Z</time></trkpt>
	<trkpt lat="52.10759" lon="-2.174311667"><ele>28.000000</ele><time>2010-06-09T09:31:44Z</time></trkpt>
	<trkpt lat="52.10762167" lon="-2.174365"><ele>28.000000</ele><time>2010-06-09T09:31:49Z</time></trkpt>
	<trkpt lat="52.10766" lon="-2.17442"><ele>28.000000</ele><time>2010-06-09T09:31:54Z</time></trkpt>
	<trkpt lat="52.10769667" lon="-2.174473333"><ele>28.000000</ele><time>2010-06-09T09:31:59Z</time></trkpt>
	<trkpt lat="52.10773333" lon="-2.174525"><ele>28.000000</ele><time>2010-06-09T09:32:04Z</time></trkpt>
	<trkpt lat="52.10777167" lon="-2.174576667"><ele>28.000000</ele><time>2010-06-09T09:32:09Z</time></trkpt>
	<trkpt lat="52.10780833" lon="-2.17463"><ele>28.000000</ele><time>2010-06-09T09:32:14Z</time></trkpt>
	<trkpt lat="52.10784833" lon="-2.17468"><ele>28.000000</ele><time>2010-06-09T09:32:19Z</time></trkpt>
	<trkpt lat="52.107885" lon="-2.174736667"><ele>28.000000</ele><time>2010-06-09T09:32:24Z</time></trkpt>
	<trkpt lat="52.10793" lon="-2.174798333"><ele>28.000000</ele><time>2010-06-09T09:32:30Z</time></trkpt>
	<trkpt lat="52.10795667" lon="-2.174828333"><ele>28.000000</ele><time>2010-06-09T09:32:35Z</time></trkpt>
	<trkpt lat="52.10796833" lon="-2.17484"><ele>29.000000</ele><time>2010-06-09T09:32:41Z</time></trkpt>
	<trkpt lat="52.107975" lon="-2.174848333"><ele>29.000000</ele><time>2010-06-09T09:32:47Z</time></trkpt>
	<trkpt lat="52.10798333" lon="-2.174861667"><ele>29.000000</ele><time>2010-06-09T09:32:52Z</time></trkpt>
	<trkpt lat="52.10799833" lon="-2.174873333"><ele>29.000000</ele><time>2010-06-09T09:32:57Z</time></trkpt>
	<trkpt lat="52.10801333" lon="-2.1749"><ele>29.000000</ele><time>2010-06-09T09:33:02Z</time></trkpt>
	<trkpt lat="52.10805333" lon="-2.174948333"><ele>29.000000</ele><time>2010-06-09T09:33:07Z</time></trkpt>
	<trkpt lat="52.10809167" lon="-2.175003333"><ele>29.000000</ele><time>2010-06-09T09:33:12Z</time></trkpt>
	<trkpt lat="52.10812833" lon="-2.175068333"><ele>29.000000</ele><time>2010-06-09T09:33:17Z</time></trkpt>
	<trkpt lat="52.10817833" lon="-2.175135"><ele>28.000000</ele><time>2010-06-09T09:33:23Z</time></trkpt>
	<trkpt lat="52.10822167" lon="-2.175206667"><ele>28.000000</ele><time>2010-06-09T09:33:29Z</time></trkpt>
	<trkpt lat="52.10826" lon="-2.175251667"><ele>28.000000</ele><time>2010-06-09T09:33:34Z</time></trkpt>
	<trkpt lat="52.10828333" lon="-2.175288333"><ele>28.000000</ele><time>2010-06-09T09:33:39Z</time></trkpt>
	<trkpt lat="52.10832667" lon="-2.175345"><ele>28.000000</ele><time>2010-06-09T09:33:44Z</time></trkpt>
	<trkpt lat="52.10836833" lon="-2.175398333"><ele>28.000000</ele><time>2010-06-09T09:33:49Z</time></trkpt>
	<trkpt lat="52.10840667" lon="-2.175443333"><ele>27.000000</ele><time>2010-06-09T09:33:54Z</time></trkpt>
	<trkpt lat="52.108445" lon="-2.175493333"><ele>27.000000</ele><time>2010-06-09T09:33:59Z</time></trkpt>
	<trkpt lat="52.10849333" lon="-2.175553333"><ele>27.000000</ele><time>2010-06-09T09:34:05Z</time></trkpt>
	<trkpt lat="52.10853833" lon="-2.175613333"><ele>27.000000</ele><time>2010-06-09T09:34:11Z</time></trkpt>
	<trkpt lat="52.10858667" lon="-2.175676667"><ele>27.000000</ele><time>2010-06-09T09:34:17Z</time></trkpt>
	<trkpt lat="52.10862833" lon="-2.175726667"><ele>27.000000</ele><time>2010-06-09T09:34:22Z</time></trkpt>
	<trkpt lat="52.10867" lon="-2.175786667"><ele>27.000000</ele><time>2010-06-09T09:34:28Z</time></trkpt>
	<trkpt lat="52.10870833" lon="-2.175831667"><ele>27.000000</ele><time>2010-06-09T09:34:33Z</time></trkpt>
	<trkpt lat="52.10874667" lon="-2.175876667"><ele>27.000000</ele><time>2010-06-09T09:34:38Z</time></trkpt>
	<trkpt lat="52.10878167" lon="-2.175921667"><ele>27.000000</ele><time>2010-06-09T09:34:43Z</time></trkpt>
	<trkpt lat="52.10882333" lon="-2.175975"><ele>27.000000</ele><time>2010-06-09T09:34:49Z</time></trkpt>
	<trkpt lat="52.10886" lon="-2.17602"><ele>27.000000</ele><time>2010-06-09T09:34:54Z</time></trkpt>
	<trkpt lat="52.10889333" lon="-2.176076667"><ele>27.000000</ele><time>2010-06-09T09:35:00Z</time></trkpt>
	<trkpt lat="52.10892" lon="-2.176111667"><ele>27.000000</ele><time>2010-06-09T09:35:05Z</time></trkpt>
	<trkpt lat="52.10894167" lon="-2.176156667"><ele>27.000000</ele><time>2010-06-09T09:35:10Z</time></trkpt>
	<trkpt lat="52.10896167" lon="-2.176201667"><ele>27.000000</ele><time>2010-06-09T09:35:15Z</time></trkpt>
	<trkpt lat="52.10898833" lon="-2.17624"><ele>26.000000</ele><time>2010-06-09T09:35:20Z</time></trkpt>
	<trkpt lat="52.10901333" lon="-2.176286667"><ele>27.000000</ele><time>2010-06-09T09:35:25Z</time></trkpt>
	<trkpt lat="52.10901" lon="-2.176338333"><ele>27.000000</ele><time>2010-06-09T09:35:30Z</time></trkpt>
	<trkpt lat="52.10901" lon="-2.176341667"><ele>27.000000</ele><time>2010-06-09T09:35:35Z</time></trkpt>
	<trkpt lat="52.109035" lon="-2.176366667"><ele>28.000000</ele><time>2010-06-09T09:35:40Z</time></trkpt>
	<trkpt lat="52.109055" lon="-2.176413333"><ele>28.000000</ele><time>2010-06-09T09:35:45Z</time></trkpt>
	<trkpt lat="52.10908833" lon="-2.176455"><ele>28.000000</ele><time>2010-06-09T09:35:50Z</time></trkpt>
	<trkpt lat="52.10909333" lon="-2.17648"><ele>27.000000</ele><time>2010-06-09T09:35:55Z</time></trkpt>
	<trkpt lat="52.109105" lon="-2.176505"><ele>26.000000</ele><time>2010-06-09T09:36:00Z</time></trkpt>
	<trkpt lat="52.10912167" lon="-2.176526667"><ele>26.000000</ele><time>2010-06-09T09:36:05Z</time></trkpt>
	<trkpt lat="52.10918167" lon="-2.176578333"><ele>25.000000</ele><time>2010-06-09T09:36:10Z</time></trkpt>
	<trkpt lat="52.109135" lon="-2.176543333"><ele>25.000000</ele><time>2010-06-09T09:36:15Z</time></trkpt>
	<trkpt lat="52.109115" lon="-2.176526667"><ele>25.000000</ele><time>2010-06-09T09:36:20Z</time></trkpt>
	<trkpt lat="52.109105" lon="-2.17652"><ele>24.000000</ele><time>2010-06-09T09:36:25Z</time></trkpt>
	<trkpt lat="52.10909667" lon="-2.176511667"><ele>25.000000</ele><time>2010-06-09T09:36:30Z</time></trkpt>
	<trkpt lat="52.109095" lon="-2.176516667"><ele>25.000000</ele><time>2010-06-09T09:36:35Z</time></trkpt>
	<trkpt lat="52.10913667" lon="-2.176563333"><ele>26.000000</ele><time>2010-06-09T09:36:40Z</time></trkpt>
	<trkpt lat="52.10917167" lon="-2.176606667"><ele>27.000000</ele><time>2010-06-09T09:36:45Z</time></trkpt>
	<trkpt lat="52.109205" lon="-2.17668"><ele>27.000000</ele><time>2010-06-09T09:36:51Z</time></trkpt>
	<trkpt lat="52.109235" lon="-2.176741667"><ele>27.000000</ele><time>2010-06-09T09:36:56Z</time></trkpt>
	<trkpt lat="52.10926333" lon="-2.1768"><ele>27.000000</ele><time>2010-06-09T09:37:01Z</time></trkpt>
	<trkpt lat="52.109285" lon="-2.176863333"><ele>27.000000</ele><time>2010-06-09T09:37:06Z</time></trkpt>
	<trkpt lat="52.10931" lon="-2.176925"><ele>27.000000</ele><time>2010-06-09T09:37:11Z</time></trkpt>
	<trkpt lat="52.10933833" lon="-2.177005"><ele>27.000000</ele><time>2010-06-09T09:37:17Z</time></trkpt>
	<trkpt lat="52.10935833" lon="-2.17708"><ele>27.000000</ele><time>2010-06-09T09:37:22Z</time></trkpt>
	<trkpt lat="52.10937667" lon="-2.17715"><ele>27.000000</ele><time>2010-06-09T09:37:27Z</time></trkpt>
	<trkpt lat="52.109395" lon="-2.177223333"><ele>27.000000</ele><time>2010-06-09T09:37:32Z</time></trkpt>
	<trkpt lat="52.10942167" lon="-2.17729"><ele>27.000000</ele><time>2010-06-09T09:37:37Z</time></trkpt>
	<trkpt lat="52.109465" lon="-2.177335"><ele>27.000000</ele><time>2010-06-09T09:37:42Z</time></trkpt>
	<trkpt lat="52.10951" lon="-2.177376667"><ele>27.000000</ele><time>2010-06-09T09:37:47Z</time></trkpt>
	<trkpt lat="52.10955" lon="-2.177416667"><ele>26.000000</ele><time>2010-06-09T09:37:52Z</time></trkpt>
	<trkpt lat="52.10959333" lon="-2.17745"><ele>26.000000</ele><time>2010-06-09T09:37:57Z</time></trkpt>
	<trkpt lat="52.109645" lon="-2.177491667"><ele>26.000000</ele><time>2010-06-09T09:38:03Z</time></trkpt>
	<trkpt lat="52.10968833" lon="-2.177526667"><ele>26.000000</ele><time>2010-06-09T09:38:08Z</time></trkpt>
	<trkpt lat="52.10973" lon="-2.17756"><ele>26.000000</ele><time>2010-06-09T09:38:13Z</time></trkpt>
	<trkpt lat="52.10977333" lon="-2.177598333"><ele>27.000000</ele><time>2010-06-09T09:38:18Z</time></trkpt>
	<trkpt lat="52.10981833" lon="-2.177636667"><ele>26.000000</ele><time>2010-06-09T09:38:23Z</time></trkpt>
	<trkpt lat="52.10986" lon="-2.177676667"><ele>26.000000</ele><time>2010-06-09T09:38:28Z</time></trkpt>
	<trkpt lat="52.109915" lon="-2.177723333"><ele>26.000000</ele><time>2010-06-09T09:38:34Z</time></trkpt>
	<trkpt lat="52.10996167" lon="-2.177756667"><ele>26.000000</ele><time>2010-06-09T09:38:39Z</time></trkpt>
	<trkpt lat="52.11001333" lon="-2.17779"><ele>26.000000</ele><time>2010-06-09T09:38:44Z</time></trkpt>
	<trkpt lat="52.11006333" lon="-2.177815"><ele>26.000000</ele><time>2010-06-09T09:38:49Z</time></trkpt>
	<trkpt lat="52.11011167" lon="-2.177836667"><ele>26.000000</ele><time>2010-06-09T09:38:54Z</time></trkpt>
	<trkpt lat="52.11016333" lon="-2.177856667"><ele>26.000000</ele><time>2010-06-09T09:38:59Z</time></trkpt>
	<trkpt lat="52.11021167" lon="-2.177881667"><ele>26.000000</ele><time>2010-06-09T09:39:04Z</time></trkpt>
	<trkpt lat="52.11025833" lon="-2.177913333"><ele>26.000000</ele><time>2010-06-09T09:39:09Z</time></trkpt>
	<trkpt lat="52.11030333" lon="-2.177946667"><ele>26.000000</ele><time>2010-06-09T09:39:14Z</time></trkpt>
	<trkpt lat="52.11034667" lon="-2.17799"><ele>26.000000</ele><time>2010-06-09T09:39:20Z</time></trkpt>
	<trkpt lat="52.11038" lon="-2.178025"><ele>26.000000</ele><time>2010-06-09T09:39:25Z</time></trkpt>
	<trkpt lat="52.11040167" lon="-2.178058333"><ele>27.000000</ele><time>2010-06-09T09:39:30Z</time></trkpt>
	<trkpt lat="52.11042667" lon="-2.178105"><ele>28.000000</ele><time>2010-06-09T09:39:35Z</time></trkpt>
	<trkpt lat="52.110455" lon="-2.178153333"><ele>28.000000</ele><time>2010-06-09T09:39:40Z</time></trkpt>
	<trkpt lat="52.11049333" lon="-2.178205"><ele>28.000000</ele><time>2010-06-09T09:39:45Z</time></trkpt>
	<trkpt lat="52.11054333" lon="-2.178255"><ele>27.000000</ele><time>2010-06-09T09:39:50Z</time></trkpt>
	<trkpt lat="52.11059167" lon="-2.178298333"><ele>27.000000</ele><time>2010-06-09T09:39:55Z</time></trkpt>
	<trkpt lat="52.11063333" lon="-2.178336667"><ele>27.000000</ele><time>2010-06-09T09:40:00Z</time></trkpt>
	<trkpt lat="52.110685" lon="-2.178381667"><ele>26.000000</ele><time>2010-06-09T09:40:06Z</time></trkpt>
	<trkpt lat="52.110725" lon="-2.178423333"><ele>26.000000</ele><time>2010-06-09T09:40:11Z</time></trkpt>
	<trkpt lat="52.11075833" lon="-2.178485"><ele>26.000000</ele><time>2010-06-09T09:40:17Z</time></trkpt>
	<trkpt lat="52.11076833" lon="-2.178516667"><ele>26.000000</ele><time>2010-06-09T09:40:22Z</time></trkpt>
	<trkpt lat="52.11077167" lon="-2.178528333"><ele>27.000000</ele><time>2010-06-09T09:40:27Z</time></trkpt>
	<trkpt lat="52.11076" lon="-2.178536667"><ele>26.000000</ele><time>2010-06-09T09:40:32Z</time></trkpt>
	<trkpt lat="52.11075667" lon="-2.178531667"><ele>26.000000</ele><time>2010-06-09T09:40:37Z</time></trkpt>
	<trkpt lat="52.11076" lon="-2.178535"><ele>25.000000</ele><time>2010-06-09T09:40:42Z</time></trkpt>
	<trkpt lat="52.11076" lon="-2.178533333"><ele>25.000000</ele><time>2010-06-09T09:40:47Z</time></trkpt>
	<trkpt lat="52.11075667" lon="-2.178528333"><ele>25.000000</ele><time>2010-06-09T09:40:52Z</time></trkpt>
	<trkpt lat="52.110755" lon="-2.178528333"><ele>25.000000</ele><time>2010-06-09T09:40:57Z</time></trkpt>
	<trkpt lat="52.11076333" lon="-2.178545"><ele>25.000000</ele><time>2010-06-09T09:41:03Z</time></trkpt>
	<trkpt lat="52.11078833" lon="-2.178601667"><ele>25.000000</ele><time>2010-06-09T09:41:08Z</time></trkpt>
	<trkpt lat="52.11083833" lon="-2.178641667"><ele>25.000000</ele><time>2010-06-09T09:41:14Z</time></trkpt>
	<trkpt lat="52.11086833" lon="-2.178686667"><ele>25.000000</ele><time>2010-06-09T09:41:19Z</time></trkpt>
	<trkpt lat="52.11090333" lon="-2.178725"><ele>25.000000</ele><time>2010-06-09T09:41:24Z</time></trkpt>
	<trkpt lat="52.11094667" lon="-2.178755"><ele>25.000000</ele><time>2010-06-09T09:41:29Z</time></trkpt>
	<trkpt lat="52.11100333" lon="-2.178788333"><ele>25.000000</ele><time>2010-06-09T09:41:35Z</time></trkpt>
	<trkpt lat="52.11105667" lon="-2.178808333"><ele>24.000000</ele><time>2010-06-09T09:41:40Z</time></trkpt>
	<trkpt lat="52.11110833" lon="-2.17882"><ele>24.000000</ele><time>2010-06-09T09:41:45Z</time></trkpt>
	<trkpt lat="52.11116167" lon="-2.178818333"><ele>24.000000</ele><time>2010-06-09T09:41:50Z</time></trkpt>
	<trkpt lat="52.11121167" lon="-2.178806667"><ele>25.000000</ele><time>2010-06-09T09:41:55Z</time></trkpt>
	<trkpt lat="52.11125667" lon="-2.178795"><ele>25.000000</ele><time>2010-06-09T09:42:00Z</time></trkpt>
	<trkpt lat="52.1113" lon="-2.178786667"><ele>26.000000</ele><time>2010-06-09T09:42:05Z</time></trkpt>
	<trkpt lat="52.11134333" lon="-2.178771667"><ele>26.000000</ele><time>2010-06-09T09:42:10Z</time></trkpt>
	<trkpt lat="52.11138833" lon="-2.178755"><ele>26.000000</ele><time>2010-06-09T09:42:15Z</time></trkpt>
	<trkpt lat="52.11143" lon="-2.178738333"><ele>27.000000</ele><time>2010-06-09T09:42:20Z</time></trkpt>
	<trkpt lat="52.111475" lon="-2.178741667"><ele>28.000000</ele><time>2010-06-09T09:42:25Z</time></trkpt>
	<trkpt lat="52.11151667" lon="-2.178755"><ele>29.000000</ele><time>2010-06-09T09:42:30Z</time></trkpt>
	<trkpt lat="52.11156333" lon="-2.178766667"><ele>29.000000</ele><time>2010-06-09T09:42:35Z</time></trkpt>
	<trkpt lat="52.11161333" lon="-2.178781667"><ele>29.000000</ele><time>2010-06-09T09:42:40Z</time></trkpt>
	<trkpt lat="52.11166333" lon="-2.178803333"><ele>29.000000</ele><time>2010-06-09T09:42:45Z</time></trkpt>
	<trkpt lat="52.11171333" lon="-2.178825"><ele>29.000000</ele><time>2010-06-09T09:42:50Z</time></trkpt>
	<trkpt lat="52.11176833" lon="-2.178838333"><ele>29.000000</ele><time>2010-06-09T09:42:55Z</time></trkpt>
	<trkpt lat="52.11182167" lon="-2.178861667"><ele>29.000000</ele><time>2010-06-09T09:43:00Z</time></trkpt>
	<trkpt lat="52.11188" lon="-2.178875"><ele>29.000000</ele><time>2010-06-09T09:43:05Z</time></trkpt>
	<trkpt lat="52.11193667" lon="-2.178896667"><ele>29.000000</ele><time>2010-06-09T09:43:10Z</time></trkpt>
	<trkpt lat="52.11199" lon="-2.178911667"><ele>29.000000</ele><time>2010-06-09T09:43:15Z</time></trkpt>
	<trkpt lat="52.112045" lon="-2.178925"><ele>29.000000</ele><time>2010-06-09T09:43:20Z</time></trkpt>
	<trkpt lat="52.11211" lon="-2.178936667"><ele>29.000000</ele><time>2010-06-09T09:43:26Z</time></trkpt>
	<trkpt lat="52.112165" lon="-2.178945"><ele>28.000000</ele><time>2010-06-09T09:43:31Z</time></trkpt>
	<trkpt lat="52.11221333" lon="-2.178958333"><ele>28.000000</ele><time>2010-06-09T09:43:36Z</time></trkpt>
	<trkpt lat="52.11226833" lon="-2.178978333"><ele>27.000000</ele><time>2010-06-09T09:43:41Z</time></trkpt>
	<trkpt lat="52.11232167" lon="-2.178973333"><ele>27.000000</ele><time>2010-06-09T09:43:46Z</time></trkpt>
	<trkpt lat="52.11237" lon="-2.178965"><ele>26.000000</ele><time>2010-06-09T09:43:51Z</time></trkpt>
	<trkpt lat="52.11240333" lon="-2.178946667"><ele>26.000000</ele><time>2010-06-09T09:43:56Z</time></trkpt>
	<trkpt lat="52.11245" lon="-2.178916667"><ele>26.000000</ele><time>2010-06-09T09:44:01Z</time></trkpt>
	<trkpt lat="52.11249833" lon="-2.178895"><ele>25.000000</ele><time>2010-06-09T09:44:06Z</time></trkpt>
	<trkpt lat="52.11254" lon="-2.178881667"><ele>26.000000</ele><time>2010-06-09T09:44:11Z</time></trkpt>
	<trkpt lat="52.112585" lon="-2.17886"><ele>26.000000</ele><time>2010-06-09T09:44:16Z</time></trkpt>
	<trkpt lat="52.11261167" lon="-2.178821667"><ele>26.000000</ele><time>2010-06-09T09:44:21Z</time></trkpt>
	<trkpt lat="52.11261833" lon="-2.178808333"><ele>25.000000</ele><time>2010-06-09T09:44:26Z</time></trkpt>
	<trkpt lat="52.11262833" lon="-2.178771667"><ele>25.000000</ele><time>2010-06-09T09:44:31Z</time></trkpt>
	<trkpt lat="52.11264833" lon="-2.17871"><ele>26.000000</ele><time>2010-06-09T09:44:36Z</time></trkpt>
	<trkpt lat="52.112675" lon="-2.178665"><ele>26.000000</ele><time>2010-06-09T09:44:41Z</time></trkpt>
	<trkpt lat="52.112705" lon="-2.178606667"><ele>24.000000</ele><time>2010-06-09T09:44:46Z</time></trkpt>
	<trkpt lat="52.11271333" lon="-2.178556667"><ele>25.000000</ele><time>2010-06-09T09:44:51Z</time></trkpt>
	<trkpt lat="52.112725" lon="-2.17852"><ele>25.000000</ele><time>2010-06-09T09:44:56Z</time></trkpt>
	<trkpt lat="52.11272667" lon="-2.178521667"><ele>25.000000</ele><time>2010-06-09T09:45:01Z</time></trkpt>
	<trkpt lat="52.112725" lon="-2.178528333"><ele>26.000000</ele><time>2010-06-09T09:45:06Z</time></trkpt>
	<trkpt lat="52.11273333" lon="-2.178523333"><ele>26.000000</ele><time>2010-06-09T09:45:11Z</time></trkpt>
	<trkpt lat="52.11273333" lon="-2.178523333"><ele>26.000000</ele><time>2010-06-09T09:45:17Z</time></trkpt>
	<trkpt lat="52.11273333" lon="-2.178523333"><ele>26.000000</ele><time>2010-06-09T09:45:22Z</time></trkpt>
	<trkpt lat="52.11273833" lon="-2.178528333"><ele>25.000000</ele><time>2010-06-09T09:45:27Z</time></trkpt>
	<trkpt lat="52.11275" lon="-2.178533333"><ele>25.000000</ele><time>2010-06-09T09:45:32Z</time></trkpt>
	<trkpt lat="52.11276167" lon="-2.178535"><ele>26.000000</ele><time>2010-06-09T09:45:37Z</time></trkpt>
	<trkpt lat="52.11279167" lon="-2.17853"><ele>26.000000</ele><time>2010-06-09T09:45:42Z</time></trkpt>
	<trkpt lat="52.11282333" lon="-2.178528333"><ele>26.000000</ele><time>2010-06-09T09:45:47Z</time></trkpt>
	<trkpt lat="52.11285833" lon="-2.178531667"><ele>25.000000</ele><time>2010-06-09T09:45:52Z</time></trkpt>
	<trkpt lat="52.11289833" lon="-2.178538333"><ele>25.000000</ele><time>2010-06-09T09:45:57Z</time></trkpt>
	<trkpt lat="52.112945" lon="-2.178546667"><ele>23.000000</ele><time>2010-06-09T09:46:02Z</time></trkpt>
	<trkpt lat="52.112985" lon="-2.178556667"><ele>22.000000</ele><time>2010-06-09T09:46:07Z</time></trkpt>
	<trkpt lat="52.11302667" lon="-2.178551667"><ele>22.000000</ele><time>2010-06-09T09:46:12Z</time></trkpt>
	<trkpt lat="52.113065" lon="-2.178536667"><ele>22.000000</ele><time>2010-06-09T09:46:17Z</time></trkpt>
	<trkpt lat="52.11311" lon="-2.178518333"><ele>21.000000</ele><time>2010-06-09T09:46:22Z</time></trkpt>
	<trkpt lat="52.11315333" lon="-2.17851"><ele>22.000000</ele><time>2010-06-09T09:46:27Z</time></trkpt>
	<trkpt lat="52.11319167" lon="-2.178508333"><ele>23.000000</ele><time>2010-06-09T09:46:32Z</time></trkpt>
	<trkpt lat="52.11324333" lon="-2.178521667"><ele>24.000000</ele><time>2010-06-09T09:46:38Z</time></trkpt>
	<trkpt lat="52.11328667" lon="-2.178531667"><ele>24.000000</ele><time>2010-06-09T09:46:43Z</time></trkpt>
	<trkpt lat="52.11333" lon="-2.178541667"><ele>24.000000</ele><time>2010-06-09T09:46:48Z</time></trkpt>
	<trkpt lat="52.11339" lon="-2.178565"><ele>25.000000</ele><time>2010-06-09T09:46:54Z</time></trkpt>
	<trkpt lat="52.11342833" lon="-2.178578333"><ele>25.000000</ele><time>2010-06-09T09:47:00Z</time></trkpt>
	<trkpt lat="52.11348333" lon="-2.178595"><ele>25.000000</ele><time>2010-06-09T09:47:06Z</time></trkpt>
	<trkpt lat="52.11354" lon="-2.17861"><ele>25.000000</ele><time>2010-06-09T09:47:12Z</time></trkpt>
	<trkpt lat="52.11359" lon="-2.178625"><ele>25.000000</ele><time>2010-06-09T09:47:17Z</time></trkpt>
	<trkpt lat="52.11365" lon="-2.178646667"><ele>25.000000</ele><time>2010-06-09T09:47:23Z</time></trkpt>
	<trkpt lat="52.11370667" lon="-2.178663333"><ele>26.000000</ele><time>2010-06-09T09:47:29Z</time></trkpt>
	<trkpt lat="52.113765" lon="-2.178685"><ele>26.000000</ele><time>2010-06-09T09:47:35Z</time></trkpt>
	<trkpt lat="52.11381333" lon="-2.178706667"><ele>26.000000</ele><time>2010-06-09T09:47:40Z</time></trkpt>
	<trkpt lat="52.11386167" lon="-2.178723333"><ele>26.000000</ele><time>2010-06-09T09:47:45Z</time></trkpt>
	<trkpt lat="52.11390833" lon="-2.178751667"><ele>26.000000</ele><time>2010-06-09T09:47:50Z</time></trkpt>
	<trkpt lat="52.113955" lon="-2.178773333"><ele>26.000000</ele><time>2010-06-09T09:47:55Z</time></trkpt>
	<trkpt lat="52.11401" lon="-2.178781667"><ele>26.000000</ele><time>2010-06-09T09:48:01Z</time></trkpt>
	<trkpt lat="52.114055" lon="-2.178811667"><ele>26.000000</ele><time>2010-06-09T09:48:06Z</time></trkpt>
	<trkpt lat="52.11410167" lon="-2.178838333"><ele>26.000000</ele><time>2010-06-09T09:48:11Z</time></trkpt>
	<trkpt lat="52.11414833" lon="-2.178866667"><ele>26.000000</ele><time>2010-06-09T09:48:16Z</time></trkpt>
	<trkpt lat="52.11419333" lon="-2.178895"><ele>26.000000</ele><time>2010-06-09T09:48:21Z</time></trkpt>
	<trkpt lat="52.11424" lon="-2.178925"><ele>26.000000</ele><time>2010-06-09T09:48:26Z</time></trkpt>
	<trkpt lat="52.11428667" lon="-2.178956667"><ele>26.000000</ele><time>2010-06-09T09:48:31Z</time></trkpt>
	<trkpt lat="52.11433333" lon="-2.178991667"><ele>26.000000</ele><time>2010-06-09T09:48:36Z</time></trkpt>
	<trkpt lat="52.11437667" lon="-2.179021667"><ele>26.000000</ele><time>2010-06-09T09:48:41Z</time></trkpt>
	<trkpt lat="52.11442" lon="-2.17905"><ele>27.000000</ele><time>2010-06-09T09:48:46Z</time></trkpt>
	<trkpt lat="52.11445833" lon="-2.17908"><ele>27.000000</ele><time>2010-06-09T09:48:51Z</time></trkpt>
	<trkpt lat="52.11450333" lon="-2.179108333"><ele>26.000000</ele><time>2010-06-09T09:48:56Z</time></trkpt>
	<trkpt lat="52.11454833" lon="-2.179138333"><ele>26.000000</ele><time>2010-06-09T09:49:01Z</time></trkpt>
	<trkpt lat="52.11459167" lon="-2.179163333"><ele>26.000000</ele><time>2010-06-09T09:49:06Z</time></trkpt>
	<trkpt lat="52.11463667" lon="-2.179191667"><ele>26.000000</ele><time>2010-06-09T09:49:11Z</time></trkpt>
	<trkpt lat="52.11469333" lon="-2.179223333"><ele>26.000000</ele><time>2010-06-09T09:49:17Z</time></trkpt>
	<trkpt lat="52.11473833" lon="-2.179251667"><ele>26.000000</ele><time>2010-06-09T09:49:22Z</time></trkpt>
	<trkpt lat="52.11478333" lon="-2.179278333"><ele>26.000000</ele><time>2010-06-09T09:49:27Z</time></trkpt>
	<trkpt lat="52.11483" lon="-2.179298333"><ele>27.000000</ele><time>2010-06-09T09:49:32Z</time></trkpt>
	<trkpt lat="52.11487667" lon="-2.179326667"><ele>27.000000</ele><time>2010-06-09T09:49:37Z</time></trkpt>
	<trkpt lat="52.11492167" lon="-2.179358333"><ele>27.000000</ele><time>2010-06-09T09:49:42Z</time></trkpt>
	<trkpt lat="52.11497" lon="-2.179388333"><ele>27.000000</ele><time>2010-06-09T09:49:47Z</time></trkpt>
	<trkpt lat="52.11501667" lon="-2.179418333"><ele>27.000000</ele><time>2010-06-09T09:49:52Z</time></trkpt>
	<trkpt lat="52.115065" lon="-2.179446667"><ele>27.000000</ele><time>2010-06-09T09:49:57Z</time></trkpt>
	<trkpt lat="52.11511667" lon="-2.179476667"><ele>27.000000</ele><time>2010-06-09T09:50:03Z</time></trkpt>
	<trkpt lat="52.11516167" lon="-2.179501667"><ele>27.000000</ele><time>2010-06-09T09:50:08Z</time></trkpt>
	<trkpt lat="52.11521" lon="-2.179528333"><ele>27.000000</ele><time>2010-06-09T09:50:13Z</time></trkpt>
	<trkpt lat="52.11525833" lon="-2.179555"><ele>27.000000</ele><time>2010-06-09T09:50:18Z</time></trkpt>
	<trkpt lat="52.11531667" lon="-2.179586667"><ele>27.000000</ele><time>2010-06-09T09:50:24Z</time></trkpt>
	<trkpt lat="52.11536333" lon="-2.179615"><ele>26.000000</ele><time>2010-06-09T09:50:29Z</time></trkpt>
	<trkpt lat="52.11541" lon="-2.179645"><ele>26.000000</ele><time>2010-06-09T09:50:34Z</time></trkpt>
	<trkpt lat="52.11545333" lon="-2.179671667"><ele>26.000000</ele><time>2010-06-09T09:50:39Z</time></trkpt>
	<trkpt lat="52.11549333" lon="-2.179698333"><ele>26.000000</ele><time>2010-06-09T09:50:44Z</time></trkpt>
	<trkpt lat="52.115535" lon="-2.179726667"><ele>26.000000</ele><time>2010-06-09T09:50:49Z</time></trkpt>
	<trkpt lat="52.11558667" lon="-2.179758333"><ele>27.000000</ele><time>2010-06-09T09:50:55Z</time></trkpt>
	<trkpt lat="52.11563333" lon="-2.179791667"><ele>27.000000</ele><time>2010-06-09T09:51:00Z</time></trkpt>
	<trkpt lat="52.11569" lon="-2.179826667"><ele>27.000000</ele><time>2010-06-09T09:51:06Z</time></trkpt>
	<trkpt lat="52.115735" lon="-2.179851667"><ele>27.000000</ele><time>2010-06-09T09:51:11Z</time></trkpt>
	<trkpt lat="52.11579167" lon="-2.179881667"><ele>27.000000</ele><time>2010-06-09T09:51:17Z</time></trkpt>
	<trkpt lat="52.115845" lon="-2.179915"><ele>27.000000</ele><time>2010-06-09T09:51:23Z</time></trkpt>
	<trkpt lat="52.11588833" lon="-2.17994"><ele>27.000000</ele><time>2010-06-09T09:51:28Z</time></trkpt>
	<trkpt lat="52.115935" lon="-2.179971667"><ele>27.000000</ele><time>2010-06-09T09:51:34Z</time></trkpt>
	<trkpt lat="52.11597833" lon="-2.179995"><ele>27.000000</ele><time>2010-06-09T09:51:39Z</time></trkpt>
	<trkpt lat="52.11602333" lon="-2.180026667"><ele>27.000000</ele><time>2010-06-09T09:51:45Z</time></trkpt>
	<trkpt lat="52.11606333" lon="-2.180053333"><ele>27.000000</ele><time>2010-06-09T09:51:50Z</time></trkpt>
	<trkpt lat="52.11610333" lon="-2.180076667"><ele>28.000000</ele><time>2010-06-09T09:51:55Z</time></trkpt>
	<trkpt lat="52.11613" lon="-2.1801"><ele>27.000000</ele><time>2010-06-09T09:52:00Z</time></trkpt>
	<trkpt lat="52.11614833" lon="-2.180096667"><ele>28.000000</ele><time>2010-06-09T09:52:06Z</time></trkpt>
	<trkpt lat="52.11614667" lon="-2.1801"><ele>28.000000</ele><time>2010-06-09T09:52:11Z</time></trkpt>
	<trkpt lat="52.11616167" lon="-2.180096667"><ele>28.000000</ele><time>2010-06-09T09:52:16Z</time></trkpt>
	<trkpt lat="52.11615833" lon="-2.180098333"><ele>28.000000</ele><time>2010-06-09T09:52:21Z</time></trkpt>
	<trkpt lat="52.11615833" lon="-2.180098333"><ele>28.000000</ele><time>2010-06-09T09:52:27Z</time></trkpt>
	<trkpt lat="52.11615667" lon="-2.180096667"><ele>28.000000</ele><time>2010-06-09T09:52:32Z</time></trkpt>
	<trkpt lat="52.11615667" lon="-2.180096667"><ele>28.000000</ele><time>2010-06-09T09:52:37Z</time></trkpt>
	<trkpt lat="52.11616" lon="-2.180105"><ele>29.000000</ele><time>2010-06-09T09:52:42Z</time></trkpt>
	<trkpt lat="52.11616" lon="-2.1801"><ele>29.000000</ele><time>2010-06-09T09:52:47Z</time></trkpt>
	<trkpt lat="52.11616" lon="-2.180101667"><ele>29.000000</ele><time>2010-06-09T09:52:52Z</time></trkpt>
	<trkpt lat="52.11618167" lon="-2.180143333"><ele>30.000000</ele><time>2010-06-09T09:52:57Z</time></trkpt>
	<trkpt lat="52.11622" lon="-2.180135"><ele>30.000000</ele><time>2010-06-09T09:53:02Z</time></trkpt>
	<trkpt lat="52.11624167" lon="-2.18013"><ele>30.000000</ele><time>2010-06-09T09:53:07Z</time></trkpt>
	<trkpt lat="52.11625333" lon="-2.180116667"><ele>30.000000</ele><time>2010-06-09T09:53:12Z</time></trkpt>
	<trkpt lat="52.11629667" lon="-2.180098333"><ele>31.000000</ele><time>2010-06-09T09:53:17Z</time></trkpt>
	<trkpt lat="52.11634167" lon="-2.180073333"><ele>31.000000</ele><time>2010-06-09T09:53:22Z</time></trkpt>
	<trkpt lat="52.116385" lon="-2.180051667"><ele>31.000000</ele><time>2010-06-09T09:53:27Z</time></trkpt>
	<trkpt lat="52.116425" lon="-2.180033333"><ele>31.000000</ele><time>2010-06-09T09:53:32Z</time></trkpt>
	<trkpt lat="52.11646667" lon="-2.180011667"><ele>32.000000</ele><time>2010-06-09T09:53:37Z</time></trkpt>
	<trkpt lat="52.11651" lon="-2.179988333"><ele>32.000000</ele><time>2010-06-09T09:53:42Z</time></trkpt>
	<trkpt lat="52.11656" lon="-2.17996"><ele>33.000000</ele><time>2010-06-09T09:53:48Z</time></trkpt>
	<trkpt lat="52.11659667" lon="-2.179938333"><ele>34.000000</ele><time>2010-06-09T09:53:53Z</time></trkpt>
	<trkpt lat="52.11663833" lon="-2.179925"><ele>35.000000</ele><time>2010-06-09T09:53:58Z</time></trkpt>
	<trkpt lat="52.11668167" lon="-2.179905"><ele>35.000000</ele><time>2010-06-09T09:54:03Z</time></trkpt>
	<trkpt lat="52.11672167" lon="-2.179886667"><ele>35.000000</ele><time>2010-06-09T09:54:08Z</time></trkpt>
	<trkpt lat="52.116775" lon="-2.179866667"><ele>36.000000</ele><time>2010-06-09T09:54:14Z</time></trkpt>
	<trkpt lat="52.11682" lon="-2.17985"><ele>36.000000</ele><time>2010-06-09T09:54:19Z</time></trkpt>
	<trkpt lat="52.11686333" lon="-2.17983"><ele>36.000000</ele><time>2010-06-09T09:54:24Z</time></trkpt>
	<trkpt lat="52.11690667" lon="-2.179808333"><ele>37.000000</ele><time>2010-06-09T09:54:29Z</time></trkpt>
	<trkpt lat="52.116965" lon="-2.17978"><ele>36.000000</ele><time>2010-06-09T09:54:35Z</time></trkpt>
	<trkpt lat="52.117015" lon="-2.179758333"><ele>36.000000</ele><time>2010-06-09T09:54:40Z</time></trkpt>
	<trkpt lat="52.11706333" lon="-2.179731667"><ele>36.000000</ele><time>2010-06-09T09:54:45Z</time></trkpt>
	<trkpt lat="52.11711167" lon="-2.17971"><ele>36.000000</ele><time>2010-06-09T09:54:50Z</time></trkpt>
	<trkpt lat="52.11716" lon="-2.179683333"><ele>35.000000</ele><time>2010-06-09T09:54:55Z</time></trkpt>
	<trkpt lat="52.11720833" lon="-2.179663333"><ele>34.000000</ele><time>2010-06-09T09:55:00Z</time></trkpt>
	<trkpt lat="52.11726167" lon="-2.179641667"><ele>33.000000</ele><time>2010-06-09T09:55:05Z</time></trkpt>
	<trkpt lat="52.11731333" lon="-2.17962"><ele>33.000000</ele><time>2010-06-09T09:55:10Z</time></trkpt>
	<trkpt lat="52.11736333" lon="-2.179603333"><ele>32.000000</ele><time>2010-06-09T09:55:15Z</time></trkpt>
	<trkpt lat="52.117415" lon="-2.179583333"><ele>32.000000</ele><time>2010-06-09T09:55:20Z</time></trkpt>
	<trkpt lat="52.11746667" lon="-2.179566667"><ele>32.000000</ele><time>2010-06-09T09:55:25Z</time></trkpt>
	<trkpt lat="52.11752" lon="-2.179551667"><ele>31.000000</ele><time>2010-06-09T09:55:30Z</time></trkpt>
	<trkpt lat="52.11757333" lon="-2.179535"><ele>31.000000</ele><time>2010-06-09T09:55:35Z</time></trkpt>
	<trkpt lat="52.11762833" lon="-2.179526667"><ele>31.000000</ele><time>2010-06-09T09:55:40Z</time></trkpt>
	<trkpt lat="52.11768167" lon="-2.179515"><ele>31.000000</ele><time>2010-06-09T09:55:45Z</time></trkpt>
	<trkpt lat="52.11773333" lon="-2.179513333"><ele>31.000000</ele><time>2010-06-09T09:55:50Z</time></trkpt>
	<trkpt lat="52.1178" lon="-2.179506667"><ele>31.000000</ele><time>2010-06-09T09:55:56Z</time></trkpt>
	<trkpt lat="52.11785333" lon="-2.179506667"><ele>31.000000</ele><time>2010-06-09T09:56:01Z</time></trkpt>
	<trkpt lat="52.117905" lon="-2.179515"><ele>31.000000</ele><time>2010-06-09T09:56:06Z</time></trkpt>
	<trkpt lat="52.11795667" lon="-2.179536667"><ele>32.000000</ele><time>2010-06-09T09:56:11Z</time></trkpt>
	<trkpt lat="52.118" lon="-2.17958"><ele>33.000000</ele><time>2010-06-09T09:56:16Z</time></trkpt>
	<trkpt lat="52.11804167" lon="-2.179633333"><ele>34.000000</ele><time>2010-06-09T09:56:21Z</time></trkpt>
	<trkpt lat="52.11807333" lon="-2.179705"><ele>34.000000</ele><time>2010-06-09T09:56:26Z</time></trkpt>
	<trkpt lat="52.118095" lon="-2.179785"><ele>34.000000</ele><time>2010-06-09T09:56:31Z</time></trkpt>
	<trkpt lat="52.11811333" lon="-2.179866667"><ele>34.000000</ele><time>2010-06-09T09:56:36Z</time></trkpt>
	<trkpt lat="52.11812833" lon="-2.179946667"><ele>34.000000</ele><time>2010-06-09T09:56:41Z</time></trkpt>
	<trkpt lat="52.11815667" lon="-2.180021667"><ele>34.000000</ele><time>2010-06-09T09:56:46Z</time></trkpt>
	<trkpt lat="52.11818833" lon="-2.18009"><ele>34.000000</ele><time>2010-06-09T09:56:51Z</time></trkpt>
	<trkpt lat="52.11823" lon="-2.180143333"><ele>34.000000</ele><time>2010-06-09T09:56:56Z</time></trkpt>
	<trkpt lat="52.118275" lon="-2.180205"><ele>33.000000</ele><time>2010-06-09T09:57:02Z</time></trkpt>
	<trkpt lat="52.11830333" lon="-2.180275"><ele>33.000000</ele><time>2010-06-09T09:57:08Z</time></trkpt>
	<trkpt lat="52.11831" lon="-2.180328333"><ele>33.000000</ele><time>2010-06-09T09:57:13Z</time></trkpt>
	<trkpt lat="52.118315" lon="-2.180376667"><ele>34.000000</ele><time>2010-06-09T09:57:18Z</time></trkpt>
	<trkpt lat="52.118325" lon="-2.180435"><ele>34.000000</ele><time>2010-06-09T09:57:23Z</time></trkpt>
	<trkpt lat="52.11833667" lon="-2.18051"><ele>34.000000</ele><time>2010-06-09T09:57:28Z</time></trkpt>
	<trkpt lat="52.118345" lon="-2.180598333"><ele>34.000000</ele><time>2010-06-09T09:57:33Z</time></trkpt>
	<trkpt lat="52.118355" lon="-2.180685"><ele>34.000000</ele><time>2010-06-09T09:57:38Z</time></trkpt>
	<trkpt lat="52.11837" lon="-2.180781667"><ele>34.000000</ele><time>2010-06-09T09:57:44Z</time></trkpt>
	<trkpt lat="52.11838167" lon="-2.180863333"><ele>34.000000</ele><time>2010-06-09T09:57:49Z</time></trkpt>
	<trkpt lat="52.11839333" lon="-2.180946667"><ele>34.000000</ele><time>2010-06-09T09:57:54Z</time></trkpt>
	<trkpt lat="52.118405" lon="-2.18103"><ele>34.000000</ele><time>2010-06-09T09:57:59Z</time></trkpt>
	<trkpt lat="52.118415" lon="-2.18112"><ele>33.000000</ele><time>2010-06-09T09:58:04Z</time></trkpt>
	<trkpt lat="52.11843" lon="-2.1812"><ele>33.000000</ele><time>2010-06-09T09:58:09Z</time></trkpt>
	<trkpt lat="52.11844833" lon="-2.181283333"><ele>33.000000</ele><time>2010-06-09T09:58:15Z</time></trkpt>
	<trkpt lat="52.11846333" lon="-2.18136"><ele>33.000000</ele><time>2010-06-09T09:58:20Z</time></trkpt>
	<trkpt lat="52.11848167" lon="-2.181453333"><ele>33.000000</ele><time>2010-06-09T09:58:26Z</time></trkpt>
	<trkpt lat="52.11849667" lon="-2.18153"><ele>33.000000</ele><time>2010-06-09T09:58:31Z</time></trkpt>
	<trkpt lat="52.118515" lon="-2.181626667"><ele>33.000000</ele><time>2010-06-09T09:58:37Z</time></trkpt>
	<trkpt lat="52.11853" lon="-2.181701667"><ele>33.000000</ele><time>2010-06-09T09:58:42Z</time></trkpt>
	<trkpt lat="52.11854667" lon="-2.181791667"><ele>33.000000</ele><time>2010-06-09T09:58:48Z</time></trkpt>
	<trkpt lat="52.11856" lon="-2.181855"><ele>33.000000</ele><time>2010-06-09T09:58:53Z</time></trkpt>
	<trkpt lat="52.118575" lon="-2.181925"><ele>33.000000</ele><time>2010-06-09T09:58:58Z</time></trkpt>
	<trkpt lat="52.11859" lon="-2.181996667"><ele>33.000000</ele><time>2010-06-09T09:59:03Z</time></trkpt>
	<trkpt lat="52.11860667" lon="-2.182073333"><ele>33.000000</ele><time>2010-06-09T09:59:08Z</time></trkpt>
	<trkpt lat="52.118625" lon="-2.182163333"><ele>33.000000</ele><time>2010-06-09T09:59:14Z</time></trkpt>
	<trkpt lat="52.11864" lon="-2.18224"><ele>33.000000</ele><time>2010-06-09T09:59:19Z</time></trkpt>
	<trkpt lat="52.118655" lon="-2.182311667"><ele>33.000000</ele><time>2010-06-09T09:59:24Z</time></trkpt>
	<trkpt lat="52.11867" lon="-2.182385"><ele>33.000000</ele><time>2010-06-09T09:59:29Z</time></trkpt>
	<trkpt lat="52.11868833" lon="-2.18248"><ele>32.000000</ele><time>2010-06-09T09:59:35Z</time></trkpt>
	<trkpt lat="52.1187" lon="-2.182558333"><ele>32.000000</ele><time>2010-06-09T09:59:40Z</time></trkpt>
	<trkpt lat="52.11871833" lon="-2.18265"><ele>32.000000</ele><time>2010-06-09T09:59:46Z</time></trkpt>
	<trkpt lat="52.11873" lon="-2.18273"><ele>32.000000</ele><time>2010-06-09T09:59:51Z</time></trkpt>
	<trkpt lat="52.118745" lon="-2.18281"><ele>32.000000</ele><time>2010-06-09T09:59:56Z</time></trkpt>
	<trkpt lat="52.11876333" lon="-2.182905"><ele>32.000000</ele><time>2010-06-09T10:00:02Z</time></trkpt>
	<trkpt lat="52.11877833" lon="-2.182993333"><ele>32.000000</ele><time>2010-06-09T10:00:07Z</time></trkpt>
	<trkpt lat="52.11879833" lon="-2.183091667"><ele>31.000000</ele><time>2010-06-09T10:00:13Z</time></trkpt>
	<trkpt lat="52.118815" lon="-2.183171667"><ele>31.000000</ele><time>2010-06-09T10:00:18Z</time></trkpt>
	<trkpt lat="52.11883167" lon="-2.18325"><ele>31.000000</ele><time>2010-06-09T10:00:23Z</time></trkpt>
	<trkpt lat="52.11885" lon="-2.183321667"><ele>30.000000</ele><time>2010-06-09T10:00:28Z</time></trkpt>
	<trkpt lat="52.11886333" lon="-2.18338"><ele>30.000000</ele><time>2010-06-09T10:00:33Z</time></trkpt>
	<trkpt lat="52.118865" lon="-2.183393333"><ele>30.000000</ele><time>2010-06-09T10:00:38Z</time></trkpt>
	<trkpt lat="52.11887167" lon="-2.183401667"><ele>30.000000</ele><time>2010-06-09T10:00:44Z</time></trkpt>
	<trkpt lat="52.11888" lon="-2.18344"><ele>31.000000</ele><time>2010-06-09T10:00:49Z</time></trkpt>
	<trkpt lat="52.118875" lon="-2.18344"><ele>31.000000</ele><time>2010-06-09T10:00:54Z</time></trkpt>
	<trkpt lat="52.11887167" lon="-2.183475"><ele>33.000000</ele><time>2010-06-09T10:00:59Z</time></trkpt>
	<trkpt lat="52.11888833" lon="-2.183558333"><ele>33.000000</ele><time>2010-06-09T10:01:04Z</time></trkpt>
	<trkpt lat="52.11889333" lon="-2.183646667"><ele>35.000000</ele><time>2010-06-09T10:01:09Z</time></trkpt>
	<trkpt lat="52.11889333" lon="-2.18373"><ele>36.000000</ele><time>2010-06-09T10:01:14Z</time></trkpt>
	<trkpt lat="52.118895" lon="-2.183815"><ele>36.000000</ele><time>2010-06-09T10:01:19Z</time></trkpt>
	<trkpt lat="52.1189" lon="-2.183896667"><ele>36.000000</ele><time>2010-06-09T10:01:24Z</time></trkpt>
	<trkpt lat="52.118905" lon="-2.183975"><ele>37.000000</ele><time>2010-06-09T10:01:29Z</time></trkpt>
	<trkpt lat="52.11891" lon="-2.184063333"><ele>37.000000</ele><time>2010-06-09T10:01:35Z</time></trkpt>
	<trkpt lat="52.11891833" lon="-2.18414"><ele>37.000000</ele><time>2010-06-09T10:01:40Z</time></trkpt>
	<trkpt lat="52.11892333" lon="-2.184221667"><ele>37.000000</ele><time>2010-06-09T10:01:45Z</time></trkpt>
	<trkpt lat="52.11893167" lon="-2.184303333"><ele>37.000000</ele><time>2010-06-09T10:01:50Z</time></trkpt>
	<trkpt lat="52.11893667" lon="-2.184378333"><ele>37.000000</ele><time>2010-06-09T10:01:55Z</time></trkpt>
	<trkpt lat="52.11894333" lon="-2.184448333"><ele>38.000000</ele><time>2010-06-09T10:02:00Z</time></trkpt>
	<trkpt lat="52.11894" lon="-2.184513333"><ele>38.000000</ele><time>2010-06-09T10:02:05Z</time></trkpt>
	<trkpt lat="52.11894" lon="-2.184581667"><ele>38.000000</ele><time>2010-06-09T10:02:10Z</time></trkpt>
	<trkpt lat="52.11894" lon="-2.18465"><ele>38.000000</ele><time>2010-06-09T10:02:15Z</time></trkpt>
	<trkpt lat="52.11894" lon="-2.184716667"><ele>38.000000</ele><time>2010-06-09T10:02:20Z</time></trkpt>
	<trkpt lat="52.118935" lon="-2.184788333"><ele>38.000000</ele><time>2010-06-09T10:02:25Z</time></trkpt>
	<trkpt lat="52.11893" lon="-2.184856667"><ele>38.000000</ele><time>2010-06-09T10:02:30Z</time></trkpt>
	<trkpt lat="52.11893667" lon="-2.184931667"><ele>39.000000</ele><time>2010-06-09T10:02:36Z</time></trkpt>
	<trkpt lat="52.11893833" lon="-2.185001667"><ele>39.000000</ele><time>2010-06-09T10:02:41Z</time></trkpt>
	<trkpt lat="52.11894667" lon="-2.18507"><ele>39.000000</ele><time>2010-06-09T10:02:46Z</time></trkpt>
	<trkpt lat="52.11894333" lon="-2.18515"><ele>39.000000</ele><time>2010-06-09T10:02:51Z</time></trkpt>
	<trkpt lat="52.11894" lon="-2.185231667"><ele>38.000000</ele><time>2010-06-09T10:02:56Z</time></trkpt>
	<trkpt lat="52.11893833" lon="-2.1853"><ele>39.000000</ele><time>2010-06-09T10:03:01Z</time></trkpt>
	<trkpt lat="52.11893667" lon="-2.185366667"><ele>39.000000</ele><time>2010-06-09T10:03:06Z</time></trkpt>
	<trkpt lat="52.11894" lon="-2.185428333"><ele>39.000000</ele><time>2010-06-09T10:03:11Z</time></trkpt>
	<trkpt lat="52.11894833" lon="-2.185498333"><ele>39.000000</ele><time>2010-06-09T10:03:16Z</time></trkpt>
	<trkpt lat="52.11895833" lon="-2.185563333"><ele>40.000000</ele><time>2010-06-09T10:03:21Z</time></trkpt>
	<trkpt lat="52.11896333" lon="-2.185643333"><ele>39.000000</ele><time>2010-06-09T10:03:26Z</time></trkpt>
	<trkpt lat="52.11896833" lon="-2.185731667"><ele>39.000000</ele><time>2010-06-09T10:03:32Z</time></trkpt>
	<trkpt lat="52.11897833" lon="-2.185803333"><ele>39.000000</ele><time>2010-06-09T10:03:37Z</time></trkpt>
	<trkpt lat="52.118985" lon="-2.185873333"><ele>40.000000</ele><time>2010-06-09T10:03:42Z</time></trkpt>
	<trkpt lat="52.118995" lon="-2.185956667"><ele>40.000000</ele><time>2010-06-09T10:03:48Z</time></trkpt>
	<trkpt lat="52.11899833" lon="-2.186046667"><ele>40.000000</ele><time>2010-06-09T10:03:54Z</time></trkpt>
	<trkpt lat="52.119005" lon="-2.186136667"><ele>40.000000</ele><time>2010-06-09T10:04:00Z</time></trkpt>
	<trkpt lat="52.11900667" lon="-2.18621"><ele>41.000000</ele><time>2010-06-09T10:04:05Z</time></trkpt>
	<trkpt lat="52.11901167" lon="-2.186295"><ele>40.000000</ele><time>2010-06-09T10:04:11Z</time></trkpt>
	<trkpt lat="52.11901833" lon="-2.18636"><ele>40.000000</ele><time>2010-06-09T10:04:16Z</time></trkpt>
	<trkpt lat="52.11902333" lon="-2.186396667"><ele>41.000000</ele><time>2010-06-09T10:04:21Z</time></trkpt>
	<trkpt lat="52.119025" lon="-2.1864"><ele>41.000000</ele><time>2010-06-09T10:04:26Z</time></trkpt>
	<trkpt lat="52.11902667" lon="-2.186401667"><ele>40.000000</ele><time>2010-06-09T10:04:31Z</time></trkpt>
	<trkpt lat="52.11903" lon="-2.186403333"><ele>40.000000</ele><time>2010-06-09T10:04:36Z</time></trkpt>
	<trkpt lat="52.11903" lon="-2.186403333"><ele>40.000000</ele><time>2010-06-09T10:04:41Z</time></trkpt>
	<trkpt lat="52.11903333" lon="-2.186403333"><ele>40.000000</ele><time>2010-06-09T10:04:46Z</time></trkpt>
	<trkpt lat="52.11903333" lon="-2.186405"><ele>40.000000</ele><time>2010-06-09T10:04:51Z</time></trkpt>
	<trkpt lat="52.11903333" lon="-2.186408333"><ele>40.000000</ele><time>2010-06-09T10:04:57Z</time></trkpt>
	<trkpt lat="52.11903333" lon="-2.186475"><ele>41.000000</ele><time>2010-06-09T10:05:02Z</time></trkpt>
	<trkpt lat="52.11903667" lon="-2.186546667"><ele>42.000000</ele><time>2010-06-09T10:05:07Z</time></trkpt>
	<trkpt lat="52.11904333" lon="-2.186618333"><ele>42.000000</ele><time>2010-06-09T10:05:12Z</time></trkpt>
	<trkpt lat="52.119055" lon="-2.186698333"><ele>43.000000</ele><time>2010-06-09T10:05:17Z</time></trkpt>
	<trkpt lat="52.11906833" lon="-2.186795"><ele>42.000000</ele><time>2010-06-09T10:05:23Z</time></trkpt>
	<trkpt lat="52.11908167" lon="-2.186868333"><ele>42.000000</ele><time>2010-06-09T10:05:28Z</time></trkpt>
	<trkpt lat="52.11910167" lon="-2.186953333"><ele>43.000000</ele><time>2010-06-09T10:05:34Z</time></trkpt>
	<trkpt lat="52.11911833" lon="-2.187038333"><ele>43.000000</ele><time>2010-06-09T10:05:40Z</time></trkpt>
	<trkpt lat="52.119135" lon="-2.187105"><ele>43.000000</ele><time>2010-06-09T10:05:45Z</time></trkpt>
	<trkpt lat="52.11914833" lon="-2.187178333"><ele>44.000000</ele><time>2010-06-09T10:05:50Z</time></trkpt>
	<trkpt lat="52.11916667" lon="-2.187255"><ele>43.000000</ele><time>2010-06-09T10:05:55Z</time></trkpt>
	<trkpt lat="52.11919167" lon="-2.187345"><ele>43.000000</ele><time>2010-06-09T10:06:01Z</time></trkpt>
	<trkpt lat="52.11921167" lon="-2.187411667"><ele>43.000000</ele><time>2010-06-09T10:06:06Z</time></trkpt>
	<trkpt lat="52.119235" lon="-2.187495"><ele>43.000000</ele><time>2010-06-09T10:06:12Z</time></trkpt>
	<trkpt lat="52.11925167" lon="-2.187558333"><ele>43.000000</ele><time>2010-06-09T10:06:17Z</time></trkpt>
	<trkpt lat="52.11926667" lon="-2.187611667"><ele>44.000000</ele><time>2010-06-09T10:06:22Z</time></trkpt>
	<trkpt lat="52.11928833" lon="-2.187688333"><ele>44.000000</ele><time>2010-06-09T10:06:28Z</time></trkpt>
	<trkpt lat="52.11931" lon="-2.18776"><ele>44.000000</ele><time>2010-06-09T10:06:33Z</time></trkpt>
	<trkpt lat="52.11933667" lon="-2.187836667"><ele>44.000000</ele><time>2010-06-09T10:06:39Z</time></trkpt>
	<trkpt lat="52.11935667" lon="-2.187903333"><ele>44.000000</ele><time>2010-06-09T10:06:44Z</time></trkpt>
	<trkpt lat="52.11938" lon="-2.18796"><ele>44.000000</ele><time>2010-06-09T10:06:49Z</time></trkpt>
	<trkpt lat="52.119395" lon="-2.188023333"><ele>45.000000</ele><time>2010-06-09T10:06:54Z</time></trkpt>
	<trkpt lat="52.11941667" lon="-2.188083333"><ele>45.000000</ele><time>2010-06-09T10:06:59Z</time></trkpt>
	<trkpt lat="52.11943833" lon="-2.188141667"><ele>45.000000</ele><time>2010-06-09T10:07:04Z</time></trkpt>
	<trkpt lat="52.119455" lon="-2.188203333"><ele>45.000000</ele><time>2010-06-09T10:07:09Z</time></trkpt>
	<trkpt lat="52.11947167" lon="-2.18826"><ele>46.000000</ele><time>2010-06-09T10:07:14Z</time></trkpt>
	<trkpt lat="52.11949667" lon="-2.18832"><ele>46.000000</ele><time>2010-06-09T10:07:19Z</time></trkpt>
	<trkpt lat="52.11951" lon="-2.188373333"><ele>47.000000</ele><time>2010-06-09T10:07:24Z</time></trkpt>
	<trkpt lat="52.11952833" lon="-2.188428333"><ele>47.000000</ele><time>2010-06-09T10:07:29Z</time></trkpt>
	<trkpt lat="52.11955" lon="-2.18849"><ele>47.000000</ele><time>2010-06-09T10:07:34Z</time></trkpt>
	<trkpt lat="52.11957167" lon="-2.188555"><ele>47.000000</ele><time>2010-06-09T10:07:39Z</time></trkpt>
	<trkpt lat="52.119595" lon="-2.18862"><ele>48.000000</ele><time>2010-06-09T10:07:44Z</time></trkpt>
	<trkpt lat="52.11962" lon="-2.188685"><ele>48.000000</ele><time>2010-06-09T10:07:49Z</time></trkpt>
	<trkpt lat="52.11964333" lon="-2.188748333"><ele>48.000000</ele><time>2010-06-09T10:07:54Z</time></trkpt>
	<trkpt lat="52.11966667" lon="-2.188811667"><ele>48.000000</ele><time>2010-06-09T10:07:59Z</time></trkpt>
	<trkpt lat="52.11969333" lon="-2.188875"><ele>49.000000</ele><time>2010-06-09T10:08:04Z</time></trkpt>
	<trkpt lat="52.11972" lon="-2.188938333"><ele>49.000000</ele><time>2010-06-09T10:08:09Z</time></trkpt>
	<trkpt lat="52.11974167" lon="-2.188996667"><ele>49.000000</ele><time>2010-06-09T10:08:14Z</time></trkpt>
	<trkpt lat="52.11976" lon="-2.18905"><ele>49.000000</ele><time>2010-06-09T10:08:19Z</time></trkpt>
	<trkpt lat="52.11978333" lon="-2.189111667"><ele>49.000000</ele><time>2010-06-09T10:08:24Z</time></trkpt>
	<trkpt lat="52.11981" lon="-2.189178333"><ele>49.000000</ele><time>2010-06-09T10:08:30Z</time></trkpt>
	<trkpt lat="52.11982833" lon="-2.189238333"><ele>50.000000</ele><time>2010-06-09T10:08:35Z</time></trkpt>
	<trkpt lat="52.11985" lon="-2.189281667"><ele>50.000000</ele><time>2010-06-09T10:08:40Z</time></trkpt>
	<trkpt lat="52.11987167" lon="-2.189343333"><ele>50.000000</ele><time>2010-06-09T10:08:45Z</time></trkpt>
	<trkpt lat="52.11989167" lon="-2.189401667"><ele>50.000000</ele><time>2010-06-09T10:08:50Z</time></trkpt>
	<trkpt lat="52.119915" lon="-2.189451667"><ele>51.000000</ele><time>2010-06-09T10:08:55Z</time></trkpt>
	<trkpt lat="52.11993167" lon="-2.18951"><ele>51.000000</ele><time>2010-06-09T10:09:00Z</time></trkpt>
	<trkpt lat="52.119955" lon="-2.189565"><ele>51.000000</ele><time>2010-06-09T10:09:05Z</time></trkpt>
	<trkpt lat="52.119975" lon="-2.189623333"><ele>52.000000</ele><time>2010-06-09T10:09:10Z</time></trkpt>
	<trkpt lat="52.119995" lon="-2.189685"><ele>52.000000</ele><time>2010-06-09T10:09:15Z</time></trkpt>
	<trkpt lat="52.12002167" lon="-2.189746667"><ele>52.000000</ele><time>2010-06-09T10:09:20Z</time></trkpt>
	<trkpt lat="52.12002667" lon="-2.189785"><ele>53.000000</ele><time>2010-06-09T10:09:25Z</time></trkpt>
	<trkpt lat="52.120025" lon="-2.189776667"><ele>53.000000</ele><time>2010-06-09T10:09:31Z</time></trkpt>
	<trkpt lat="52.12001167" lon="-2.189765"><ele>54.000000</ele><time>2010-06-09T10:09:36Z</time></trkpt>
	<trkpt lat="52.12000833" lon="-2.189783333"><ele>54.000000</ele><time>2010-06-09T10:09:41Z</time></trkpt>
	<trkpt lat="52.11998167" lon="-2.189811667"><ele>56.000000</ele><time>2010-06-09T10:09:47Z</time></trkpt>
	<trkpt lat="52.11995167" lon="-2.189848333"><ele>56.000000</ele><time>2010-06-09T10:09:52Z</time></trkpt>
	<trkpt lat="52.11991167" lon="-2.189885"><ele>57.000000</ele><time>2010-06-09T10:09:57Z</time></trkpt>
	<trkpt lat="52.11986667" lon="-2.189913333"><ele>57.000000</ele><time>2010-06-09T10:10:02Z</time></trkpt>
	<trkpt lat="52.11982833" lon="-2.189951667"><ele>58.000000</ele><time>2010-06-09T10:10:07Z</time></trkpt>
	<trkpt lat="52.119785" lon="-2.18997"><ele>59.000000</ele><time>2010-06-09T10:10:12Z</time></trkpt>
	<trkpt lat="52.119745" lon="-2.190003333"><ele>58.000000</ele><time>2010-06-09T10:10:17Z</time></trkpt>
	<trkpt lat="52.11972" lon="-2.190018333"><ele>58.000000</ele><time>2010-06-09T10:10:22Z</time></trkpt>
	<trkpt lat="52.11972" lon="-2.19003"><ele>57.000000</ele><time>2010-06-09T10:10:27Z</time></trkpt>
	<trkpt lat="52.11970167" lon="-2.190043333"><ele>56.000000</ele><time>2010-06-09T10:10:33Z</time></trkpt>
	<trkpt lat="52.11966667" lon="-2.190063333"><ele>57.000000</ele><time>2010-06-09T10:10:38Z</time></trkpt>
	<trkpt lat="52.11967167" lon="-2.190073333"><ele>56.000000</ele><time>2010-06-09T10:10:43Z</time></trkpt>
	<trkpt lat="52.11968167" lon="-2.190081667"><ele>55.000000</ele><time>2010-06-09T10:10:48Z</time></trkpt>
	<trkpt lat="52.1197" lon="-2.190083333"><ele>54.000000</ele><time>2010-06-09T10:10:53Z</time></trkpt>
	<trkpt lat="52.11972" lon="-2.1901"><ele>53.000000</ele><time>2010-06-09T10:10:58Z</time></trkpt>
	<trkpt lat="52.11969333" lon="-2.190146667"><ele>50.000000</ele><time>2010-06-09T10:11:03Z</time></trkpt>
	<trkpt lat="52.119655" lon="-2.190201667"><ele>47.000000</ele><time>2010-06-09T10:11:08Z</time></trkpt>
	<trkpt lat="52.11962667" lon="-2.190256667"><ele>46.000000</ele><time>2010-06-09T10:11:13Z</time></trkpt>
	<trkpt lat="52.11959167" lon="-2.190298333"><ele>45.000000</ele><time>2010-06-09T10:11:18Z</time></trkpt>
	<trkpt lat="52.11955667" lon="-2.19034"><ele>46.000000</ele><time>2010-06-09T10:11:23Z</time></trkpt>
	<trkpt lat="52.11951667" lon="-2.190381667"><ele>47.000000</ele><time>2010-06-09T10:11:28Z</time></trkpt>
	<trkpt lat="52.11947833" lon="-2.190423333"><ele>49.000000</ele><time>2010-06-09T10:11:33Z</time></trkpt>
	<trkpt lat="52.11944" lon="-2.190466667"><ele>50.000000</ele><time>2010-06-09T10:11:38Z</time></trkpt>
	<trkpt lat="52.11940333" lon="-2.190513333"><ele>51.000000</ele><time>2010-06-09T10:11:43Z</time></trkpt>
	<trkpt lat="52.11936667" lon="-2.190558333"><ele>51.000000</ele><time>2010-06-09T10:11:48Z</time></trkpt>
	<trkpt lat="52.11933" lon="-2.190611667"><ele>51.000000</ele><time>2010-06-09T10:11:53Z</time></trkpt>
	<trkpt lat="52.11929167" lon="-2.190658333"><ele>52.000000</ele><time>2010-06-09T10:11:58Z</time></trkpt>
	<trkpt lat="52.11925833" lon="-2.1907"><ele>52.000000</ele><time>2010-06-09T10:12:03Z</time></trkpt>
	<trkpt lat="52.11922167" lon="-2.190746667"><ele>52.000000</ele><time>2010-06-09T10:12:08Z</time></trkpt>
	<trkpt lat="52.11918667" lon="-2.190788333"><ele>52.000000</ele><time>2010-06-09T10:12:13Z</time></trkpt>
	<trkpt lat="52.119155" lon="-2.190828333"><ele>52.000000</ele><time>2010-06-09T10:12:18Z</time></trkpt>
	<trkpt lat="52.11913" lon="-2.190873333"><ele>52.000000</ele><time>2010-06-09T10:12:23Z</time></trkpt>
	<trkpt lat="52.1191" lon="-2.190916667"><ele>53.000000</ele><time>2010-06-09T10:12:28Z</time></trkpt>
	<trkpt lat="52.11906833" lon="-2.190955"><ele>54.000000</ele><time>2010-06-09T10:12:33Z</time></trkpt>
	<trkpt lat="52.11903" lon="-2.190988333"><ele>55.000000</ele><time>2010-06-09T10:12:38Z</time></trkpt>
	<trkpt lat="52.119005" lon="-2.191035"><ele>56.000000</ele><time>2010-06-09T10:12:43Z</time></trkpt>
	<trkpt lat="52.11897667" lon="-2.191086667"><ele>56.000000</ele><time>2010-06-09T10:12:48Z</time></trkpt>
	<trkpt lat="52.11894" lon="-2.191123333"><ele>57.000000</ele><time>2010-06-09T10:12:53Z</time></trkpt>
	<trkpt lat="52.11891" lon="-2.191165"><ele>58.000000</ele><time>2010-06-09T10:12:58Z</time></trkpt>
	<trkpt lat="52.11888333" lon="-2.191215"><ele>59.000000</ele><time>2010-06-09T10:13:03Z</time></trkpt>
	<trkpt lat="52.118855" lon="-2.19127"><ele>59.000000</ele><time>2010-06-09T10:13:08Z</time></trkpt>
	<trkpt lat="52.11882" lon="-2.191338333"><ele>58.000000</ele><time>2010-06-09T10:13:14Z</time></trkpt>
	<trkpt lat="52.11879" lon="-2.191386667"><ele>57.000000</ele><time>2010-06-09T10:13:19Z</time></trkpt>
	<trkpt lat="52.118775" lon="-2.191448333"><ele>57.000000</ele><time>2010-06-09T10:13:24Z</time></trkpt>
	<trkpt lat="52.118745" lon="-2.191501667"><ele>56.000000</ele><time>2010-06-09T10:13:30Z</time></trkpt>
	<trkpt lat="52.11873333" lon="-2.191556667"><ele>55.000000</ele><time>2010-06-09T10:13:35Z</time></trkpt>
	<trkpt lat="52.118715" lon="-2.191626667"><ele>54.000000</ele><time>2010-06-09T10:13:41Z</time></trkpt>
	<trkpt lat="52.11869333" lon="-2.191676667"><ele>54.000000</ele><time>2010-06-09T10:13:46Z</time></trkpt>
	<trkpt lat="52.11866667" lon="-2.19173"><ele>53.000000</ele><time>2010-06-09T10:13:51Z</time></trkpt>
	<trkpt lat="52.11864833" lon="-2.191776667"><ele>53.000000</ele><time>2010-06-09T10:13:56Z</time></trkpt>
	<trkpt lat="52.11864333" lon="-2.19181"><ele>51.000000</ele><time>2010-06-09T10:14:01Z</time></trkpt>
	<trkpt lat="52.11864667" lon="-2.191821667"><ele>50.000000</ele><time>2010-06-09T10:14:06Z</time></trkpt>
	<trkpt lat="52.11864833" lon="-2.191838333"><ele>50.000000</ele><time>2010-06-09T10:14:11Z</time></trkpt>
	<trkpt lat="52.11863667" lon="-2.191858333"><ele>48.000000</ele><time>2010-06-09T10:14:17Z</time></trkpt>
	<trkpt lat="52.11863167" lon="-2.191856667"><ele>48.000000</ele><time>2010-06-09T10:14:22Z</time></trkpt>
	<trkpt lat="52.11863167" lon="-2.19185"><ele>49.000000</ele><time>2010-06-09T10:14:27Z</time></trkpt>
	<trkpt lat="52.11862333" lon="-2.191856667"><ele>50.000000</ele><time>2010-06-09T10:14:32Z</time></trkpt>
	<trkpt lat="52.11863" lon="-2.191881667"><ele>49.000000</ele><time>2010-06-09T10:14:37Z</time></trkpt>
	<trkpt lat="52.11863" lon="-2.191898333"><ele>48.000000</ele><time>2010-06-09T10:14:42Z</time></trkpt>
	<trkpt lat="52.11863167" lon="-2.191906667"><ele>48.000000</ele><time>2010-06-09T10:14:47Z</time></trkpt>
	<trkpt lat="52.11863333" lon="-2.191921667"><ele>47.000000</ele><time>2010-06-09T10:14:53Z</time></trkpt>
	<trkpt lat="52.118635" lon="-2.191931667"><ele>47.000000</ele><time>2010-06-09T10:14:58Z</time></trkpt>
	<trkpt lat="52.11862333" lon="-2.191896667"><ele>49.000000</ele><time>2010-06-09T10:15:04Z</time></trkpt>
	<trkpt lat="52.11861833" lon="-2.191878333"><ele>50.000000</ele><time>2010-06-09T10:15:10Z</time></trkpt>
	<trkpt lat="52.11861" lon="-2.191861667"><ele>51.000000</ele><time>2010-06-09T10:15:15Z</time></trkpt>
	<trkpt lat="52.11860833" lon="-2.191865"><ele>51.000000</ele><time>2010-06-09T10:15:20Z</time></trkpt>
	<trkpt lat="52.11860833" lon="-2.191866667"><ele>51.000000</ele><time>2010-06-09T10:15:25Z</time></trkpt>
	<trkpt lat="52.11860667" lon="-2.191868333"><ele>51.000000</ele><time>2010-06-09T10:15:30Z</time></trkpt>
	<trkpt lat="52.1186" lon="-2.191856667"><ele>52.000000</ele><time>2010-06-09T10:15:36Z</time></trkpt>
	<trkpt lat="52.11859167" lon="-2.191831667"><ele>54.000000</ele><time>2010-06-09T10:15:42Z</time></trkpt>
	<trkpt lat="52.11858667" lon="-2.191821667"><ele>55.000000</ele><time>2010-06-09T10:15:47Z</time></trkpt>
	<trkpt lat="52.11858833" lon="-2.191828333"><ele>55.000000</ele><time>2010-06-09T10:15:52Z</time></trkpt>
	<trkpt lat="52.11859333" lon="-2.191838333"><ele>55.000000</ele><time>2010-06-09T10:15:57Z</time></trkpt>
	<trkpt lat="52.11859833" lon="-2.191846667"><ele>55.000000</ele><time>2010-06-09T10:16:02Z</time></trkpt>
	<trkpt lat="52.11860333" lon="-2.191855"><ele>54.000000</ele><time>2010-06-09T10:16:07Z</time></trkpt>
	<trkpt lat="52.11860667" lon="-2.191861667"><ele>54.000000</ele><time>2010-06-09T10:16:12Z</time></trkpt>
	<trkpt lat="52.11861" lon="-2.191868333"><ele>54.000000</ele><time>2010-06-09T10:16:18Z</time></trkpt>
	<trkpt lat="52.11861333" lon="-2.191871667"><ele>54.000000</ele><time>2010-06-09T10:16:24Z</time></trkpt>
	<trkpt lat="52.11861" lon="-2.191868333"><ele>55.000000</ele><time>2010-06-09T10:16:29Z</time></trkpt>
	<trkpt lat="52.11861" lon="-2.19186"><ele>55.000000</ele><time>2010-06-09T10:16:35Z</time></trkpt>
	<trkpt lat="52.11860833" lon="-2.191855"><ele>56.000000</ele><time>2010-06-09T10:16:40Z</time></trkpt>
	<trkpt lat="52.11860833" lon="-2.191851667"><ele>56.000000</ele><time>2010-06-09T10:16:45Z</time></trkpt>
	<trkpt lat="52.11860833" lon="-2.191853333"><ele>56.000000</ele><time>2010-06-09T10:16:50Z</time></trkpt>
	<trkpt lat="52.11861" lon="-2.191856667"><ele>56.000000</ele><time>2010-06-09T10:16:56Z</time></trkpt>
	<trkpt lat="52.11861" lon="-2.19186"><ele>56.000000</ele><time>2010-06-09T10:17:01Z</time></trkpt>
	<trkpt lat="52.11861333" lon="-2.191863333"><ele>56.000000</ele><time>2010-06-09T10:17:06Z</time></trkpt>
	<trkpt lat="52.11861333" lon="-2.191863333"><ele>56.000000</ele><time>2010-06-09T10:17:11Z</time></trkpt>
	<trkpt lat="52.11861" lon="-2.191861667"><ele>56.000000</ele><time>2010-06-09T10:17:17Z</time></trkpt>
	<trkpt lat="52.11861333" lon="-2.191863333"><ele>56.000000</ele><time>2010-06-09T10:17:22Z</time></trkpt>
	<trkpt lat="52.11861333" lon="-2.191863333"><ele>56.000000</ele><time>2010-06-09T10:17:27Z</time></trkpt>
	<trkpt lat="52.11861333" lon="-2.191865"><ele>56.000000</ele><time>2010-06-09T10:17:32Z</time></trkpt>
	<trkpt lat="52.11861333" lon="-2.191866667"><ele>56.000000</ele><time>2010-06-09T10:17:37Z</time></trkpt>
	<trkpt lat="52.11861333" lon="-2.191865"><ele>56.000000</ele><time>2010-06-09T10:17:42Z</time></trkpt>
	<trkpt lat="52.11861333" lon="-2.191866667"><ele>55.000000</ele><time>2010-06-09T10:17:47Z</time></trkpt>
	<trkpt lat="52.118615" lon="-2.191868333"><ele>55.000000</ele><time>2010-06-09T10:17:53Z</time></trkpt>
	<trkpt lat="52.11861667" lon="-2.19187"><ele>55.000000</ele><time>2010-06-09T10:17:58Z</time></trkpt>
	<trkpt lat="52.11862" lon="-2.191875"><ele>55.000000</ele><time>2010-06-09T10:18:03Z</time></trkpt>
	<trkpt lat="52.11862" lon="-2.191875"><ele>55.000000</ele><time>2010-06-09T10:18:08Z</time></trkpt>
	<trkpt lat="52.11862" lon="-2.191875"><ele>55.000000</ele><time>2010-06-09T10:18:13Z</time></trkpt>
	<trkpt lat="52.11862167" lon="-2.191878333"><ele>54.000000</ele><time>2010-06-09T10:18:19Z</time></trkpt>
	<trkpt lat="52.11862333" lon="-2.19188"><ele>54.000000</ele><time>2010-06-09T10:18:25Z</time></trkpt>
	<trkpt lat="52.11862333" lon="-2.191881667"><ele>54.000000</ele><time>2010-06-09T10:18:30Z</time></trkpt>
	<trkpt lat="52.118625" lon="-2.191883333"><ele>54.000000</ele><time>2010-06-09T10:18:35Z</time></trkpt>
	<trkpt lat="52.118625" lon="-2.191886667"><ele>54.000000</ele><time>2010-06-09T10:18:41Z</time></trkpt>
	<trkpt lat="52.118625" lon="-2.191891667"><ele>54.000000</ele><time>2010-06-09T10:18:46Z</time></trkpt>
	<trkpt lat="52.118625" lon="-2.19189"><ele>54.000000</ele><time>2010-06-09T10:18:51Z</time></trkpt>
	<trkpt lat="52.11860833" lon="-2.191855"><ele>55.000000</ele><time>2010-06-09T10:18:56Z</time></trkpt>
	<trkpt lat="52.11860167" lon="-2.191838333"><ele>56.000000</ele><time>2010-06-09T10:19:01Z</time></trkpt>
	<trkpt lat="52.118605" lon="-2.191845"><ele>55.000000</ele><time>2010-06-09T10:19:06Z</time></trkpt>
	<trkpt lat="52.11860667" lon="-2.191853333"><ele>54.000000</ele><time>2010-06-09T10:19:11Z</time></trkpt>
	<trkpt lat="52.11861" lon="-2.19186"><ele>54.000000</ele><time>2010-06-09T10:19:16Z</time></trkpt>
	<trkpt lat="52.11861" lon="-2.19186"><ele>54.000000</ele><time>2010-06-09T10:19:21Z</time></trkpt>
	<trkpt lat="52.11861333" lon="-2.191865"><ele>54.000000</ele><time>2010-06-09T10:19:26Z</time></trkpt>
	<trkpt lat="52.118615" lon="-2.19187"><ele>53.000000</ele><time>2010-06-09T10:19:31Z</time></trkpt>
	<trkpt lat="52.11862" lon="-2.191886667"><ele>52.000000</ele><time>2010-06-09T10:19:37Z</time></trkpt>
	<trkpt lat="52.11862833" lon="-2.191906667"><ele>51.000000</ele><time>2010-06-09T10:19:42Z</time></trkpt>
	<trkpt lat="52.11863" lon="-2.191908333"><ele>51.000000</ele><time>2010-06-09T10:19:47Z</time></trkpt>
	<trkpt lat="52.11863333" lon="-2.19191"><ele>51.000000</ele><time>2010-06-09T10:19:53Z</time></trkpt>
	<trkpt lat="52.118635" lon="-2.191916667"><ele>51.000000</ele><time>2010-06-09T10:19:58Z</time></trkpt>
	<trkpt lat="52.118635" lon="-2.191913333"><ele>51.000000</ele><time>2010-06-09T10:20:03Z</time></trkpt>
	<trkpt lat="52.11863833" lon="-2.19192"><ele>50.000000</ele><time>2010-06-09T10:20:08Z</time></trkpt>
	<trkpt lat="52.11862333" lon="-2.191878333"><ele>52.000000</ele><time>2010-06-09T10:20:13Z</time></trkpt>
	<trkpt lat="52.11859333" lon="-2.191796667"><ele>56.000000</ele><time>2010-06-09T10:20:18Z</time></trkpt>
	<trkpt lat="52.11857333" lon="-2.191726667"><ele>60.000000</ele><time>2010-06-09T10:20:23Z</time></trkpt>
	<trkpt lat="52.11856" lon="-2.19167"><ele>63.000000</ele><time>2010-06-09T10:20:28Z</time></trkpt>
	<trkpt lat="52.11857" lon="-2.191693333"><ele>62.000000</ele><time>2010-06-09T10:20:33Z</time></trkpt>
	<trkpt lat="52.11859167" lon="-2.191758333"><ele>59.000000</ele><time>2010-06-09T10:20:38Z</time></trkpt>
	<trkpt lat="52.11861833" lon="-2.191845"><ele>55.000000</ele><time>2010-06-09T10:20:44Z</time></trkpt>
	<trkpt lat="52.118625" lon="-2.191848333"><ele>55.000000</ele><time>2010-06-09T10:20:49Z</time></trkpt>
	<trkpt lat="52.118625" lon="-2.191833333"><ele>56.000000</ele><time>2010-06-09T10:20:54Z</time></trkpt>
	<trkpt lat="52.118625" lon="-2.191841667"><ele>56.000000</ele><time>2010-06-09T10:20:59Z</time></trkpt>
	<trkpt lat="52.11863" lon="-2.191858333"><ele>55.000000</ele><time>2010-06-09T10:21:04Z</time></trkpt>
	<trkpt lat="52.118625" lon="-2.191846667"><ele>55.000000</ele><time>2010-06-09T10:21:09Z</time></trkpt>
	<trkpt lat="52.11863167" lon="-2.191878333"><ele>53.000000</ele><time>2010-06-09T10:21:15Z</time></trkpt>
	<trkpt lat="52.11864667" lon="-2.191935"><ele>50.000000</ele><time>2010-06-09T10:21:20Z</time></trkpt>
	<trkpt lat="52.11864" lon="-2.191916667"><ele>51.000000</ele><time>2010-06-09T10:21:25Z</time></trkpt>
	<trkpt lat="52.11864833" lon="-2.191955"><ele>49.000000</ele><time>2010-06-09T10:21:30Z</time></trkpt>
	<trkpt lat="52.11863667" lon="-2.191916667"><ele>51.000000</ele><time>2010-06-09T10:21:35Z</time></trkpt>
	<trkpt lat="52.118615" lon="-2.19184"><ele>55.000000</ele><time>2010-06-09T10:21:40Z</time></trkpt>
	<trkpt lat="52.11860167" lon="-2.19179"><ele>58.000000</ele><time>2010-06-09T10:21:45Z</time></trkpt>
	<trkpt lat="52.11859333" lon="-2.191761667"><ele>59.000000</ele><time>2010-06-09T10:21:50Z</time></trkpt>
	<trkpt lat="52.11858833" lon="-2.191741667"><ele>61.000000</ele><time>2010-06-09T10:21:55Z</time></trkpt>
	<trkpt lat="52.11858" lon="-2.191723333"><ele>62.000000</ele><time>2010-06-09T10:22:00Z</time></trkpt>
	<trkpt lat="52.11858" lon="-2.19172"><ele>62.000000</ele><time>2010-06-09T10:22:05Z</time></trkpt>
	<trkpt lat="52.11858" lon="-2.191721667"><ele>62.000000</ele><time>2010-06-09T10:22:11Z</time></trkpt>
	<trkpt lat="52.11857833" lon="-2.191718333"><ele>62.000000</ele><time>2010-06-09T10:22:15Z</time></trkpt>
	<trkpt lat="52.11857833" lon="-2.191718333"><ele>62.000000</ele><time>2010-06-09T10:22:22Z</time></trkpt>
	<trkpt lat="52.11857833" lon="-2.191721667"><ele>62.000000</ele><time>2010-06-09T10:22:27Z</time></trkpt>
	<trkpt lat="52.11858" lon="-2.191726667"><ele>61.000000</ele><time>2010-06-09T10:22:32Z</time></trkpt>
	<trkpt lat="52.11858" lon="-2.19173"><ele>61.000000</ele><time>2010-06-09T10:22:37Z</time></trkpt>
	<trkpt lat="52.11858" lon="-2.191731667"><ele>61.000000</ele><time>2010-06-09T10:22:42Z</time></trkpt>
	<trkpt lat="52.11858" lon="-2.191736667"><ele>60.000000</ele><time>2010-06-09T10:22:47Z</time></trkpt>
	<trkpt lat="52.11858" lon="-2.191743333"><ele>60.000000</ele><time>2010-06-09T10:22:52Z</time></trkpt>
	<trkpt lat="52.11858333" lon="-2.19175"><ele>59.000000</ele><time>2010-06-09T10:22:57Z</time></trkpt>
	<trkpt lat="52.11858333" lon="-2.191753333"><ele>59.000000</ele><time>2010-06-09T10:23:02Z</time></trkpt>
	<trkpt lat="52.11858333" lon="-2.191756667"><ele>59.000000</ele><time>2010-06-09T10:23:07Z</time></trkpt>
	<trkpt lat="52.11858333" lon="-2.191758333"><ele>58.000000</ele><time>2010-06-09T10:23:12Z</time></trkpt>
	<trkpt lat="52.11858333" lon="-2.191755"><ele>58.000000</ele><time>2010-06-09T10:23:17Z</time></trkpt>
	<trkpt lat="52.11858" lon="-2.191748333"><ele>59.000000</ele><time>2010-06-09T10:23:22Z</time></trkpt>
	<trkpt lat="52.11859333" lon="-2.191785"><ele>57.000000</ele><time>2010-06-09T10:23:27Z</time></trkpt>
	<trkpt lat="52.1186" lon="-2.191805"><ele>56.000000</ele><time>2010-06-09T10:23:32Z</time></trkpt>
	<trkpt lat="52.118605" lon="-2.191825"><ele>54.000000</ele><time>2010-06-09T10:23:37Z</time></trkpt>
	<trkpt lat="52.11861" lon="-2.191853333"><ele>52.000000</ele><time>2010-06-09T10:23:43Z</time></trkpt>
	<trkpt lat="52.118625" lon="-2.1919"><ele>50.000000</ele><time>2010-06-09T10:23:48Z</time></trkpt>
	<trkpt lat="52.11863333" lon="-2.19193"><ele>49.000000</ele><time>2010-06-09T10:23:53Z</time></trkpt>
	<trkpt lat="52.118625" lon="-2.191893333"><ele>51.000000</ele><time>2010-06-09T10:23:59Z</time></trkpt>
	<trkpt lat="52.118615" lon="-2.19186"><ele>53.000000</ele><time>2010-06-09T10:24:04Z</time></trkpt>
	<trkpt lat="52.11860333" lon="-2.191813333"><ele>57.000000</ele><time>2010-06-09T10:24:09Z</time></trkpt>
	<trkpt lat="52.11857833" lon="-2.191721667"><ele>63.000000</ele><time>2010-06-09T10:24:14Z</time></trkpt>
	<trkpt lat="52.11857167" lon="-2.191698333"><ele>64.000000</ele><time>2010-06-09T10:24:19Z</time></trkpt>
	<trkpt lat="52.11856333" lon="-2.191665"><ele>66.000000</ele><time>2010-06-09T10:24:24Z</time></trkpt>
	<trkpt lat="52.11855833" lon="-2.191641667"><ele>67.000000</ele><time>2010-06-09T10:24:29Z</time></trkpt>
	<trkpt lat="52.11855667" lon="-2.191623333"><ele>69.000000</ele><time>2010-06-09T10:24:34Z</time></trkpt>
	<trkpt lat="52.11855667" lon="-2.191621667"><ele>69.000000</ele><time>2010-06-09T10:24:39Z</time></trkpt>
	<trkpt lat="52.11855667" lon="-2.191626667"><ele>69.000000</ele><time>2010-06-09T10:24:44Z</time></trkpt>
	<trkpt lat="52.118555" lon="-2.191625"><ele>68.000000</ele><time>2010-06-09T10:24:50Z</time></trkpt>
	<trkpt lat="52.11855" lon="-2.19161"><ele>69.000000</ele><time>2010-06-09T10:24:55Z</time></trkpt>
	<trkpt lat="52.11854833" lon="-2.191603333"><ele>69.000000</ele><time>2010-06-09T10:25:00Z</time></trkpt>
	<trkpt lat="52.11854833" lon="-2.191601667"><ele>69.000000</ele><time>2010-06-09T10:25:05Z</time></trkpt>
	<trkpt lat="52.11855" lon="-2.19161"><ele>69.000000</ele><time>2010-06-09T10:25:11Z</time></trkpt>
	<trkpt lat="52.11855" lon="-2.19162"><ele>68.000000</ele><time>2010-06-09T10:25:16Z</time></trkpt>
	<trkpt lat="52.11855333" lon="-2.191631667"><ele>67.000000</ele><time>2010-06-09T10:25:21Z</time></trkpt>
	<trkpt lat="52.118555" lon="-2.19164"><ele>67.000000</ele><time>2010-06-09T10:25:26Z</time></trkpt>
	<trkpt lat="52.11856" lon="-2.191658333"><ele>65.000000</ele><time>2010-06-09T10:25:31Z</time></trkpt>
	<trkpt lat="52.118565" lon="-2.191678333"><ele>64.000000</ele><time>2010-06-09T10:25:36Z</time></trkpt>
	<trkpt lat="52.11857333" lon="-2.19173"><ele>60.000000</ele><time>2010-06-09T10:25:42Z</time></trkpt>
	<trkpt lat="52.11857833" lon="-2.19176"><ele>58.000000</ele><time>2010-06-09T10:25:47Z</time></trkpt>
	<trkpt lat="52.118585" lon="-2.19179"><ele>56.000000</ele><time>2010-06-09T10:25:52Z</time></trkpt>
	<trkpt lat="52.11859" lon="-2.191803333"><ele>55.000000</ele><time>2010-06-09T10:25:57Z</time></trkpt>
	<trkpt lat="52.11859333" lon="-2.191815"><ele>55.000000</ele><time>2010-06-09T10:26:03Z</time></trkpt>
	<trkpt lat="52.118595" lon="-2.191821667"><ele>54.000000</ele><time>2010-06-09T10:26:08Z</time></trkpt>
	<trkpt lat="52.118595" lon="-2.191825"><ele>54.000000</ele><time>2010-06-09T10:26:13Z</time></trkpt>
	<trkpt lat="52.11859833" lon="-2.191826667"><ele>54.000000</ele><time>2010-06-09T10:26:18Z</time></trkpt>
	<trkpt lat="52.1186" lon="-2.19183"><ele>54.000000</ele><time>2010-06-09T10:26:23Z</time></trkpt>
	<trkpt lat="52.1186" lon="-2.191833333"><ele>54.000000</ele><time>2010-06-09T10:26:28Z</time></trkpt>
	<trkpt lat="52.1186" lon="-2.191833333"><ele>54.000000</ele><time>2010-06-09T10:26:33Z</time></trkpt>
	<trkpt lat="52.11859833" lon="-2.19183"><ele>54.000000</ele><time>2010-06-09T10:26:38Z</time></trkpt>
	<trkpt lat="52.118595" lon="-2.191826667"><ele>54.000000</ele><time>2010-06-09T10:26:43Z</time></trkpt>
	<trkpt lat="52.118595" lon="-2.19183"><ele>54.000000</ele><time>2010-06-09T10:26:48Z</time></trkpt>
	<trkpt lat="52.118595" lon="-2.191831667"><ele>54.000000</ele><time>2010-06-09T10:26:53Z</time></trkpt>
	<trkpt lat="52.11858833" lon="-2.191818333"><ele>54.000000</ele><time>2010-06-09T10:26:58Z</time></trkpt>
	<trkpt lat="52.11857" lon="-2.191775"><ele>55.000000</ele><time>2010-06-09T10:27:03Z</time></trkpt>
	<trkpt lat="52.11856" lon="-2.191748333"><ele>57.000000</ele><time>2010-06-09T10:27:08Z</time></trkpt>
	<trkpt lat="52.118565" lon="-2.191766667"><ele>55.000000</ele><time>2010-06-09T10:27:13Z</time></trkpt>
	<trkpt lat="52.118565" lon="-2.191775"><ele>55.000000</ele><time>2010-06-09T10:27:18Z</time></trkpt>
	<trkpt lat="52.11857167" lon="-2.19179"><ele>54.000000</ele><time>2010-06-09T10:27:23Z</time></trkpt>
	<trkpt lat="52.11857667" lon="-2.191803333"><ele>54.000000</ele><time>2010-06-09T10:27:28Z</time></trkpt>
	<trkpt lat="52.11859" lon="-2.191838333"><ele>52.000000</ele><time>2010-06-09T10:27:33Z</time></trkpt>
	<trkpt lat="52.11859833" lon="-2.19186"><ele>51.000000</ele><time>2010-06-09T10:27:38Z</time></trkpt>
	<trkpt lat="52.11860167" lon="-2.19187"><ele>51.000000</ele><time>2010-06-09T10:27:43Z</time></trkpt>
	<trkpt lat="52.11860667" lon="-2.191888333"><ele>50.000000</ele><time>2010-06-09T10:27:49Z</time></trkpt>
	<trkpt lat="52.118615" lon="-2.191923333"><ele>48.000000</ele><time>2010-06-09T10:27:54Z</time></trkpt>
	<trkpt lat="52.11861667" lon="-2.191936667"><ele>47.000000</ele><time>2010-06-09T10:27:59Z</time></trkpt>
	<trkpt lat="52.11861833" lon="-2.191943333"><ele>47.000000</ele><time>2010-06-09T10:28:04Z</time></trkpt>
	<trkpt lat="52.11860667" lon="-2.191906667"><ele>48.000000</ele><time>2010-06-09T10:28:09Z</time></trkpt>
	<trkpt lat="52.118595" lon="-2.191865"><ele>51.000000</ele><time>2010-06-09T10:28:14Z</time></trkpt>
	<trkpt lat="52.118585" lon="-2.191846667"><ele>51.000000</ele><time>2010-06-09T10:28:19Z</time></trkpt>
	<trkpt lat="52.11858667" lon="-2.19186"><ele>50.000000</ele><time>2010-06-09T10:28:24Z</time></trkpt>
	<trkpt lat="52.11858667" lon="-2.19186"><ele>50.000000</ele><time>2010-06-09T10:28:29Z</time></trkpt>
	<trkpt lat="52.11858" lon="-2.191856667"><ele>50.000000</ele><time>2010-06-09T10:28:34Z</time></trkpt>
	<trkpt lat="52.11857833" lon="-2.191846667"><ele>51.000000</ele><time>2010-06-09T10:28:39Z</time></trkpt>
	<trkpt lat="52.118575" lon="-2.19184"><ele>51.000000</ele><time>2010-06-09T10:28:44Z</time></trkpt>
	<trkpt lat="52.11857167" lon="-2.191833333"><ele>51.000000</ele><time>2010-06-09T10:28:49Z</time></trkpt>
	<trkpt lat="52.11857667" lon="-2.191841667"><ele>51.000000</ele><time>2010-06-09T10:28:54Z</time></trkpt>
	<trkpt lat="52.11858" lon="-2.191851667"><ele>50.000000</ele><time>2010-06-09T10:28:59Z</time></trkpt>
	<trkpt lat="52.11857" lon="-2.191823333"><ele>51.000000</ele><time>2010-06-09T10:29:04Z</time></trkpt>
	<trkpt lat="52.11857167" lon="-2.191833333"><ele>50.000000</ele><time>2010-06-09T10:29:09Z</time></trkpt>
	<trkpt lat="52.11857167" lon="-2.191845"><ele>49.000000</ele><time>2010-06-09T10:29:14Z</time></trkpt>
	<trkpt lat="52.11857167" lon="-2.191851667"><ele>49.000000</ele><time>2010-06-09T10:29:19Z</time></trkpt>
	<trkpt lat="52.11857667" lon="-2.191863333"><ele>48.000000</ele><time>2010-06-09T10:29:24Z</time></trkpt>
	<trkpt lat="52.11857167" lon="-2.19185"><ele>48.000000</ele><time>2010-06-09T10:29:29Z</time></trkpt>
	<trkpt lat="52.118575" lon="-2.191861667"><ele>48.000000</ele><time>2010-06-09T10:29:34Z</time></trkpt>
	<trkpt lat="52.1186" lon="-2.19195"><ele>44.000000</ele><time>2010-06-09T10:29:39Z</time></trkpt>
	<trkpt lat="52.11859167" lon="-2.191908333"><ele>46.000000</ele><time>2010-06-09T10:29:45Z</time></trkpt>
	<trkpt lat="52.118595" lon="-2.191918333"><ele>48.000000</ele><time>2010-06-09T10:29:50Z</time></trkpt>
	<trkpt lat="52.11859333" lon="-2.191886667"><ele>51.000000</ele><time>2010-06-09T10:29:56Z</time></trkpt>
	<trkpt lat="52.11858833" lon="-2.191856667"><ele>53.000000</ele><time>2010-06-09T10:30:02Z</time></trkpt>
	<trkpt lat="52.1186" lon="-2.191851667"><ele>52.000000</ele><time>2010-06-09T10:30:07Z</time></trkpt>
	<trkpt lat="52.118615" lon="-2.19185"><ele>53.000000</ele><time>2010-06-09T10:30:12Z</time></trkpt>
	<trkpt lat="52.11862333" lon="-2.191856667"><ele>52.000000</ele><time>2010-06-09T10:30:17Z</time></trkpt>
	<trkpt lat="52.118625" lon="-2.191861667"><ele>53.000000</ele><time>2010-06-09T10:30:22Z</time></trkpt>
	<trkpt lat="52.11863" lon="-2.19187"><ele>51.000000</ele><time>2010-06-09T10:30:27Z</time></trkpt>
	<trkpt lat="52.11863167" lon="-2.19187"><ele>51.000000</ele><time>2010-06-09T10:30:32Z</time></trkpt>
	<trkpt lat="52.11863167" lon="-2.191861667"><ele>50.000000</ele><time>2010-06-09T10:30:37Z</time></trkpt>
	<trkpt lat="52.11864667" lon="-2.191823333"><ele>51.000000</ele><time>2010-06-09T10:30:42Z</time></trkpt>
	<trkpt lat="52.118665" lon="-2.191793333"><ele>51.000000</ele><time>2010-06-09T10:30:47Z</time></trkpt>
	<trkpt lat="52.11869167" lon="-2.191745"><ele>51.000000</ele><time>2010-06-09T10:30:52Z</time></trkpt>
	<trkpt lat="52.11871" lon="-2.191696667"><ele>52.000000</ele><time>2010-06-09T10:30:57Z</time></trkpt>
	<trkpt lat="52.118705" lon="-2.191646667"><ele>55.000000</ele><time>2010-06-09T10:31:02Z</time></trkpt>
	<trkpt lat="52.11872167" lon="-2.19159"><ele>56.000000</ele><time>2010-06-09T10:31:07Z</time></trkpt>
	<trkpt lat="52.11873833" lon="-2.191533333"><ele>57.000000</ele><time>2010-06-09T10:31:12Z</time></trkpt>
	<trkpt lat="52.11877167" lon="-2.191481667"><ele>56.000000</ele><time>2010-06-09T10:31:17Z</time></trkpt>
	<trkpt lat="52.11879" lon="-2.19144"><ele>56.000000</ele><time>2010-06-09T10:31:22Z</time></trkpt>
	<trkpt lat="52.11882" lon="-2.191386667"><ele>56.000000</ele><time>2010-06-09T10:31:27Z</time></trkpt>
	<trkpt lat="52.11883833" lon="-2.191331667"><ele>56.000000</ele><time>2010-06-09T10:31:32Z</time></trkpt>
	<trkpt lat="52.11885833" lon="-2.191276667"><ele>57.000000</ele><time>2010-06-09T10:31:37Z</time></trkpt>
	<trkpt lat="52.11888" lon="-2.191215"><ele>57.000000</ele><time>2010-06-09T10:31:42Z</time></trkpt>
	<trkpt lat="52.11890667" lon="-2.191155"><ele>57.000000</ele><time>2010-06-09T10:31:47Z</time></trkpt>
	<trkpt lat="52.118925" lon="-2.191103333"><ele>58.000000</ele><time>2010-06-09T10:31:52Z</time></trkpt>
	<trkpt lat="52.11893667" lon="-2.19106"><ele>59.000000</ele><time>2010-06-09T10:31:57Z</time></trkpt>
	<trkpt lat="52.11898167" lon="-2.191"><ele>57.000000</ele><time>2010-06-09T10:32:02Z</time></trkpt>
	<trkpt lat="52.11900667" lon="-2.190951667"><ele>57.000000</ele><time>2010-06-09T10:32:07Z</time></trkpt>
	<trkpt lat="52.11904" lon="-2.190901667"><ele>57.000000</ele><time>2010-06-09T10:32:12Z</time></trkpt>
	<trkpt lat="52.11909167" lon="-2.190835"><ele>57.000000</ele><time>2010-06-09T10:32:17Z</time></trkpt>
	<trkpt lat="52.11914333" lon="-2.190791667"><ele>55.000000</ele><time>2010-06-09T10:32:22Z</time></trkpt>
	<trkpt lat="52.11917833" lon="-2.190753333"><ele>55.000000</ele><time>2010-06-09T10:32:27Z</time></trkpt>
	<trkpt lat="52.11921833" lon="-2.190705"><ele>56.000000</ele><time>2010-06-09T10:32:32Z</time></trkpt>
	<trkpt lat="52.119255" lon="-2.190658333"><ele>56.000000</ele><time>2010-06-09T10:32:37Z</time></trkpt>
	<trkpt lat="52.11929167" lon="-2.190608333"><ele>57.000000</ele><time>2010-06-09T10:32:42Z</time></trkpt>
	<trkpt lat="52.11932" lon="-2.190563333"><ele>56.000000</ele><time>2010-06-09T10:32:47Z</time></trkpt>
	<trkpt lat="52.119345" lon="-2.190508333"><ele>56.000000</ele><time>2010-06-09T10:32:52Z</time></trkpt>
	<trkpt lat="52.11936667" lon="-2.190463333"><ele>57.000000</ele><time>2010-06-09T10:32:57Z</time></trkpt>
	<trkpt lat="52.11939333" lon="-2.190415"><ele>56.000000</ele><time>2010-06-09T10:33:02Z</time></trkpt>
	<trkpt lat="52.11943333" lon="-2.19036"><ele>55.000000</ele><time>2010-06-09T10:33:07Z</time></trkpt>
	<trkpt lat="52.11947" lon="-2.190316667"><ele>54.000000</ele><time>2010-06-09T10:33:12Z</time></trkpt>
	<trkpt lat="52.11947833" lon="-2.190273333"><ele>56.000000</ele><time>2010-06-09T10:33:17Z</time></trkpt>
	<trkpt lat="52.11948333" lon="-2.190238333"><ele>58.000000</ele><time>2010-06-09T10:33:22Z</time></trkpt>
	<trkpt lat="52.11951667" lon="-2.190191667"><ele>58.000000</ele><time>2010-06-09T10:33:27Z</time></trkpt>
	<trkpt lat="52.11956" lon="-2.190148333"><ele>58.000000</ele><time>2010-06-09T10:33:32Z</time></trkpt>
	<trkpt lat="52.11960333" lon="-2.190105"><ele>57.000000</ele><time>2010-06-09T10:33:37Z</time></trkpt>
	<trkpt lat="52.11964333" lon="-2.190066667"><ele>58.000000</ele><time>2010-06-09T10:33:42Z</time></trkpt>
	<trkpt lat="52.11969333" lon="-2.190025"><ele>58.000000</ele><time>2010-06-09T10:33:47Z</time></trkpt>
	<trkpt lat="52.11974167" lon="-2.189986667"><ele>58.000000</ele><time>2010-06-09T10:33:52Z</time></trkpt>
	<trkpt lat="52.11979667" lon="-2.189955"><ele>58.000000</ele><time>2010-06-09T10:33:57Z</time></trkpt>
	<trkpt lat="52.11985" lon="-2.18993"><ele>56.000000</ele><time>2010-06-09T10:34:02Z</time></trkpt>
	<trkpt lat="52.119865" lon="-2.189855"><ele>57.000000</ele><time>2010-06-09T10:34:07Z</time></trkpt>
	<trkpt lat="52.11991167" lon="-2.189798333"><ele>58.000000</ele><time>2010-06-09T10:34:12Z</time></trkpt>
	<trkpt lat="52.11991333" lon="-2.189768333"><ele>59.000000</ele><time>2010-06-09T10:34:17Z</time></trkpt>
	<trkpt lat="52.11991833" lon="-2.189756667"><ele>57.000000</ele><time>2010-06-09T10:34:22Z</time></trkpt>
	<trkpt lat="52.11993333" lon="-2.189713333"><ele>57.000000</ele><time>2010-06-09T10:34:27Z</time></trkpt>
	<trkpt lat="52.11994" lon="-2.189691667"><ele>56.000000</ele><time>2010-06-09T10:34:32Z</time></trkpt>
	<trkpt lat="52.11995833" lon="-2.18963"><ele>56.000000</ele><time>2010-06-09T10:34:37Z</time></trkpt>
	<trkpt lat="52.11997833" lon="-2.18957"><ele>56.000000</ele><time>2010-06-09T10:34:42Z</time></trkpt>
	<trkpt lat="52.12" lon="-2.189511667"><ele>57.000000</ele><time>2010-06-09T10:34:47Z</time></trkpt>
	<trkpt lat="52.12002" lon="-2.189443333"><ele>58.000000</ele><time>2010-06-09T10:34:52Z</time></trkpt>
	<trkpt lat="52.12005" lon="-2.189375"><ele>58.000000</ele><time>2010-06-09T10:34:57Z</time></trkpt>
	<trkpt lat="52.120075" lon="-2.189306667"><ele>59.000000</ele><time>2010-06-09T10:35:02Z</time></trkpt>
	<trkpt lat="52.12011833" lon="-2.189223333"><ele>58.000000</ele><time>2010-06-09T10:35:07Z</time></trkpt>
	<trkpt lat="52.12015333" lon="-2.18916"><ele>57.000000</ele><time>2010-06-09T10:35:12Z</time></trkpt>
	<trkpt lat="52.12019" lon="-2.189096667"><ele>56.000000</ele><time>2010-06-09T10:35:17Z</time></trkpt>
	<trkpt lat="52.12020833" lon="-2.18903"><ele>55.000000</ele><time>2010-06-09T10:35:22Z</time></trkpt>
	<trkpt lat="52.120235" lon="-2.18897"><ele>55.000000</ele><time>2010-06-09T10:35:27Z</time></trkpt>
	<trkpt lat="52.120255" lon="-2.188905"><ele>56.000000</ele><time>2010-06-09T10:35:32Z</time></trkpt>
	<trkpt lat="52.12028" lon="-2.188836667"><ele>55.000000</ele><time>2010-06-09T10:35:37Z</time></trkpt>
	<trkpt lat="52.120305" lon="-2.188761667"><ele>54.000000</ele><time>2010-06-09T10:35:42Z</time></trkpt>
	<trkpt lat="52.12032667" lon="-2.188693333"><ele>54.000000</ele><time>2010-06-09T10:35:47Z</time></trkpt>
	<trkpt lat="52.120345" lon="-2.188623333"><ele>55.000000</ele><time>2010-06-09T10:35:52Z</time></trkpt>
	<trkpt lat="52.12038167" lon="-2.188543333"><ele>54.000000</ele><time>2010-06-09T10:35:57Z</time></trkpt>
	<trkpt lat="52.12040667" lon="-2.188461667"><ele>53.000000</ele><time>2010-06-09T10:36:02Z</time></trkpt>
	<trkpt lat="52.12042667" lon="-2.188393333"><ele>53.000000</ele><time>2010-06-09T10:36:07Z</time></trkpt>
	<trkpt lat="52.12045" lon="-2.188321667"><ele>53.000000</ele><time>2010-06-09T10:36:12Z</time></trkpt>
	<trkpt lat="52.12046667" lon="-2.18825"><ele>53.000000</ele><time>2010-06-09T10:36:17Z</time></trkpt>
	<trkpt lat="52.12048333" lon="-2.188173333"><ele>53.000000</ele><time>2010-06-09T10:36:22Z</time></trkpt>
	<trkpt lat="52.12050833" lon="-2.188101667"><ele>52.000000</ele><time>2010-06-09T10:36:27Z</time></trkpt>
	<trkpt lat="52.12053333" lon="-2.18803"><ele>51.000000</ele><time>2010-06-09T10:36:32Z</time></trkpt>
	<trkpt lat="52.12055833" lon="-2.18796"><ele>51.000000</ele><time>2010-06-09T10:36:37Z</time></trkpt>
	<trkpt lat="52.12057333" lon="-2.187886667"><ele>51.000000</ele><time>2010-06-09T10:36:42Z</time></trkpt>
	<trkpt lat="52.12058833" lon="-2.187821667"><ele>51.000000</ele><time>2010-06-09T10:36:47Z</time></trkpt>
	<trkpt lat="52.12061" lon="-2.187765"><ele>51.000000</ele><time>2010-06-09T10:36:52Z</time></trkpt>
	<trkpt lat="52.12062167" lon="-2.18771"><ele>51.000000</ele><time>2010-06-09T10:36:57Z</time></trkpt>
	<trkpt lat="52.12065667" lon="-2.18766"><ele>48.000000</ele><time>2010-06-09T10:37:02Z</time></trkpt>
	<trkpt lat="52.12069333" lon="-2.187621667"><ele>46.000000</ele><time>2010-06-09T10:37:07Z</time></trkpt>
	<trkpt lat="52.12071333" lon="-2.187603333"><ele>45.000000</ele><time>2010-06-09T10:37:12Z</time></trkpt>
	<trkpt lat="52.12070833" lon="-2.187581667"><ele>45.000000</ele><time>2010-06-09T10:37:17Z</time></trkpt>
	<trkpt lat="52.12071333" lon="-2.187518333"><ele>45.000000</ele><time>2010-06-09T10:37:22Z</time></trkpt>
	<trkpt lat="52.12068333" lon="-2.187473333"><ele>47.000000</ele><time>2010-06-09T10:37:27Z</time></trkpt>
	<trkpt lat="52.12066333" lon="-2.187418333"><ele>50.000000</ele><time>2010-06-09T10:37:32Z</time></trkpt>
	<trkpt lat="52.12064667" lon="-2.187343333"><ele>50.000000</ele><time>2010-06-09T10:37:37Z</time></trkpt>
	<trkpt lat="52.12061833" lon="-2.187285"><ele>51.000000</ele><time>2010-06-09T10:37:42Z</time></trkpt>
	<trkpt lat="52.12062333" lon="-2.187216667"><ele>50.000000</ele><time>2010-06-09T10:37:47Z</time></trkpt>
	<trkpt lat="52.12062333" lon="-2.187141667"><ele>49.000000</ele><time>2010-06-09T10:37:52Z</time></trkpt>
	<trkpt lat="52.12061" lon="-2.18709"><ele>49.000000</ele><time>2010-06-09T10:37:57Z</time></trkpt>
	<trkpt lat="52.12060333" lon="-2.187025"><ele>49.000000</ele><time>2010-06-09T10:38:02Z</time></trkpt>
	<trkpt lat="52.12059833" lon="-2.186955"><ele>48.000000</ele><time>2010-06-09T10:38:07Z</time></trkpt>
	<trkpt lat="52.120595" lon="-2.186891667"><ele>48.000000</ele><time>2010-06-09T10:38:12Z</time></trkpt>
	<trkpt lat="52.12059167" lon="-2.186828333"><ele>48.000000</ele><time>2010-06-09T10:38:17Z</time></trkpt>
	<trkpt lat="52.12058667" lon="-2.186755"><ele>48.000000</ele><time>2010-06-09T10:38:22Z</time></trkpt>
	<trkpt lat="52.120595" lon="-2.186686667"><ele>47.000000</ele><time>2010-06-09T10:38:27Z</time></trkpt>
	<trkpt lat="52.12059333" lon="-2.186673333"><ele>47.000000</ele><time>2010-06-09T10:38:32Z</time></trkpt>
	<trkpt lat="52.12058833" lon="-2.186676667"><ele>46.000000</ele><time>2010-06-09T10:38:37Z</time></trkpt>
	<trkpt lat="52.120595" lon="-2.186665"><ele>46.000000</ele><time>2010-06-09T10:38:42Z</time></trkpt>
	<trkpt lat="52.12058833" lon="-2.18663"><ele>46.000000</ele><time>2010-06-09T10:38:47Z</time></trkpt>
	<trkpt lat="52.120585" lon="-2.186563333"><ele>46.000000</ele><time>2010-06-09T10:38:52Z</time></trkpt>
	<trkpt lat="52.12057333" lon="-2.186493333"><ele>46.000000</ele><time>2010-06-09T10:38:57Z</time></trkpt>
	<trkpt lat="52.12057333" lon="-2.186416667"><ele>44.000000</ele><time>2010-06-09T10:39:02Z</time></trkpt>
	<trkpt lat="52.12056833" lon="-2.186351667"><ele>44.000000</ele><time>2010-06-09T10:39:07Z</time></trkpt>
	<trkpt lat="52.12055833" lon="-2.18631"><ele>43.000000</ele><time>2010-06-09T10:39:12Z</time></trkpt>
	<trkpt lat="52.12056167" lon="-2.186295"><ele>43.000000</ele><time>2010-06-09T10:39:17Z</time></trkpt>
	<trkpt lat="52.12056833" lon="-2.186226667"><ele>42.000000</ele><time>2010-06-09T10:39:22Z</time></trkpt>
	<trkpt lat="52.12057" lon="-2.186155"><ele>41.000000</ele><time>2010-06-09T10:39:27Z</time></trkpt>
	<trkpt lat="52.12055833" lon="-2.186083333"><ele>40.000000</ele><time>2010-06-09T10:39:32Z</time></trkpt>
	<trkpt lat="52.12055167" lon="-2.186015"><ele>40.000000</ele><time>2010-06-09T10:39:37Z</time></trkpt>
	<trkpt lat="52.12054333" lon="-2.185941667"><ele>40.000000</ele><time>2010-06-09T10:39:42Z</time></trkpt>
	<trkpt lat="52.120535" lon="-2.185866667"><ele>41.000000</ele><time>2010-06-09T10:39:47Z</time></trkpt>
	<trkpt lat="52.120525" lon="-2.185791667"><ele>41.000000</ele><time>2010-06-09T10:39:52Z</time></trkpt>
	<trkpt lat="52.12051333" lon="-2.18572"><ele>41.000000</ele><time>2010-06-09T10:39:57Z</time></trkpt>
	<trkpt lat="52.12050333" lon="-2.18566"><ele>41.000000</ele><time>2010-06-09T10:40:02Z</time></trkpt>
	<trkpt lat="52.12049" lon="-2.185626667"><ele>41.000000</ele><time>2010-06-09T10:40:07Z</time></trkpt>
	<trkpt lat="52.12048333" lon="-2.185631667"><ele>42.000000</ele><time>2010-06-09T10:40:12Z</time></trkpt>
	<trkpt lat="52.120475" lon="-2.185565"><ele>41.000000</ele><time>2010-06-09T10:40:17Z</time></trkpt>
	<trkpt lat="52.12046167" lon="-2.1855"><ele>41.000000</ele><time>2010-06-09T10:40:22Z</time></trkpt>
	<trkpt lat="52.12045167" lon="-2.185415"><ele>41.000000</ele><time>2010-06-09T10:40:27Z</time></trkpt>
	<trkpt lat="52.12044333" lon="-2.18533"><ele>41.000000</ele><time>2010-06-09T10:40:32Z</time></trkpt>
	<trkpt lat="52.12043833" lon="-2.185255"><ele>42.000000</ele><time>2010-06-09T10:40:37Z</time></trkpt>
	<trkpt lat="52.12044167" lon="-2.185171667"><ele>42.000000</ele><time>2010-06-09T10:40:42Z</time></trkpt>
	<trkpt lat="52.12045333" lon="-2.185096667"><ele>42.000000</ele><time>2010-06-09T10:40:47Z</time></trkpt>
	<trkpt lat="52.12046833" lon="-2.185018333"><ele>42.000000</ele><time>2010-06-09T10:40:52Z</time></trkpt>
	<trkpt lat="52.12047333" lon="-2.184935"><ele>42.000000</ele><time>2010-06-09T10:40:57Z</time></trkpt>
	<trkpt lat="52.12048333" lon="-2.184861667"><ele>42.000000</ele><time>2010-06-09T10:41:02Z</time></trkpt>
	<trkpt lat="52.12050167" lon="-2.18479"><ele>42.000000</ele><time>2010-06-09T10:41:07Z</time></trkpt>
	<trkpt lat="52.12052167" lon="-2.184746667"><ele>43.000000</ele><time>2010-06-09T10:41:12Z</time></trkpt>
	<trkpt lat="52.12051833" lon="-2.184658333"><ele>43.000000</ele><time>2010-06-09T10:41:17Z</time></trkpt>
	<trkpt lat="52.12052" lon="-2.184571667"><ele>43.000000</ele><time>2010-06-09T10:41:22Z</time></trkpt>
	<trkpt lat="52.12051667" lon="-2.184548333"><ele>42.000000</ele><time>2010-06-09T10:41:27Z</time></trkpt>
	<trkpt lat="52.12052667" lon="-2.184518333"><ele>41.000000</ele><time>2010-06-09T10:41:32Z</time></trkpt>
	<trkpt lat="52.120525" lon="-2.184456667"><ele>41.000000</ele><time>2010-06-09T10:41:37Z</time></trkpt>
	<trkpt lat="52.12054333" lon="-2.184383333"><ele>40.000000</ele><time>2010-06-09T10:41:42Z</time></trkpt>
	<trkpt lat="52.12056833" lon="-2.184315"><ele>40.000000</ele><time>2010-06-09T10:41:47Z</time></trkpt>
	<trkpt lat="52.12059833" lon="-2.184258333"><ele>40.000000</ele><time>2010-06-09T10:41:52Z</time></trkpt>
	<trkpt lat="52.12062667" lon="-2.1842"><ele>40.000000</ele><time>2010-06-09T10:41:57Z</time></trkpt>
	<trkpt lat="52.120655" lon="-2.184138333"><ele>41.000000</ele><time>2010-06-09T10:42:02Z</time></trkpt>
	<trkpt lat="52.120685" lon="-2.184085"><ele>41.000000</ele><time>2010-06-09T10:42:07Z</time></trkpt>
	<trkpt lat="52.12070833" lon="-2.184023333"><ele>41.000000</ele><time>2010-06-09T10:42:12Z</time></trkpt>
	<trkpt lat="52.12074167" lon="-2.183955"><ele>41.000000</ele><time>2010-06-09T10:42:17Z</time></trkpt>
	<trkpt lat="52.120775" lon="-2.183895"><ele>40.000000</ele><time>2010-06-09T10:42:22Z</time></trkpt>
	<trkpt lat="52.120805" lon="-2.183828333"><ele>40.000000</ele><time>2010-06-09T10:42:27Z</time></trkpt>
	<trkpt lat="52.120835" lon="-2.183766667"><ele>39.000000</ele><time>2010-06-09T10:42:32Z</time></trkpt>
	<trkpt lat="52.12086333" lon="-2.1837"><ele>40.000000</ele><time>2010-06-09T10:42:37Z</time></trkpt>
	<trkpt lat="52.12088833" lon="-2.183636667"><ele>39.000000</ele><time>2010-06-09T10:42:42Z</time></trkpt>
	<trkpt lat="52.12090667" lon="-2.18357"><ele>39.000000</ele><time>2010-06-09T10:42:47Z</time></trkpt>
	<trkpt lat="52.12093" lon="-2.183501667"><ele>39.000000</ele><time>2010-06-09T10:42:52Z</time></trkpt>
	<trkpt lat="52.12096167" lon="-2.18343"><ele>38.000000</ele><time>2010-06-09T10:42:57Z</time></trkpt>
	<trkpt lat="52.12097833" lon="-2.183363333"><ele>38.000000</ele><time>2010-06-09T10:43:02Z</time></trkpt>
	<trkpt lat="52.12099833" lon="-2.183306667"><ele>38.000000</ele><time>2010-06-09T10:43:07Z</time></trkpt>
	<trkpt lat="52.121015" lon="-2.18324"><ele>38.000000</ele><time>2010-06-09T10:43:12Z</time></trkpt>
	<trkpt lat="52.12103333" lon="-2.18317"><ele>38.000000</ele><time>2010-06-09T10:43:17Z</time></trkpt>
	<trkpt lat="52.12105333" lon="-2.183103333"><ele>38.000000</ele><time>2010-06-09T10:43:22Z</time></trkpt>
	<trkpt lat="52.12107333" lon="-2.18304"><ele>38.000000</ele><time>2010-06-09T10:43:27Z</time></trkpt>
	<trkpt lat="52.12109" lon="-2.182978333"><ele>39.000000</ele><time>2010-06-09T10:43:32Z</time></trkpt>
	<trkpt lat="52.12110333" lon="-2.182908333"><ele>38.000000</ele><time>2010-06-09T10:43:37Z</time></trkpt>
	<trkpt lat="52.12111333" lon="-2.182836667"><ele>38.000000</ele><time>2010-06-09T10:43:42Z</time></trkpt>
	<trkpt lat="52.12112833" lon="-2.182768333"><ele>38.000000</ele><time>2010-06-09T10:43:47Z</time></trkpt>
	<trkpt lat="52.12114333" lon="-2.182708333"><ele>38.000000</ele><time>2010-06-09T10:43:52Z</time></trkpt>
	<trkpt lat="52.121165" lon="-2.182655"><ele>39.000000</ele><time>2010-06-09T10:43:57Z</time></trkpt>
	<trkpt lat="52.121175" lon="-2.182601667"><ele>39.000000</ele><time>2010-06-09T10:44:02Z</time></trkpt>
	<trkpt lat="52.12117667" lon="-2.18258"><ele>38.000000</ele><time>2010-06-09T10:44:07Z</time></trkpt>
	<trkpt lat="52.121185" lon="-2.182521667"><ele>37.000000</ele><time>2010-06-09T10:44:12Z</time></trkpt>
	<trkpt lat="52.12119833" lon="-2.182481667"><ele>37.000000</ele><time>2010-06-09T10:44:17Z</time></trkpt>
	<trkpt lat="52.12121167" lon="-2.182463333"><ele>37.000000</ele><time>2010-06-09T10:44:22Z</time></trkpt>
	<trkpt lat="52.12121833" lon="-2.18244"><ele>37.000000</ele><time>2010-06-09T10:44:27Z</time></trkpt>
	<trkpt lat="52.12122" lon="-2.18242"><ele>37.000000</ele><time>2010-06-09T10:44:32Z</time></trkpt>
	<trkpt lat="52.12122" lon="-2.182401667"><ele>38.000000</ele><time>2010-06-09T10:44:37Z</time></trkpt>
	<trkpt lat="52.12122333" lon="-2.182383333"><ele>39.000000</ele><time>2010-06-09T10:44:42Z</time></trkpt>
	<trkpt lat="52.121235" lon="-2.182306667"><ele>39.000000</ele><time>2010-06-09T10:44:47Z</time></trkpt>
	<trkpt lat="52.12124" lon="-2.182248333"><ele>39.000000</ele><time>2010-06-09T10:44:52Z</time></trkpt>
	<trkpt lat="52.12124667" lon="-2.182233333"><ele>41.000000</ele><time>2010-06-09T10:44:57Z</time></trkpt>
	<trkpt lat="52.12124833" lon="-2.1822"><ele>43.000000</ele><time>2010-06-09T10:45:02Z</time></trkpt>
	<trkpt lat="52.121245" lon="-2.182228333"><ele>45.000000</ele><time>2010-06-09T10:45:07Z</time></trkpt>
	<trkpt lat="52.12125" lon="-2.182226667"><ele>45.000000</ele><time>2010-06-09T10:45:12Z</time></trkpt>
	<trkpt lat="52.12126" lon="-2.182195"><ele>46.000000</ele><time>2010-06-09T10:45:17Z</time></trkpt>
	<trkpt lat="52.12127333" lon="-2.182158333"><ele>46.000000</ele><time>2010-06-09T10:45:22Z</time></trkpt>
	<trkpt lat="52.12127333" lon="-2.182123333"><ele>45.000000</ele><time>2010-06-09T10:45:27Z</time></trkpt>
	<trkpt lat="52.121285" lon="-2.182096667"><ele>44.000000</ele><time>2010-06-09T10:45:32Z</time></trkpt>
	<trkpt lat="52.121285" lon="-2.182078333"><ele>42.000000</ele><time>2010-06-09T10:45:37Z</time></trkpt>
	<trkpt lat="52.12128667" lon="-2.182078333"><ele>41.000000</ele><time>2010-06-09T10:45:42Z</time></trkpt>
	<trkpt lat="52.12128833" lon="-2.182076667"><ele>40.000000</ele><time>2010-06-09T10:45:47Z</time></trkpt>
	<trkpt lat="52.121295" lon="-2.182058333"><ele>40.000000</ele><time>2010-06-09T10:45:52Z</time></trkpt>
	<trkpt lat="52.12129667" lon="-2.182028333"><ele>40.000000</ele><time>2010-06-09T10:45:57Z</time></trkpt>
	<trkpt lat="52.12130167" lon="-2.18199"><ele>40.000000</ele><time>2010-06-09T10:46:02Z</time></trkpt>
	<trkpt lat="52.12132" lon="-2.18193"><ele>39.000000</ele><time>2010-06-09T10:46:07Z</time></trkpt>
	<trkpt lat="52.12133333" lon="-2.181888333"><ele>40.000000</ele><time>2010-06-09T10:46:12Z</time></trkpt>
	<trkpt lat="52.12135333" lon="-2.181828333"><ele>41.000000</ele><time>2010-06-09T10:46:17Z</time></trkpt>
	<trkpt lat="52.12135333" lon="-2.18178"><ele>43.000000</ele><time>2010-06-09T10:46:22Z</time></trkpt>
	<trkpt lat="52.121375" lon="-2.181693333"><ele>43.000000</ele><time>2010-06-09T10:46:27Z</time></trkpt>
	<trkpt lat="52.1214" lon="-2.181631667"><ele>44.000000</ele><time>2010-06-09T10:46:32Z</time></trkpt>
	<trkpt lat="52.12142667" lon="-2.181566667"><ele>45.000000</ele><time>2010-06-09T10:46:37Z</time></trkpt>
	<trkpt lat="52.12144833" lon="-2.18149"><ele>46.000000</ele><time>2010-06-09T10:46:42Z</time></trkpt>
	<trkpt lat="52.12143" lon="-2.18142"><ele>45.000000</ele><time>2010-06-09T10:46:47Z</time></trkpt>
	<trkpt lat="52.12143333" lon="-2.181341667"><ele>46.000000</ele><time>2010-06-09T10:46:52Z</time></trkpt>
	<trkpt lat="52.12142" lon="-2.18125"><ele>43.000000</ele><time>2010-06-09T10:46:57Z</time></trkpt>
	<trkpt lat="52.1214" lon="-2.181176667"><ele>41.000000</ele><time>2010-06-09T10:47:02Z</time></trkpt>
	<trkpt lat="52.12141" lon="-2.181071667"><ele>37.000000</ele><time>2010-06-09T10:47:07Z</time></trkpt>
	<trkpt lat="52.12141167" lon="-2.181036667"><ele>38.000000</ele><time>2010-06-09T10:47:12Z</time></trkpt>
	<trkpt lat="52.12144833" lon="-2.18098"><ele>38.000000</ele><time>2010-06-09T10:47:17Z</time></trkpt>
	<trkpt lat="52.12147167" lon="-2.180928333"><ele>34.000000</ele><time>2010-06-09T10:47:22Z</time></trkpt>
	<trkpt lat="52.121495" lon="-2.180888333"><ele>31.000000</ele><time>2010-06-09T10:47:27Z</time></trkpt>
	<trkpt lat="52.12152" lon="-2.180896667"><ele>34.000000</ele><time>2010-06-09T10:47:32Z</time></trkpt>
	<trkpt lat="52.12152333" lon="-2.180908333"><ele>38.000000</ele><time>2010-06-09T10:47:37Z</time></trkpt>
	<trkpt lat="52.12150833" lon="-2.180896667"><ele>39.000000</ele><time>2010-06-09T10:47:42Z</time></trkpt>
	<trkpt lat="52.12149" lon="-2.180893333"><ele>40.000000</ele><time>2010-06-09T10:47:47Z</time></trkpt>
	<trkpt lat="52.12149167" lon="-2.180895"><ele>40.000000</ele><time>2010-06-09T10:47:52Z</time></trkpt>
	<trkpt lat="52.12148333" lon="-2.180918333"><ele>36.000000</ele><time>2010-06-09T10:47:57Z</time></trkpt>
	<trkpt lat="52.12146333" lon="-2.1809"><ele>33.000000</ele><time>2010-06-09T10:48:02Z</time></trkpt>
	<trkpt lat="52.12145833" lon="-2.180896667"><ele>34.000000</ele><time>2010-06-09T10:48:07Z</time></trkpt>
	<trkpt lat="52.12148" lon="-2.180848333"><ele>37.000000</ele><time>2010-06-09T10:48:12Z</time></trkpt>
	<trkpt lat="52.12148" lon="-2.180826667"><ele>39.000000</ele><time>2010-06-09T10:48:17Z</time></trkpt>
	<trkpt lat="52.121465" lon="-2.180796667"><ele>42.000000</ele><time>2010-06-09T10:48:22Z</time></trkpt>
	<trkpt lat="52.12148667" lon="-2.180773333"><ele>45.000000</ele><time>2010-06-09T10:48:27Z</time></trkpt>
	<trkpt lat="52.12151" lon="-2.180756667"><ele>46.000000</ele><time>2010-06-09T10:48:32Z</time></trkpt>
	<trkpt lat="52.121555" lon="-2.180723333"><ele>46.000000</ele><time>2010-06-09T10:48:37Z</time></trkpt>
	<trkpt lat="52.12160333" lon="-2.180671667"><ele>44.000000</ele><time>2010-06-09T10:48:42Z</time></trkpt>
	<trkpt lat="52.12166333" lon="-2.18065"><ele>42.000000</ele><time>2010-06-09T10:48:47Z</time></trkpt>
	<trkpt lat="52.12169667" lon="-2.180583333"><ele>40.000000</ele><time>2010-06-09T10:48:52Z</time></trkpt>
	<trkpt lat="52.12175333" lon="-2.180531667"><ele>37.000000</ele><time>2010-06-09T10:48:57Z</time></trkpt>
	<trkpt lat="52.121795" lon="-2.18048"><ele>36.000000</ele><time>2010-06-09T10:49:02Z</time></trkpt>
	<trkpt lat="52.12178333" lon="-2.180496667"><ele>39.000000</ele><time>2010-06-09T10:49:07Z</time></trkpt>
	<trkpt lat="52.121825" lon="-2.180466667"><ele>38.000000</ele><time>2010-06-09T10:49:12Z</time></trkpt>
	<trkpt lat="52.12187667" lon="-2.180411667"><ele>35.000000</ele><time>2010-06-09T10:49:17Z</time></trkpt>
	<trkpt lat="52.12190833" lon="-2.18036"><ele>34.000000</ele><time>2010-06-09T10:49:22Z</time></trkpt>
	<trkpt lat="52.12194" lon="-2.180358333"><ele>36.000000</ele><time>2010-06-09T10:49:27Z</time></trkpt>
	<trkpt lat="52.121975" lon="-2.180346667"><ele>37.000000</ele><time>2010-06-09T10:49:32Z</time></trkpt>
	<trkpt lat="52.12200167" lon="-2.18033"><ele>39.000000</ele><time>2010-06-09T10:49:37Z</time></trkpt>
	<trkpt lat="52.12201833" lon="-2.180365"><ele>41.000000</ele><time>2010-06-09T10:49:42Z</time></trkpt>
	<trkpt lat="52.12201" lon="-2.180326667"><ele>38.000000</ele><time>2010-06-09T10:49:47Z</time></trkpt>
	<trkpt lat="52.12197167" lon="-2.180248333"><ele>37.000000</ele><time>2010-06-09T10:49:52Z</time></trkpt>
	<trkpt lat="52.12196" lon="-2.180218333"><ele>36.000000</ele><time>2010-06-09T10:49:57Z</time></trkpt>
	<trkpt lat="52.12195" lon="-2.180206667"><ele>33.000000</ele><time>2010-06-09T10:50:02Z</time></trkpt>
	<trkpt lat="52.12195833" lon="-2.180193333"><ele>32.000000</ele><time>2010-06-09T10:50:07Z</time></trkpt>
	<trkpt lat="52.12198" lon="-2.180145"><ele>30.000000</ele><time>2010-06-09T10:50:12Z</time></trkpt>
	<trkpt lat="52.12196667" lon="-2.180065"><ele>28.000000</ele><time>2010-06-09T10:50:17Z</time></trkpt>
	<trkpt lat="52.12192" lon="-2.18001"><ele>27.000000</ele><time>2010-06-09T10:50:22Z</time></trkpt>
	<trkpt lat="52.12187" lon="-2.17994"><ele>30.000000</ele><time>2010-06-09T10:50:27Z</time></trkpt>
	<trkpt lat="52.121825" lon="-2.17986"><ele>32.000000</ele><time>2010-06-09T10:50:32Z</time></trkpt>
	<trkpt lat="52.121795" lon="-2.179791667"><ele>34.000000</ele><time>2010-06-09T10:50:37Z</time></trkpt>
	<trkpt lat="52.12176333" lon="-2.179726667"><ele>34.000000</ele><time>2010-06-09T10:50:42Z</time></trkpt>
	<trkpt lat="52.121735" lon="-2.179676667"><ele>35.000000</ele><time>2010-06-09T10:50:47Z</time></trkpt>
	<trkpt lat="52.12171" lon="-2.17963"><ele>36.000000</ele><time>2010-06-09T10:50:52Z</time></trkpt>
	<trkpt lat="52.12167167" lon="-2.179573333"><ele>35.000000</ele><time>2010-06-09T10:50:57Z</time></trkpt>
	<trkpt lat="52.12164167" lon="-2.179518333"><ele>35.000000</ele><time>2010-06-09T10:51:02Z</time></trkpt>
	<trkpt lat="52.12161" lon="-2.179465"><ele>35.000000</ele><time>2010-06-09T10:51:07Z</time></trkpt>
	<trkpt lat="52.121585" lon="-2.179416667"><ele>35.000000</ele><time>2010-06-09T10:51:12Z</time></trkpt>
	<trkpt lat="52.12156" lon="-2.179383333"><ele>36.000000</ele><time>2010-06-09T10:51:17Z</time></trkpt>
	<trkpt lat="52.12151667" lon="-2.179368333"><ele>34.000000</ele><time>2010-06-09T10:51:22Z</time></trkpt>
	<trkpt lat="52.12148" lon="-2.179386667"><ele>33.000000</ele><time>2010-06-09T10:51:27Z</time></trkpt>
	<trkpt lat="52.121455" lon="-2.179405"><ele>33.000000</ele><time>2010-06-09T10:51:32Z</time></trkpt>
	<trkpt lat="52.121425" lon="-2.179435"><ele>34.000000</ele><time>2010-06-09T10:51:37Z</time></trkpt>
	<trkpt lat="52.12141167" lon="-2.17945"><ele>35.000000</ele><time>2010-06-09T10:51:42Z</time></trkpt>
	<trkpt lat="52.121405" lon="-2.179406667"><ele>36.000000</ele><time>2010-06-09T10:51:47Z</time></trkpt>
	<trkpt lat="52.121405" lon="-2.17934"><ele>38.000000</ele><time>2010-06-09T10:51:52Z</time></trkpt>
	<trkpt lat="52.12140333" lon="-2.179271667"><ele>39.000000</ele><time>2010-06-09T10:51:57Z</time></trkpt>
	<trkpt lat="52.12139833" lon="-2.179208333"><ele>40.000000</ele><time>2010-06-09T10:52:02Z</time></trkpt>
	<trkpt lat="52.12139" lon="-2.179135"><ele>40.000000</ele><time>2010-06-09T10:52:07Z</time></trkpt>
	<trkpt lat="52.12138" lon="-2.179065"><ele>41.000000</ele><time>2010-06-09T10:52:12Z</time></trkpt>
	<trkpt lat="52.12137333" lon="-2.178998333"><ele>41.000000</ele><time>2010-06-09T10:52:17Z</time></trkpt>
	<trkpt lat="52.12136667" lon="-2.178933333"><ele>41.000000</ele><time>2010-06-09T10:52:22Z</time></trkpt>
	<trkpt lat="52.12136" lon="-2.178871667"><ele>41.000000</ele><time>2010-06-09T10:52:27Z</time></trkpt>
	<trkpt lat="52.12135333" lon="-2.17882"><ele>41.000000</ele><time>2010-06-09T10:52:32Z</time></trkpt>
	<trkpt lat="52.12134833" lon="-2.178761667"><ele>41.000000</ele><time>2010-06-09T10:52:37Z</time></trkpt>
	<trkpt lat="52.12134333" lon="-2.178695"><ele>41.000000</ele><time>2010-06-09T10:52:42Z</time></trkpt>
	<trkpt lat="52.12133667" lon="-2.178633333"><ele>41.000000</ele><time>2010-06-09T10:52:47Z</time></trkpt>
	<trkpt lat="52.12133167" lon="-2.178568333"><ele>41.000000</ele><time>2010-06-09T10:52:52Z</time></trkpt>
	<trkpt lat="52.12132333" lon="-2.178505"><ele>41.000000</ele><time>2010-06-09T10:52:57Z</time></trkpt>
	<trkpt lat="52.121315" lon="-2.178441667"><ele>41.000000</ele><time>2010-06-09T10:53:02Z</time></trkpt>
	<trkpt lat="52.12130833" lon="-2.17838"><ele>42.000000</ele><time>2010-06-09T10:53:07Z</time></trkpt>
	<trkpt lat="52.12131333" lon="-2.178303333"><ele>41.000000</ele><time>2010-06-09T10:53:12Z</time></trkpt>
	<trkpt lat="52.12130833" lon="-2.178243333"><ele>41.000000</ele><time>2010-06-09T10:53:17Z</time></trkpt>
	<trkpt lat="52.1213" lon="-2.17818"><ele>41.000000</ele><time>2010-06-09T10:53:22Z</time></trkpt>
	<trkpt lat="52.12129167" lon="-2.178118333"><ele>41.000000</ele><time>2010-06-09T10:53:27Z</time></trkpt>
	<trkpt lat="52.12129" lon="-2.178066667"><ele>41.000000</ele><time>2010-06-09T10:53:32Z</time></trkpt>
	<trkpt lat="52.12128667" lon="-2.178025"><ele>42.000000</ele><time>2010-06-09T10:53:37Z</time></trkpt>
	<trkpt lat="52.121285" lon="-2.177978333"><ele>42.000000</ele><time>2010-06-09T10:53:42Z</time></trkpt>
	<trkpt lat="52.12128167" lon="-2.177948333"><ele>42.000000</ele><time>2010-06-09T10:53:47Z</time></trkpt>
	<trkpt lat="52.12127833" lon="-2.177911667"><ele>41.000000</ele><time>2010-06-09T10:53:52Z</time></trkpt>
	<trkpt lat="52.121275" lon="-2.177868333"><ele>41.000000</ele><time>2010-06-09T10:53:57Z</time></trkpt>
	<trkpt lat="52.12127" lon="-2.17782"><ele>41.000000</ele><time>2010-06-09T10:54:02Z</time></trkpt>
	<trkpt lat="52.12127167" lon="-2.17778"><ele>41.000000</ele><time>2010-06-09T10:54:07Z</time></trkpt>
	<trkpt lat="52.12126833" lon="-2.177721667"><ele>40.000000</ele><time>2010-06-09T10:54:12Z</time></trkpt>
	<trkpt lat="52.121265" lon="-2.17767"><ele>40.000000</ele><time>2010-06-09T10:54:17Z</time></trkpt>
	<trkpt lat="52.12126" lon="-2.177608333"><ele>40.000000</ele><time>2010-06-09T10:54:22Z</time></trkpt>
	<trkpt lat="52.12126" lon="-2.17755"><ele>39.000000</ele><time>2010-06-09T10:54:27Z</time></trkpt>
	<trkpt lat="52.12125667" lon="-2.177503333"><ele>39.000000</ele><time>2010-06-09T10:54:32Z</time></trkpt>
	<trkpt lat="52.12125667" lon="-2.17745"><ele>40.000000</ele><time>2010-06-09T10:54:37Z</time></trkpt>
	<trkpt lat="52.12125333" lon="-2.177391667"><ele>40.000000</ele><time>2010-06-09T10:54:42Z</time></trkpt>
	<trkpt lat="52.12124833" lon="-2.177335"><ele>40.000000</ele><time>2010-06-09T10:54:47Z</time></trkpt>
	<trkpt lat="52.12124333" lon="-2.177278333"><ele>40.000000</ele><time>2010-06-09T10:54:52Z</time></trkpt>
	<trkpt lat="52.12123833" lon="-2.17721"><ele>40.000000</ele><time>2010-06-09T10:54:57Z</time></trkpt>
	<trkpt lat="52.12123167" lon="-2.177138333"><ele>39.000000</ele><time>2010-06-09T10:55:02Z</time></trkpt>
	<trkpt lat="52.12122833" lon="-2.17708"><ele>40.000000</ele><time>2010-06-09T10:55:07Z</time></trkpt>
	<trkpt lat="52.12122333" lon="-2.177026667"><ele>40.000000</ele><time>2010-06-09T10:55:12Z</time></trkpt>
	<trkpt lat="52.12121667" lon="-2.17697"><ele>39.000000</ele><time>2010-06-09T10:55:17Z</time></trkpt>
	<trkpt lat="52.12121" lon="-2.176916667"><ele>39.000000</ele><time>2010-06-09T10:55:22Z</time></trkpt>
	<trkpt lat="52.12120667" lon="-2.176851667"><ele>38.000000</ele><time>2010-06-09T10:55:27Z</time></trkpt>
	<trkpt lat="52.12120167" lon="-2.176791667"><ele>38.000000</ele><time>2010-06-09T10:55:32Z</time></trkpt>
	<trkpt lat="52.12119833" lon="-2.176731667"><ele>37.000000</ele><time>2010-06-09T10:55:37Z</time></trkpt>
	<trkpt lat="52.12119667" lon="-2.176676667"><ele>36.000000</ele><time>2010-06-09T10:55:42Z</time></trkpt>
	<trkpt lat="52.12119667" lon="-2.176618333"><ele>36.000000</ele><time>2010-06-09T10:55:47Z</time></trkpt>
	<trkpt lat="52.12119333" lon="-2.176563333"><ele>36.000000</ele><time>2010-06-09T10:55:52Z</time></trkpt>
	<trkpt lat="52.121195" lon="-2.176508333"><ele>36.000000</ele><time>2010-06-09T10:55:57Z</time></trkpt>
	<trkpt lat="52.12119" lon="-2.17645"><ele>36.000000</ele><time>2010-06-09T10:56:02Z</time></trkpt>
	<trkpt lat="52.121195" lon="-2.176396667"><ele>36.000000</ele><time>2010-06-09T10:56:07Z</time></trkpt>
	<trkpt lat="52.12119167" lon="-2.17635"><ele>35.000000</ele><time>2010-06-09T10:56:12Z</time></trkpt>
	<trkpt lat="52.12119333" lon="-2.176293333"><ele>35.000000</ele><time>2010-06-09T10:56:17Z</time></trkpt>
	<trkpt lat="52.121195" lon="-2.176258333"><ele>36.000000</ele><time>2010-06-09T10:56:22Z</time></trkpt>
	<trkpt lat="52.12119667" lon="-2.17622"><ele>37.000000</ele><time>2010-06-09T10:56:27Z</time></trkpt>
	<trkpt lat="52.121195" lon="-2.176178333"><ele>37.000000</ele><time>2010-06-09T10:56:32Z</time></trkpt>
	<trkpt lat="52.121195" lon="-2.176138333"><ele>37.000000</ele><time>2010-06-09T10:56:37Z</time></trkpt>
	<trkpt lat="52.121195" lon="-2.176093333"><ele>37.000000</ele><time>2010-06-09T10:56:42Z</time></trkpt>
	<trkpt lat="52.12119833" lon="-2.176045"><ele>37.000000</ele><time>2010-06-09T10:56:47Z</time></trkpt>
	<trkpt lat="52.12120667" lon="-2.175995"><ele>36.000000</ele><time>2010-06-09T10:56:52Z</time></trkpt>
	<trkpt lat="52.12121333" lon="-2.17598"><ele>35.000000</ele><time>2010-06-09T10:56:57Z</time></trkpt>
	<trkpt lat="52.12121667" lon="-2.17596"><ele>34.000000</ele><time>2010-06-09T10:57:02Z</time></trkpt>
	<trkpt lat="52.12121833" lon="-2.175908333"><ele>34.000000</ele><time>2010-06-09T10:57:07Z</time></trkpt>
	<trkpt lat="52.12122" lon="-2.17584"><ele>34.000000</ele><time>2010-06-09T10:57:12Z</time></trkpt>
	<trkpt lat="52.121225" lon="-2.175785"><ele>34.000000</ele><time>2010-06-09T10:57:17Z</time></trkpt>
	<trkpt lat="52.121225" lon="-2.175745"><ele>34.000000</ele><time>2010-06-09T10:57:22Z</time></trkpt>
	<trkpt lat="52.121225" lon="-2.175711667"><ele>34.000000</ele><time>2010-06-09T10:57:27Z</time></trkpt>
	<trkpt lat="52.121225" lon="-2.175678333"><ele>33.000000</ele><time>2010-06-09T10:57:32Z</time></trkpt>
	<trkpt lat="52.12122667" lon="-2.175645"><ele>34.000000</ele><time>2010-06-09T10:57:37Z</time></trkpt>
	<trkpt lat="52.12122833" lon="-2.175625"><ele>34.000000</ele><time>2010-06-09T10:57:42Z</time></trkpt>
	<trkpt lat="52.12123" lon="-2.175586667"><ele>34.000000</ele><time>2010-06-09T10:57:47Z</time></trkpt>
	<trkpt lat="52.12123167" lon="-2.175541667"><ele>34.000000</ele><time>2010-06-09T10:57:52Z</time></trkpt>
	<trkpt lat="52.12123667" lon="-2.17549"><ele>34.000000</ele><time>2010-06-09T10:57:57Z</time></trkpt>
	<trkpt lat="52.12124333" lon="-2.175441667"><ele>34.000000</ele><time>2010-06-09T10:58:02Z</time></trkpt>
	<trkpt lat="52.12125" lon="-2.175395"><ele>33.000000</ele><time>2010-06-09T10:58:07Z</time></trkpt>
	<trkpt lat="52.12125167" lon="-2.175356667"><ele>33.000000</ele><time>2010-06-09T10:58:12Z</time></trkpt>
	<trkpt lat="52.121255" lon="-2.175321667"><ele>33.000000</ele><time>2010-06-09T10:58:17Z</time></trkpt>
	<trkpt lat="52.12125833" lon="-2.175273333"><ele>32.000000</ele><time>2010-06-09T10:58:22Z</time></trkpt>
	<trkpt lat="52.121265" lon="-2.175215"><ele>32.000000</ele><time>2010-06-09T10:58:27Z</time></trkpt>
	<trkpt lat="52.12127333" lon="-2.175151667"><ele>32.000000</ele><time>2010-06-09T10:58:32Z</time></trkpt>
	<trkpt lat="52.12127833" lon="-2.175101667"><ele>32.000000</ele><time>2010-06-09T10:58:37Z</time></trkpt>
	<trkpt lat="52.12128333" lon="-2.17508"><ele>32.000000</ele><time>2010-06-09T10:58:42Z</time></trkpt>
	<trkpt lat="52.12129167" lon="-2.175041667"><ele>32.000000</ele><time>2010-06-09T10:58:47Z</time></trkpt>
	<trkpt lat="52.12129667" lon="-2.175013333"><ele>32.000000</ele><time>2010-06-09T10:58:52Z</time></trkpt>
	<trkpt lat="52.121295" lon="-2.174958333"><ele>32.000000</ele><time>2010-06-09T10:58:57Z</time></trkpt>
	<trkpt lat="52.12129" lon="-2.174905"><ele>31.000000</ele><time>2010-06-09T10:59:02Z</time></trkpt>
	<trkpt lat="52.121285" lon="-2.174901667"><ele>31.000000</ele><time>2010-06-09T10:59:07Z</time></trkpt>
	<trkpt lat="52.121295" lon="-2.174868333"><ele>31.000000</ele><time>2010-06-09T10:59:12Z</time></trkpt>
	<trkpt lat="52.12132167" lon="-2.174833333"><ele>31.000000</ele><time>2010-06-09T10:59:17Z</time></trkpt>
	<trkpt lat="52.12133333" lon="-2.174785"><ele>31.000000</ele><time>2010-06-09T10:59:22Z</time></trkpt>
	<trkpt lat="52.12132" lon="-2.174736667"><ele>30.000000</ele><time>2010-06-09T10:59:27Z</time></trkpt>
	<trkpt lat="52.12130333" lon="-2.174685"><ele>30.000000</ele><time>2010-06-09T10:59:32Z</time></trkpt>
	<trkpt lat="52.12128833" lon="-2.17462"><ele>30.000000</ele><time>2010-06-09T10:59:37Z</time></trkpt>
	<trkpt lat="52.12126167" lon="-2.174543333"><ele>29.000000</ele><time>2010-06-09T10:59:42Z</time></trkpt>
	<trkpt lat="52.12124833" lon="-2.174453333"><ele>27.000000</ele><time>2010-06-09T10:59:47Z</time></trkpt>
	<trkpt lat="52.12123667" lon="-2.174373333"><ele>26.000000</ele><time>2010-06-09T10:59:52Z</time></trkpt>
	<trkpt lat="52.12123167" lon="-2.174333333"><ele>27.000000</ele><time>2010-06-09T10:59:57Z</time></trkpt>
	<trkpt lat="52.12123333" lon="-2.174316667"><ele>28.000000</ele><time>2010-06-09T11:00:02Z</time></trkpt>
	<trkpt lat="52.12122333" lon="-2.174298333"><ele>28.000000</ele><time>2010-06-09T11:00:07Z</time></trkpt>
	<trkpt lat="52.12122167" lon="-2.174291667"><ele>28.000000</ele><time>2010-06-09T11:00:12Z</time></trkpt>
	<trkpt lat="52.12120667" lon="-2.17426"><ele>28.000000</ele><time>2010-06-09T11:00:17Z</time></trkpt>
	<trkpt lat="52.12121" lon="-2.174206667"><ele>28.000000</ele><time>2010-06-09T11:00:22Z</time></trkpt>
	<trkpt lat="52.12121" lon="-2.174178333"><ele>28.000000</ele><time>2010-06-09T11:00:27Z</time></trkpt>
	<trkpt lat="52.12121" lon="-2.174093333"><ele>29.000000</ele><time>2010-06-09T11:00:32Z</time></trkpt>
	<trkpt lat="52.12120333" lon="-2.173986667"><ele>29.000000</ele><time>2010-06-09T11:00:37Z</time></trkpt>
	<trkpt lat="52.12118833" lon="-2.173881667"><ele>28.000000</ele><time>2010-06-09T11:00:42Z</time></trkpt>
	<trkpt lat="52.12118167" lon="-2.173766667"><ele>27.000000</ele><time>2010-06-09T11:00:47Z</time></trkpt>
	<trkpt lat="52.12117167" lon="-2.173661667"><ele>27.000000</ele><time>2010-06-09T11:00:52Z</time></trkpt>
	<trkpt lat="52.12116" lon="-2.173575"><ele>27.000000</ele><time>2010-06-09T11:00:57Z</time></trkpt>
	<trkpt lat="52.12114333" lon="-2.173505"><ele>28.000000</ele><time>2010-06-09T11:01:02Z</time></trkpt>
	<trkpt lat="52.12113667" lon="-2.173431667"><ele>30.000000</ele><time>2010-06-09T11:01:07Z</time></trkpt>
	<trkpt lat="52.12113167" lon="-2.173341667"><ele>30.000000</ele><time>2010-06-09T11:01:12Z</time></trkpt>
	<trkpt lat="52.12112167" lon="-2.17327"><ele>31.000000</ele><time>2010-06-09T11:01:17Z</time></trkpt>
	<trkpt lat="52.12110667" lon="-2.1732"><ele>31.000000</ele><time>2010-06-09T11:01:22Z</time></trkpt>
	<trkpt lat="52.12109833" lon="-2.173121667"><ele>31.000000</ele><time>2010-06-09T11:01:27Z</time></trkpt>
	<trkpt lat="52.12109167" lon="-2.173043333"><ele>31.000000</ele><time>2010-06-09T11:01:32Z</time></trkpt>
	<trkpt lat="52.12108333" lon="-2.17297"><ele>31.000000</ele><time>2010-06-09T11:01:37Z</time></trkpt>
	<trkpt lat="52.12107333" lon="-2.172895"><ele>30.000000</ele><time>2010-06-09T11:01:42Z</time></trkpt>
	<trkpt lat="52.12105667" lon="-2.17282"><ele>29.000000</ele><time>2010-06-09T11:01:47Z</time></trkpt>
	<trkpt lat="52.12103833" lon="-2.172746667"><ele>28.000000</ele><time>2010-06-09T11:01:52Z</time></trkpt>
	<trkpt lat="52.121045" lon="-2.172706667"><ele>27.000000</ele><time>2010-06-09T11:01:57Z</time></trkpt>
	<trkpt lat="52.12104333" lon="-2.172643333"><ele>27.000000</ele><time>2010-06-09T11:02:02Z</time></trkpt>
	<trkpt lat="52.12102833" lon="-2.172601667"><ele>29.000000</ele><time>2010-06-09T11:02:07Z</time></trkpt>
	<trkpt lat="52.121005" lon="-2.172566667"><ele>33.000000</ele><time>2010-06-09T11:02:12Z</time></trkpt>
	<trkpt lat="52.12099167" lon="-2.172501667"><ele>31.000000</ele><time>2010-06-09T11:02:17Z</time></trkpt>
	<trkpt lat="52.12099333" lon="-2.17245"><ele>30.000000</ele><time>2010-06-09T11:02:22Z</time></trkpt>
	<trkpt lat="52.12099" lon="-2.17239"><ele>31.000000</ele><time>2010-06-09T11:02:27Z</time></trkpt>
	<trkpt lat="52.12096667" lon="-2.172346667"><ele>33.000000</ele><time>2010-06-09T11:02:32Z</time></trkpt>
	<trkpt lat="52.12094667" lon="-2.172293333"><ele>35.000000</ele><time>2010-06-09T11:02:37Z</time></trkpt>
	<trkpt lat="52.12092833" lon="-2.172243333"><ele>33.000000</ele><time>2010-06-09T11:02:42Z</time></trkpt>
	<trkpt lat="52.12090833" lon="-2.172171667"><ele>32.000000</ele><time>2010-06-09T11:02:47Z</time></trkpt>
	<trkpt lat="52.120895" lon="-2.172106667"><ele>32.000000</ele><time>2010-06-09T11:02:52Z</time></trkpt>
	<trkpt lat="52.12088167" lon="-2.172048333"><ele>31.000000</ele><time>2010-06-09T11:02:57Z</time></trkpt>
	<trkpt lat="52.12087167" lon="-2.171995"><ele>31.000000</ele><time>2010-06-09T11:03:02Z</time></trkpt>
	<trkpt lat="52.120865" lon="-2.171945"><ele>31.000000</ele><time>2010-06-09T11:03:07Z</time></trkpt>
	<trkpt lat="52.12085833" lon="-2.171898333"><ele>32.000000</ele><time>2010-06-09T11:03:12Z</time></trkpt>
	<trkpt lat="52.12084833" lon="-2.171846667"><ele>32.000000</ele><time>2010-06-09T11:03:17Z</time></trkpt>
	<trkpt lat="52.12083833" lon="-2.171791667"><ele>32.000000</ele><time>2010-06-09T11:03:22Z</time></trkpt>
	<trkpt lat="52.12082833" lon="-2.171736667"><ele>31.000000</ele><time>2010-06-09T11:03:27Z</time></trkpt>
	<trkpt lat="52.12082167" lon="-2.171703333"><ele>30.000000</ele><time>2010-06-09T11:03:32Z</time></trkpt>
	<trkpt lat="52.12081167" lon="-2.171651667"><ele>30.000000</ele><time>2010-06-09T11:03:37Z</time></trkpt>
	<trkpt lat="52.12079833" lon="-2.171573333"><ele>29.000000</ele><time>2010-06-09T11:03:42Z</time></trkpt>
	<trkpt lat="52.12078667" lon="-2.171506667"><ele>29.000000</ele><time>2010-06-09T11:03:47Z</time></trkpt>
	<trkpt lat="52.120775" lon="-2.171451667"><ele>29.000000</ele><time>2010-06-09T11:03:52Z</time></trkpt>
	<trkpt lat="52.12076833" lon="-2.171403333"><ele>29.000000</ele><time>2010-06-09T11:03:57Z</time></trkpt>
	<trkpt lat="52.12076" lon="-2.171353333"><ele>29.000000</ele><time>2010-06-09T11:04:02Z</time></trkpt>
	<trkpt lat="52.12075333" lon="-2.171315"><ele>30.000000</ele><time>2010-06-09T11:04:07Z</time></trkpt>
	<trkpt lat="52.12075" lon="-2.17127"><ele>30.000000</ele><time>2010-06-09T11:04:12Z</time></trkpt>
	<trkpt lat="52.12074833" lon="-2.17127"><ele>30.000000</ele><time>2010-06-09T11:04:17Z</time></trkpt>
	<trkpt lat="52.12074167" lon="-2.171226667"><ele>30.000000</ele><time>2010-06-09T11:04:22Z</time></trkpt>
	<trkpt lat="52.12073167" lon="-2.171136667"><ele>30.000000</ele><time>2010-06-09T11:04:27Z</time></trkpt>
	<trkpt lat="52.12071667" lon="-2.171058333"><ele>32.000000</ele><time>2010-06-09T11:04:32Z</time></trkpt>
	<trkpt lat="52.12070667" lon="-2.170976667"><ele>33.000000</ele><time>2010-06-09T11:04:37Z</time></trkpt>
	<trkpt lat="52.12068833" lon="-2.170911667"><ele>31.000000</ele><time>2010-06-09T11:04:42Z</time></trkpt>
	<trkpt lat="52.12067" lon="-2.170881667"><ele>30.000000</ele><time>2010-06-09T11:04:47Z</time></trkpt>
	<trkpt lat="52.12065667" lon="-2.17083"><ele>31.000000</ele><time>2010-06-09T11:04:52Z</time></trkpt>
	<trkpt lat="52.12063167" lon="-2.170781667"><ele>31.000000</ele><time>2010-06-09T11:04:57Z</time></trkpt>
	<trkpt lat="52.12060833" lon="-2.17073"><ele>30.000000</ele><time>2010-06-09T11:05:02Z</time></trkpt>
	<trkpt lat="52.12058833" lon="-2.170673333"><ele>30.000000</ele><time>2010-06-09T11:05:07Z</time></trkpt>
	<trkpt lat="52.12057333" lon="-2.170611667"><ele>30.000000</ele><time>2010-06-09T11:05:12Z</time></trkpt>
	<trkpt lat="52.12055833" lon="-2.170541667"><ele>29.000000</ele><time>2010-06-09T11:05:17Z</time></trkpt>
	<trkpt lat="52.12055333" lon="-2.170485"><ele>29.000000</ele><time>2010-06-09T11:05:22Z</time></trkpt>
	<trkpt lat="52.12054333" lon="-2.170426667"><ele>29.000000</ele><time>2010-06-09T11:05:27Z</time></trkpt>
	<trkpt lat="52.12053333" lon="-2.170361667"><ele>29.000000</ele><time>2010-06-09T11:05:32Z</time></trkpt>
	<trkpt lat="52.12052167" lon="-2.1703"><ele>29.000000</ele><time>2010-06-09T11:05:37Z</time></trkpt>
	<trkpt lat="52.12051" lon="-2.170241667"><ele>29.000000</ele><time>2010-06-09T11:05:42Z</time></trkpt>
	<trkpt lat="52.12049833" lon="-2.17018"><ele>29.000000</ele><time>2010-06-09T11:05:47Z</time></trkpt>
	<trkpt lat="52.12049167" lon="-2.170126667"><ele>30.000000</ele><time>2010-06-09T11:05:52Z</time></trkpt>
	<trkpt lat="52.12048333" lon="-2.170066667"><ele>30.000000</ele><time>2010-06-09T11:05:57Z</time></trkpt>
	<trkpt lat="52.12047333" lon="-2.170005"><ele>31.000000</ele><time>2010-06-09T11:06:02Z</time></trkpt>
	<trkpt lat="52.12046333" lon="-2.169945"><ele>31.000000</ele><time>2010-06-09T11:06:07Z</time></trkpt>
	<trkpt lat="52.12045667" lon="-2.169881667"><ele>31.000000</ele><time>2010-06-09T11:06:12Z</time></trkpt>
	<trkpt lat="52.12044833" lon="-2.16983"><ele>31.000000</ele><time>2010-06-09T11:06:17Z</time></trkpt>
	<trkpt lat="52.12043833" lon="-2.169778333"><ele>32.000000</ele><time>2010-06-09T11:06:22Z</time></trkpt>
	<trkpt lat="52.120435" lon="-2.169725"><ele>33.000000</ele><time>2010-06-09T11:06:27Z</time></trkpt>
	<trkpt lat="52.12042333" lon="-2.169675"><ele>33.000000</ele><time>2010-06-09T11:06:32Z</time></trkpt>
	<trkpt lat="52.12041167" lon="-2.16962"><ele>33.000000</ele><time>2010-06-09T11:06:37Z</time></trkpt>
	<trkpt lat="52.12040167" lon="-2.169575"><ele>33.000000</ele><time>2010-06-09T11:06:42Z</time></trkpt>
	<trkpt lat="52.12039333" lon="-2.169531667"><ele>34.000000</ele><time>2010-06-09T11:06:47Z</time></trkpt>
	<trkpt lat="52.120385" lon="-2.169483333"><ele>34.000000</ele><time>2010-06-09T11:06:52Z</time></trkpt>
	<trkpt lat="52.12037667" lon="-2.169435"><ele>35.000000</ele><time>2010-06-09T11:06:57Z</time></trkpt>
	<trkpt lat="52.12036667" lon="-2.169383333"><ele>35.000000</ele><time>2010-06-09T11:07:02Z</time></trkpt>
	<trkpt lat="52.12035667" lon="-2.169331667"><ele>36.000000</ele><time>2010-06-09T11:07:07Z</time></trkpt>
	<trkpt lat="52.12034833" lon="-2.169285"><ele>36.000000</ele><time>2010-06-09T11:07:12Z</time></trkpt>
	<trkpt lat="52.12033333" lon="-2.169236667"><ele>36.000000</ele><time>2010-06-09T11:07:17Z</time></trkpt>
	<trkpt lat="52.12032833" lon="-2.16919"><ele>36.000000</ele><time>2010-06-09T11:07:22Z</time></trkpt>
	<trkpt lat="52.12032833" lon="-2.16914"><ele>36.000000</ele><time>2010-06-09T11:07:27Z</time></trkpt>
	<trkpt lat="52.12032833" lon="-2.169083333"><ele>37.000000</ele><time>2010-06-09T11:07:32Z</time></trkpt>
	<trkpt lat="52.12032833" lon="-2.169021667"><ele>37.000000</ele><time>2010-06-09T11:07:37Z</time></trkpt>
	<trkpt lat="52.12034667" lon="-2.168981667"><ele>38.000000</ele><time>2010-06-09T11:07:42Z</time></trkpt>
	<trkpt lat="52.12035333" lon="-2.16897"><ele>38.000000</ele><time>2010-06-09T11:07:47Z</time></trkpt>
	<trkpt lat="52.12036667" lon="-2.168926667"><ele>38.000000</ele><time>2010-06-09T11:07:52Z</time></trkpt>
	<trkpt lat="52.12036" lon="-2.168886667"><ele>39.000000</ele><time>2010-06-09T11:07:57Z</time></trkpt>
	<trkpt lat="52.12034833" lon="-2.168896667"><ele>38.000000</ele><time>2010-06-09T11:08:02Z</time></trkpt>
	<trkpt lat="52.120345" lon="-2.168885"><ele>39.000000</ele><time>2010-06-09T11:08:07Z</time></trkpt>
	<trkpt lat="52.12036667" lon="-2.168841667"><ele>37.000000</ele><time>2010-06-09T11:08:12Z</time></trkpt>
	<trkpt lat="52.12037167" lon="-2.16882"><ele>35.000000</ele><time>2010-06-09T11:08:17Z</time></trkpt>
	<trkpt lat="52.12036333" lon="-2.16879"><ele>36.000000</ele><time>2010-06-09T11:08:22Z</time></trkpt>
	<trkpt lat="52.12034" lon="-2.168803333"><ele>39.000000</ele><time>2010-06-09T11:08:27Z</time></trkpt>
	<trkpt lat="52.12031" lon="-2.1688"><ele>42.000000</ele><time>2010-06-09T11:08:32Z</time></trkpt>
	<trkpt lat="52.12028333" lon="-2.1688"><ele>43.000000</ele><time>2010-06-09T11:08:37Z</time></trkpt>
	<trkpt lat="52.12025333" lon="-2.168846667"><ele>42.000000</ele><time>2010-06-09T11:08:42Z</time></trkpt>
	<trkpt lat="52.12025" lon="-2.168866667"><ele>41.000000</ele><time>2010-06-09T11:08:47Z</time></trkpt>
	<trkpt lat="52.12023" lon="-2.16892"><ele>41.000000</ele><time>2010-06-09T11:08:52Z</time></trkpt>
	<trkpt lat="52.12019333" lon="-2.168945"><ele>39.000000</ele><time>2010-06-09T11:08:57Z</time></trkpt>
	<trkpt lat="52.12018667" lon="-2.168943333"><ele>38.000000</ele><time>2010-06-09T11:09:02Z</time></trkpt>
	<trkpt lat="52.120185" lon="-2.168941667"><ele>38.000000</ele><time>2010-06-09T11:09:07Z</time></trkpt>
	<trkpt lat="52.120185" lon="-2.168936667"><ele>37.000000</ele><time>2010-06-09T11:09:12Z</time></trkpt>
	<trkpt lat="52.12017" lon="-2.168941667"><ele>36.000000</ele><time>2010-06-09T11:09:17Z</time></trkpt>
	<trkpt lat="52.12015167" lon="-2.168948333"><ele>35.000000</ele><time>2010-06-09T11:09:22Z</time></trkpt>
	<trkpt lat="52.12009667" lon="-2.16897"><ele>35.000000</ele><time>2010-06-09T11:09:27Z</time></trkpt>
	<trkpt lat="52.12004" lon="-2.168988333"><ele>35.000000</ele><time>2010-06-09T11:09:32Z</time></trkpt>
	<trkpt lat="52.11999333" lon="-2.168978333"><ele>35.000000</ele><time>2010-06-09T11:09:37Z</time></trkpt>
	<trkpt lat="52.11995167" lon="-2.168976667"><ele>36.000000</ele><time>2010-06-09T11:09:42Z</time></trkpt>
	<trkpt lat="52.11994167" lon="-2.168975"><ele>35.000000</ele><time>2010-06-09T11:09:47Z</time></trkpt>
	<trkpt lat="52.11992167" lon="-2.16897"><ele>35.000000</ele><time>2010-06-09T11:09:52Z</time></trkpt>
	<trkpt lat="52.11989833" lon="-2.168963333"><ele>35.000000</ele><time>2010-06-09T11:09:57Z</time></trkpt>
	<trkpt lat="52.119895" lon="-2.168966667"><ele>35.000000</ele><time>2010-06-09T11:10:02Z</time></trkpt>
	<trkpt lat="52.11987667" lon="-2.168968333"><ele>34.000000</ele><time>2010-06-09T11:10:07Z</time></trkpt>
	<trkpt lat="52.119865" lon="-2.168965"><ele>33.000000</ele><time>2010-06-09T11:10:12Z</time></trkpt>
	<trkpt lat="52.11985167" lon="-2.168958333"><ele>33.000000</ele><time>2010-06-09T11:10:17Z</time></trkpt>
	<trkpt lat="52.11985333" lon="-2.168971667"><ele>35.000000</ele><time>2010-06-09T11:10:22Z</time></trkpt>
	<trkpt lat="52.11985833" lon="-2.168963333"><ele>34.000000</ele><time>2010-06-09T11:10:27Z</time></trkpt>
	<trkpt lat="52.11986167" lon="-2.168956667"><ele>34.000000</ele><time>2010-06-09T11:10:32Z</time></trkpt>
	<trkpt lat="52.11986" lon="-2.168931667"><ele>36.000000</ele><time>2010-06-09T11:10:37Z</time></trkpt>
	<trkpt lat="52.11983833" lon="-2.168946667"><ele>38.000000</ele><time>2010-06-09T11:10:42Z</time></trkpt>
	<trkpt lat="52.11982833" lon="-2.168963333"><ele>37.000000</ele><time>2010-06-09T11:10:47Z</time></trkpt>
	<trkpt lat="52.11983167" lon="-2.168966667"><ele>37.000000</ele><time>2010-06-09T11:10:52Z</time></trkpt>
	<trkpt lat="52.11983167" lon="-2.168946667"><ele>40.000000</ele><time>2010-06-09T11:10:57Z</time></trkpt>
	<trkpt lat="52.11981333" lon="-2.168893333"><ele>39.000000</ele><time>2010-06-09T11:11:02Z</time></trkpt>
	<trkpt lat="52.11981" lon="-2.168821667"><ele>42.000000</ele><time>2010-06-09T11:11:07Z</time></trkpt>
	<trkpt lat="52.11980167" lon="-2.168755"><ele>44.000000</ele><time>2010-06-09T11:11:12Z</time></trkpt>
	<trkpt lat="52.11980667" lon="-2.16871"><ele>47.000000</ele><time>2010-06-09T11:11:17Z</time></trkpt>
	<trkpt lat="52.11978667" lon="-2.168673333"><ele>49.000000</ele><time>2010-06-09T11:11:22Z</time></trkpt>
	<trkpt lat="52.119795" lon="-2.168645"><ele>51.000000</ele><time>2010-06-09T11:11:27Z</time></trkpt>
	<trkpt lat="52.119805" lon="-2.168606667"><ele>49.000000</ele><time>2010-06-09T11:11:32Z</time></trkpt>
	<trkpt lat="52.11979167" lon="-2.168595"><ele>52.000000</ele><time>2010-06-09T11:11:37Z</time></trkpt>
	<trkpt lat="52.11978167" lon="-2.168545"><ele>52.000000</ele><time>2010-06-09T11:11:42Z</time></trkpt>
	<trkpt lat="52.11973167" lon="-2.168501667"><ele>46.000000</ele><time>2010-06-09T11:11:47Z</time></trkpt>
	<trkpt lat="52.11966667" lon="-2.16848"><ele>43.000000</ele><time>2010-06-09T11:11:52Z</time></trkpt>
	<trkpt lat="52.11962" lon="-2.168528333"><ele>40.000000</ele><time>2010-06-09T11:11:57Z</time></trkpt>
	<trkpt lat="52.11959667" lon="-2.168563333"><ele>40.000000</ele><time>2010-06-09T11:12:02Z</time></trkpt>
	<trkpt lat="52.11959667" lon="-2.16858"><ele>35.000000</ele><time>2010-06-09T11:12:07Z</time></trkpt>
	<trkpt lat="52.11958" lon="-2.168635"><ele>36.000000</ele><time>2010-06-09T11:12:12Z</time></trkpt>
	<trkpt lat="52.11956167" lon="-2.168688333"><ele>38.000000</ele><time>2010-06-09T11:12:17Z</time></trkpt>
	<trkpt lat="52.119575" lon="-2.1687"><ele>41.000000</ele><time>2010-06-09T11:12:22Z</time></trkpt>
	<trkpt lat="52.11955333" lon="-2.168723333"><ele>43.000000</ele><time>2010-06-09T11:12:27Z</time></trkpt>
	<trkpt lat="52.11957333" lon="-2.168708333"><ele>43.000000</ele><time>2010-06-09T11:12:32Z</time></trkpt>
	<trkpt lat="52.11958" lon="-2.168721667"><ele>43.000000</ele><time>2010-06-09T11:12:37Z</time></trkpt>
	<trkpt lat="52.11957667" lon="-2.168758333"><ele>46.000000</ele><time>2010-06-09T11:12:42Z</time></trkpt>
	<trkpt lat="52.11958167" lon="-2.1688"><ele>48.000000</ele><time>2010-06-09T11:12:47Z</time></trkpt>
	<trkpt lat="52.11959833" lon="-2.168801667"><ele>52.000000</ele><time>2010-06-09T11:12:52Z</time></trkpt>
	<trkpt lat="52.11959833" lon="-2.168823333"><ele>52.000000</ele><time>2010-06-09T11:12:57Z</time></trkpt>
	<trkpt lat="52.11958667" lon="-2.168856667"><ele>48.000000</ele><time>2010-06-09T11:13:02Z</time></trkpt>
	<trkpt lat="52.11958333" lon="-2.168898333"><ele>47.000000</ele><time>2010-06-09T11:13:07Z</time></trkpt>
	<trkpt lat="52.11963" lon="-2.16892"><ele>46.000000</ele><time>2010-06-09T11:13:12Z</time></trkpt>
	<trkpt lat="52.11968667" lon="-2.16893"><ele>45.000000</ele><time>2010-06-09T11:13:17Z</time></trkpt>
	<trkpt lat="52.11972667" lon="-2.168941667"><ele>46.000000</ele><time>2010-06-09T11:13:22Z</time></trkpt>
	<trkpt lat="52.11974167" lon="-2.168941667"><ele>47.000000</ele><time>2010-06-09T11:13:27Z</time></trkpt>
	<trkpt lat="52.11975333" lon="-2.16895"><ele>48.000000</ele><time>2010-06-09T11:13:32Z</time></trkpt>
	<trkpt lat="52.11976" lon="-2.168956667"><ele>48.000000</ele><time>2010-06-09T11:13:37Z</time></trkpt>
	<trkpt lat="52.119765" lon="-2.168951667"><ele>49.000000</ele><time>2010-06-09T11:13:42Z</time></trkpt>
	<trkpt lat="52.11976833" lon="-2.168946667"><ele>50.000000</ele><time>2010-06-09T11:13:47Z</time></trkpt>
	<trkpt lat="52.11977" lon="-2.168956667"><ele>49.000000</ele><time>2010-06-09T11:13:52Z</time></trkpt>
	<trkpt lat="52.11977667" lon="-2.168955"><ele>48.000000</ele><time>2010-06-09T11:13:57Z</time></trkpt>
	<trkpt lat="52.11977" lon="-2.168943333"><ele>46.000000</ele><time>2010-06-09T11:14:02Z</time></trkpt>
	<trkpt lat="52.11975667" lon="-2.168916667"><ele>48.000000</ele><time>2010-06-09T11:14:07Z</time></trkpt>
	<trkpt lat="52.11973833" lon="-2.168893333"><ele>46.000000</ele><time>2010-06-09T11:14:12Z</time></trkpt>
	<trkpt lat="52.11974167" lon="-2.16889"><ele>44.000000</ele><time>2010-06-09T11:14:17Z</time></trkpt>
	<trkpt lat="52.11971167" lon="-2.168913333"><ele>43.000000</ele><time>2010-06-09T11:14:22Z</time></trkpt>
	<trkpt lat="52.11967333" lon="-2.16892"><ele>41.000000</ele><time>2010-06-09T11:14:27Z</time></trkpt>
	<trkpt lat="52.11965" lon="-2.168933333"><ele>41.000000</ele><time>2010-06-09T11:14:32Z</time></trkpt>
	<trkpt lat="52.11965167" lon="-2.16901"><ele>41.000000</ele><time>2010-06-09T11:14:37Z</time></trkpt>
	<trkpt lat="52.11966333" lon="-2.16908"><ele>43.000000</ele><time>2010-06-09T11:14:42Z</time></trkpt>
	<trkpt lat="52.119665" lon="-2.169123333"><ele>43.000000</ele><time>2010-06-09T11:14:47Z</time></trkpt>
	<trkpt lat="52.119675" lon="-2.169155"><ele>40.000000</ele><time>2010-06-09T11:14:52Z</time></trkpt>
	<trkpt lat="52.11966333" lon="-2.169163333"><ele>39.000000</ele><time>2010-06-09T11:14:57Z</time></trkpt>
	<trkpt lat="52.119625" lon="-2.169221667"><ele>37.000000</ele><time>2010-06-09T11:15:02Z</time></trkpt>
	<trkpt lat="52.119565" lon="-2.169243333"><ele>34.000000</ele><time>2010-06-09T11:15:07Z</time></trkpt>
	<trkpt lat="52.119515" lon="-2.169253333"><ele>34.000000</ele><time>2010-06-09T11:15:12Z</time></trkpt>
	<trkpt lat="52.11946667" lon="-2.169278333"><ele>34.000000</ele><time>2010-06-09T11:15:17Z</time></trkpt>
	<trkpt lat="52.11943167" lon="-2.1693"><ele>37.000000</ele><time>2010-06-09T11:15:22Z</time></trkpt>
	<trkpt lat="52.11937833" lon="-2.169313333"><ele>37.000000</ele><time>2010-06-09T11:15:27Z</time></trkpt>
	<trkpt lat="52.11933" lon="-2.169308333"><ele>37.000000</ele><time>2010-06-09T11:15:32Z</time></trkpt>
	<trkpt lat="52.11931333" lon="-2.169318333"><ele>37.000000</ele><time>2010-06-09T11:15:37Z</time></trkpt>
	<trkpt lat="52.119285" lon="-2.169321667"><ele>38.000000</ele><time>2010-06-09T11:15:42Z</time></trkpt>
	<trkpt lat="52.11924" lon="-2.16932"><ele>41.000000</ele><time>2010-06-09T11:15:47Z</time></trkpt>
	<trkpt lat="52.11919167" lon="-2.169306667"><ele>40.000000</ele><time>2010-06-09T11:15:52Z</time></trkpt>
	<trkpt lat="52.11914333" lon="-2.169286667"><ele>39.000000</ele><time>2010-06-09T11:15:57Z</time></trkpt>
	<trkpt lat="52.11915167" lon="-2.169275"><ele>38.000000</ele><time>2010-06-09T11:16:02Z</time></trkpt>
	<trkpt lat="52.11915333" lon="-2.169265"><ele>36.000000</ele><time>2010-06-09T11:16:07Z</time></trkpt>
	<trkpt lat="52.11915167" lon="-2.169255"><ele>34.000000</ele><time>2010-06-09T11:16:12Z</time></trkpt>
	<trkpt lat="52.11915167" lon="-2.169243333"><ele>32.000000</ele><time>2010-06-09T11:16:17Z</time></trkpt>
	<trkpt lat="52.11914833" lon="-2.16924"><ele>31.000000</ele><time>2010-06-09T11:16:22Z</time></trkpt>
	<trkpt lat="52.11914667" lon="-2.169233333"><ele>30.000000</ele><time>2010-06-09T11:16:27Z</time></trkpt>
	<trkpt lat="52.11914333" lon="-2.169228333"><ele>29.000000</ele><time>2010-06-09T11:16:32Z</time></trkpt>
	<trkpt lat="52.119135" lon="-2.169236667"><ele>30.000000</ele><time>2010-06-09T11:16:37Z</time></trkpt>
	<trkpt lat="52.11908833" lon="-2.169233333"><ele>30.000000</ele><time>2010-06-09T11:16:42Z</time></trkpt>
	<trkpt lat="52.11904333" lon="-2.169231667"><ele>31.000000</ele><time>2010-06-09T11:16:47Z</time></trkpt>
	<trkpt lat="52.11899167" lon="-2.169243333"><ele>32.000000</ele><time>2010-06-09T11:16:52Z</time></trkpt>
	<trkpt lat="52.11893667" lon="-2.169246667"><ele>31.000000</ele><time>2010-06-09T11:16:57Z</time></trkpt>
	<trkpt lat="52.118885" lon="-2.169253333"><ele>31.000000</ele><time>2010-06-09T11:17:02Z</time></trkpt>
	<trkpt lat="52.11882" lon="-2.169261667"><ele>30.000000</ele><time>2010-06-09T11:17:07Z</time></trkpt>
	<trkpt lat="52.11877167" lon="-2.169265"><ele>29.000000</ele><time>2010-06-09T11:17:12Z</time></trkpt>
	<trkpt lat="52.11872333" lon="-2.169273333"><ele>29.000000</ele><time>2010-06-09T11:17:17Z</time></trkpt>
	<trkpt lat="52.11868833" lon="-2.169281667"><ele>29.000000</ele><time>2010-06-09T11:17:22Z</time></trkpt>
	<trkpt lat="52.11863167" lon="-2.169291667"><ele>29.000000</ele><time>2010-06-09T11:17:27Z</time></trkpt>
	<trkpt lat="52.11858333" lon="-2.169295"><ele>28.000000</ele><time>2010-06-09T11:17:32Z</time></trkpt>
	<trkpt lat="52.11853833" lon="-2.169305"><ele>29.000000</ele><time>2010-06-09T11:17:37Z</time></trkpt>
	<trkpt lat="52.11849667" lon="-2.169305"><ele>29.000000</ele><time>2010-06-09T11:17:42Z</time></trkpt>
	<trkpt lat="52.11845" lon="-2.169305"><ele>28.000000</ele><time>2010-06-09T11:17:47Z</time></trkpt>
	<trkpt lat="52.11841167" lon="-2.169303333"><ele>29.000000</ele><time>2010-06-09T11:17:52Z</time></trkpt>
	<trkpt lat="52.11836833" lon="-2.169298333"><ele>30.000000</ele><time>2010-06-09T11:17:57Z</time></trkpt>
	<trkpt lat="52.11832833" lon="-2.169288333"><ele>30.000000</ele><time>2010-06-09T11:18:02Z</time></trkpt>
	<trkpt lat="52.11827833" lon="-2.169278333"><ele>30.000000</ele><time>2010-06-09T11:18:07Z</time></trkpt>
	<trkpt lat="52.11822667" lon="-2.16926"><ele>29.000000</ele><time>2010-06-09T11:18:12Z</time></trkpt>
	<trkpt lat="52.11817833" lon="-2.169243333"><ele>28.000000</ele><time>2010-06-09T11:18:17Z</time></trkpt>
	<trkpt lat="52.11812667" lon="-2.169233333"><ele>28.000000</ele><time>2010-06-09T11:18:22Z</time></trkpt>
	<trkpt lat="52.11809667" lon="-2.169225"><ele>29.000000</ele><time>2010-06-09T11:18:27Z</time></trkpt>
	<trkpt lat="52.11805333" lon="-2.169206667"><ele>29.000000</ele><time>2010-06-09T11:18:32Z</time></trkpt>
	<trkpt lat="52.11800667" lon="-2.169191667"><ele>31.000000</ele><time>2010-06-09T11:18:37Z</time></trkpt>
	<trkpt lat="52.11795833" lon="-2.16918"><ele>32.000000</ele><time>2010-06-09T11:18:42Z</time></trkpt>
	<trkpt lat="52.11791167" lon="-2.169158333"><ele>32.000000</ele><time>2010-06-09T11:18:47Z</time></trkpt>
	<trkpt lat="52.117865" lon="-2.169143333"><ele>32.000000</ele><time>2010-06-09T11:18:52Z</time></trkpt>
	<trkpt lat="52.11781833" lon="-2.169126667"><ele>32.000000</ele><time>2010-06-09T11:18:57Z</time></trkpt>
	<trkpt lat="52.11777333" lon="-2.169113333"><ele>32.000000</ele><time>2010-06-09T11:19:02Z</time></trkpt>
	<trkpt lat="52.11776167" lon="-2.169103333"><ele>34.000000</ele><time>2010-06-09T11:19:07Z</time></trkpt>
	<trkpt lat="52.11776667" lon="-2.169113333"><ele>35.000000</ele><time>2010-06-09T11:19:12Z</time></trkpt>
	<trkpt lat="52.11776667" lon="-2.169108333"><ele>34.000000</ele><time>2010-06-09T11:19:17Z</time></trkpt>
	<trkpt lat="52.117755" lon="-2.169105"><ele>34.000000</ele><time>2010-06-09T11:19:22Z</time></trkpt>
	<trkpt lat="52.11770333" lon="-2.169083333"><ele>33.000000</ele><time>2010-06-09T11:19:27Z</time></trkpt>
	<trkpt lat="52.11765833" lon="-2.169066667"><ele>33.000000</ele><time>2010-06-09T11:19:32Z</time></trkpt>
	<trkpt lat="52.11761333" lon="-2.169056667"><ele>33.000000</ele><time>2010-06-09T11:19:37Z</time></trkpt>
	<trkpt lat="52.117565" lon="-2.169046667"><ele>33.000000</ele><time>2010-06-09T11:19:42Z</time></trkpt>
	<trkpt lat="52.117515" lon="-2.169038333"><ele>33.000000</ele><time>2010-06-09T11:19:47Z</time></trkpt>
	<trkpt lat="52.11747" lon="-2.169028333"><ele>33.000000</ele><time>2010-06-09T11:19:52Z</time></trkpt>
	<trkpt lat="52.117425" lon="-2.169021667"><ele>34.000000</ele><time>2010-06-09T11:19:57Z</time></trkpt>
	<trkpt lat="52.11738667" lon="-2.169018333"><ele>34.000000</ele><time>2010-06-09T11:20:02Z</time></trkpt>
	<trkpt lat="52.11734167" lon="-2.169011667"><ele>35.000000</ele><time>2010-06-09T11:20:07Z</time></trkpt>
	<trkpt lat="52.11729667" lon="-2.169008333"><ele>34.000000</ele><time>2010-06-09T11:20:12Z</time></trkpt>
	<trkpt lat="52.11725333" lon="-2.169006667"><ele>34.000000</ele><time>2010-06-09T11:20:17Z</time></trkpt>
	<trkpt lat="52.11720667" lon="-2.169006667"><ele>34.000000</ele><time>2010-06-09T11:20:22Z</time></trkpt>
	<trkpt lat="52.11716167" lon="-2.169003333"><ele>33.000000</ele><time>2010-06-09T11:20:27Z</time></trkpt>
	<trkpt lat="52.11711833" lon="-2.169"><ele>32.000000</ele><time>2010-06-09T11:20:32Z</time></trkpt>
	<trkpt lat="52.11706833" lon="-2.169008333"><ele>32.000000</ele><time>2010-06-09T11:20:37Z</time></trkpt>
	<trkpt lat="52.117015" lon="-2.169016667"><ele>31.000000</ele><time>2010-06-09T11:20:42Z</time></trkpt>
	<trkpt lat="52.11696833" lon="-2.169025"><ele>31.000000</ele><time>2010-06-09T11:20:47Z</time></trkpt>
	<trkpt lat="52.11692333" lon="-2.169033333"><ele>30.000000</ele><time>2010-06-09T11:20:52Z</time></trkpt>
	<trkpt lat="52.116875" lon="-2.16905"><ele>31.000000</ele><time>2010-06-09T11:20:57Z</time></trkpt>
	<trkpt lat="52.11683" lon="-2.169061667"><ele>31.000000</ele><time>2010-06-09T11:21:02Z</time></trkpt>
	<trkpt lat="52.11678167" lon="-2.169081667"><ele>31.000000</ele><time>2010-06-09T11:21:07Z</time></trkpt>
	<trkpt lat="52.11673333" lon="-2.1691"><ele>31.000000</ele><time>2010-06-09T11:21:12Z</time></trkpt>
	<trkpt lat="52.11668333" lon="-2.169116667"><ele>31.000000</ele><time>2010-06-09T11:21:17Z</time></trkpt>
	<trkpt lat="52.11663667" lon="-2.169133333"><ele>31.000000</ele><time>2010-06-09T11:21:22Z</time></trkpt>
	<trkpt lat="52.11659" lon="-2.169145"><ele>32.000000</ele><time>2010-06-09T11:21:27Z</time></trkpt>
	<trkpt lat="52.116545" lon="-2.169158333"><ele>32.000000</ele><time>2010-06-09T11:21:32Z</time></trkpt>
	<trkpt lat="52.11649667" lon="-2.169168333"><ele>32.000000</ele><time>2010-06-09T11:21:37Z</time></trkpt>
	<trkpt lat="52.11645167" lon="-2.16918"><ele>32.000000</ele><time>2010-06-09T11:21:42Z</time></trkpt>
	<trkpt lat="52.11640333" lon="-2.16919"><ele>32.000000</ele><time>2010-06-09T11:21:47Z</time></trkpt>
	<trkpt lat="52.11635167" lon="-2.169198333"><ele>31.000000</ele><time>2010-06-09T11:21:52Z</time></trkpt>
	<trkpt lat="52.11629667" lon="-2.16922"><ele>30.000000</ele><time>2010-06-09T11:21:57Z</time></trkpt>
	<trkpt lat="52.11624167" lon="-2.169235"><ele>30.000000</ele><time>2010-06-09T11:22:02Z</time></trkpt>
	<trkpt lat="52.116195" lon="-2.169253333"><ele>30.000000</ele><time>2010-06-09T11:22:07Z</time></trkpt>
	<trkpt lat="52.11614667" lon="-2.169263333"><ele>30.000000</ele><time>2010-06-09T11:22:12Z</time></trkpt>
	<trkpt lat="52.11609667" lon="-2.16928"><ele>30.000000</ele><time>2010-06-09T11:22:17Z</time></trkpt>
	<trkpt lat="52.11604667" lon="-2.16929"><ele>30.000000</ele><time>2010-06-09T11:22:22Z</time></trkpt>
	<trkpt lat="52.11599833" lon="-2.1693"><ele>30.000000</ele><time>2010-06-09T11:22:27Z</time></trkpt>
	<trkpt lat="52.11595167" lon="-2.169308333"><ele>31.000000</ele><time>2010-06-09T11:22:32Z</time></trkpt>
	<trkpt lat="52.115905" lon="-2.169308333"><ele>32.000000</ele><time>2010-06-09T11:22:37Z</time></trkpt>
	<trkpt lat="52.11586" lon="-2.16932"><ele>32.000000</ele><time>2010-06-09T11:22:42Z</time></trkpt>
	<trkpt lat="52.11580833" lon="-2.169333333"><ele>32.000000</ele><time>2010-06-09T11:22:47Z</time></trkpt>
	<trkpt lat="52.11575833" lon="-2.16934"><ele>31.000000</ele><time>2010-06-09T11:22:52Z</time></trkpt>
	<trkpt lat="52.115705" lon="-2.16935"><ele>31.000000</ele><time>2010-06-09T11:22:57Z</time></trkpt>
	<trkpt lat="52.115655" lon="-2.16936"><ele>31.000000</ele><time>2010-06-09T11:23:02Z</time></trkpt>
	<trkpt lat="52.115605" lon="-2.169363333"><ele>31.000000</ele><time>2010-06-09T11:23:07Z</time></trkpt>
	<trkpt lat="52.11556" lon="-2.169366667"><ele>32.000000</ele><time>2010-06-09T11:23:12Z</time></trkpt>
	<trkpt lat="52.115515" lon="-2.169368333"><ele>33.000000</ele><time>2010-06-09T11:23:17Z</time></trkpt>
	<trkpt lat="52.11547" lon="-2.169356667"><ele>33.000000</ele><time>2010-06-09T11:23:22Z</time></trkpt>
	<trkpt lat="52.11542333" lon="-2.169341667"><ele>33.000000</ele><time>2010-06-09T11:23:27Z</time></trkpt>
	<trkpt lat="52.115375" lon="-2.169325"><ele>34.000000</ele><time>2010-06-09T11:23:32Z</time></trkpt>
	<trkpt lat="52.11532" lon="-2.169301667"><ele>35.000000</ele><time>2010-06-09T11:23:37Z</time></trkpt>
	<trkpt lat="52.115275" lon="-2.169273333"><ele>36.000000</ele><time>2010-06-09T11:23:42Z</time></trkpt>
	<trkpt lat="52.11523" lon="-2.169228333"><ele>36.000000</ele><time>2010-06-09T11:23:47Z</time></trkpt>
	<trkpt lat="52.115185" lon="-2.169176667"><ele>35.000000</ele><time>2010-06-09T11:23:52Z</time></trkpt>
	<trkpt lat="52.115145" lon="-2.169121667"><ele>34.000000</ele><time>2010-06-09T11:23:57Z</time></trkpt>
	<trkpt lat="52.11510833" lon="-2.169063333"><ele>33.000000</ele><time>2010-06-09T11:24:02Z</time></trkpt>
	<trkpt lat="52.11507333" lon="-2.169001667"><ele>33.000000</ele><time>2010-06-09T11:24:07Z</time></trkpt>
	<trkpt lat="52.11503" lon="-2.168956667"><ele>32.000000</ele><time>2010-06-09T11:24:12Z</time></trkpt>
	<trkpt lat="52.11499167" lon="-2.168921667"><ele>32.000000</ele><time>2010-06-09T11:24:17Z</time></trkpt>
	<trkpt lat="52.114955" lon="-2.168903333"><ele>33.000000</ele><time>2010-06-09T11:24:22Z</time></trkpt>
	<trkpt lat="52.11491833" lon="-2.16888"><ele>33.000000</ele><time>2010-06-09T11:24:27Z</time></trkpt>
	<trkpt lat="52.114885" lon="-2.168863333"><ele>34.000000</ele><time>2010-06-09T11:24:32Z</time></trkpt>
	<trkpt lat="52.11487833" lon="-2.16886"><ele>36.000000</ele><time>2010-06-09T11:24:37Z</time></trkpt>
	<trkpt lat="52.11483667" lon="-2.168833333"><ele>37.000000</ele><time>2010-06-09T11:24:42Z</time></trkpt>
	<trkpt lat="52.11479167" lon="-2.16881"><ele>38.000000</ele><time>2010-06-09T11:24:47Z</time></trkpt>
	<trkpt lat="52.11475333" lon="-2.168786667"><ele>38.000000</ele><time>2010-06-09T11:24:52Z</time></trkpt>
	<trkpt lat="52.11470833" lon="-2.168771667"><ele>38.000000</ele><time>2010-06-09T11:24:57Z</time></trkpt>
	<trkpt lat="52.11466167" lon="-2.168755"><ele>38.000000</ele><time>2010-06-09T11:25:02Z</time></trkpt>
	<trkpt lat="52.11461333" lon="-2.16874"><ele>37.000000</ele><time>2010-06-09T11:25:07Z</time></trkpt>
	<trkpt lat="52.11456333" lon="-2.16872"><ele>37.000000</ele><time>2010-06-09T11:25:12Z</time></trkpt>
	<trkpt lat="52.11451167" lon="-2.1687"><ele>36.000000</ele><time>2010-06-09T11:25:17Z</time></trkpt>
	<trkpt lat="52.11446667" lon="-2.16868"><ele>35.000000</ele><time>2010-06-09T11:25:22Z</time></trkpt>
	<trkpt lat="52.11441833" lon="-2.16866"><ele>34.000000</ele><time>2010-06-09T11:25:27Z</time></trkpt>
	<trkpt lat="52.11437333" lon="-2.16864"><ele>34.000000</ele><time>2010-06-09T11:25:32Z</time></trkpt>
	<trkpt lat="52.11433" lon="-2.168626667"><ele>34.000000</ele><time>2010-06-09T11:25:37Z</time></trkpt>
	<trkpt lat="52.11428833" lon="-2.168616667"><ele>35.000000</ele><time>2010-06-09T11:25:42Z</time></trkpt>
	<trkpt lat="52.11424833" lon="-2.168598333"><ele>35.000000</ele><time>2010-06-09T11:25:47Z</time></trkpt>
	<trkpt lat="52.11420333" lon="-2.168588333"><ele>35.000000</ele><time>2010-06-09T11:25:52Z</time></trkpt>
	<trkpt lat="52.114155" lon="-2.168578333"><ele>35.000000</ele><time>2010-06-09T11:25:57Z</time></trkpt>
	<trkpt lat="52.11410333" lon="-2.168568333"><ele>35.000000</ele><time>2010-06-09T11:26:02Z</time></trkpt>
	<trkpt lat="52.114055" lon="-2.168553333"><ele>34.000000</ele><time>2010-06-09T11:26:07Z</time></trkpt>
	<trkpt lat="52.114015" lon="-2.168548333"><ele>34.000000</ele><time>2010-06-09T11:26:12Z</time></trkpt>
	<trkpt lat="52.11398833" lon="-2.168536667"><ele>34.000000</ele><time>2010-06-09T11:26:17Z</time></trkpt>
	<trkpt lat="52.11393667" lon="-2.16853"><ele>34.000000</ele><time>2010-06-09T11:26:22Z</time></trkpt>
	<trkpt lat="52.11389167" lon="-2.168518333"><ele>34.000000</ele><time>2010-06-09T11:26:27Z</time></trkpt>
	<trkpt lat="52.11384167" lon="-2.168508333"><ele>34.000000</ele><time>2010-06-09T11:26:32Z</time></trkpt>
	<trkpt lat="52.11379167" lon="-2.1685"><ele>34.000000</ele><time>2010-06-09T11:26:37Z</time></trkpt>
	<trkpt lat="52.11374667" lon="-2.168493333"><ele>34.000000</ele><time>2010-06-09T11:26:42Z</time></trkpt>
	<trkpt lat="52.113705" lon="-2.16849"><ele>35.000000</ele><time>2010-06-09T11:26:47Z</time></trkpt>
	<trkpt lat="52.11365667" lon="-2.16848"><ele>36.000000</ele><time>2010-06-09T11:26:52Z</time></trkpt>
	<trkpt lat="52.11361667" lon="-2.16847"><ele>36.000000</ele><time>2010-06-09T11:26:57Z</time></trkpt>
	<trkpt lat="52.11357" lon="-2.168456667"><ele>36.000000</ele><time>2010-06-09T11:27:02Z</time></trkpt>
	<trkpt lat="52.11351667" lon="-2.16844"><ele>36.000000</ele><time>2010-06-09T11:27:07Z</time></trkpt>
	<trkpt lat="52.11347333" lon="-2.168428333"><ele>38.000000</ele><time>2010-06-09T11:27:12Z</time></trkpt>
	<trkpt lat="52.11342833" lon="-2.168406667"><ele>39.000000</ele><time>2010-06-09T11:27:17Z</time></trkpt>
	<trkpt lat="52.11337167" lon="-2.168383333"><ele>39.000000</ele><time>2010-06-09T11:27:22Z</time></trkpt>
	<trkpt lat="52.11332167" lon="-2.168356667"><ele>39.000000</ele><time>2010-06-09T11:27:27Z</time></trkpt>
	<trkpt lat="52.11327833" lon="-2.168335"><ele>41.000000</ele><time>2010-06-09T11:27:32Z</time></trkpt>
	<trkpt lat="52.11323333" lon="-2.1683"><ele>41.000000</ele><time>2010-06-09T11:27:37Z</time></trkpt>
	<trkpt lat="52.11318167" lon="-2.168263333"><ele>40.000000</ele><time>2010-06-09T11:27:42Z</time></trkpt>
	<trkpt lat="52.11313167" lon="-2.168223333"><ele>39.000000</ele><time>2010-06-09T11:27:47Z</time></trkpt>
	<trkpt lat="52.11309167" lon="-2.168183333"><ele>38.000000</ele><time>2010-06-09T11:27:52Z</time></trkpt>
	<trkpt lat="52.11304833" lon="-2.168148333"><ele>37.000000</ele><time>2010-06-09T11:27:57Z</time></trkpt>
	<trkpt lat="52.11300333" lon="-2.16811"><ele>36.000000</ele><time>2010-06-09T11:28:02Z</time></trkpt>
	<trkpt lat="52.11298833" lon="-2.168088333"><ele>39.000000</ele><time>2010-06-09T11:28:07Z</time></trkpt>
	<trkpt lat="52.11295333" lon="-2.16805"><ele>39.000000</ele><time>2010-06-09T11:28:12Z</time></trkpt>
	<trkpt lat="52.11290833" lon="-2.168023333"><ele>39.000000</ele><time>2010-06-09T11:28:17Z</time></trkpt>
	<trkpt lat="52.11285667" lon="-2.167993333"><ele>40.000000</ele><time>2010-06-09T11:28:22Z</time></trkpt>
	<trkpt lat="52.11280667" lon="-2.167956667"><ele>40.000000</ele><time>2010-06-09T11:28:27Z</time></trkpt>
	<trkpt lat="52.11275667" lon="-2.167916667"><ele>40.000000</ele><time>2010-06-09T11:28:32Z</time></trkpt>
	<trkpt lat="52.11271" lon="-2.167875"><ele>40.000000</ele><time>2010-06-09T11:28:37Z</time></trkpt>
	<trkpt lat="52.11265833" lon="-2.16783"><ele>39.000000</ele><time>2010-06-09T11:28:42Z</time></trkpt>
	<trkpt lat="52.11261333" lon="-2.167795"><ele>38.000000</ele><time>2010-06-09T11:28:47Z</time></trkpt>
	<trkpt lat="52.11258167" lon="-2.167753333"><ele>37.000000</ele><time>2010-06-09T11:28:52Z</time></trkpt>
	<trkpt lat="52.11254" lon="-2.167708333"><ele>37.000000</ele><time>2010-06-09T11:28:57Z</time></trkpt>
	<trkpt lat="52.11249833" lon="-2.16767"><ele>36.000000</ele><time>2010-06-09T11:29:02Z</time></trkpt>
	<trkpt lat="52.11245833" lon="-2.167628333"><ele>35.000000</ele><time>2010-06-09T11:29:07Z</time></trkpt>
	<trkpt lat="52.11241833" lon="-2.167588333"><ele>36.000000</ele><time>2010-06-09T11:29:12Z</time></trkpt>
	<trkpt lat="52.112375" lon="-2.16755"><ele>36.000000</ele><time>2010-06-09T11:29:17Z</time></trkpt>
	<trkpt lat="52.11233667" lon="-2.167511667"><ele>36.000000</ele><time>2010-06-09T11:29:22Z</time></trkpt>
	<trkpt lat="52.11229167" lon="-2.167466667"><ele>36.000000</ele><time>2010-06-09T11:29:27Z</time></trkpt>
	<trkpt lat="52.11224667" lon="-2.167426667"><ele>36.000000</ele><time>2010-06-09T11:29:32Z</time></trkpt>
	<trkpt lat="52.11220167" lon="-2.16739"><ele>36.000000</ele><time>2010-06-09T11:29:37Z</time></trkpt>
	<trkpt lat="52.11215667" lon="-2.167353333"><ele>36.000000</ele><time>2010-06-09T11:29:42Z</time></trkpt>
	<trkpt lat="52.11211333" lon="-2.167315"><ele>36.000000</ele><time>2010-06-09T11:29:47Z</time></trkpt>
	<trkpt lat="52.112065" lon="-2.167278333"><ele>35.000000</ele><time>2010-06-09T11:29:52Z</time></trkpt>
	<trkpt lat="52.11202333" lon="-2.167241667"><ele>35.000000</ele><time>2010-06-09T11:29:57Z</time></trkpt>
	<trkpt lat="52.111985" lon="-2.167208333"><ele>35.000000</ele><time>2010-06-09T11:30:02Z</time></trkpt>
	<trkpt lat="52.111955" lon="-2.167173333"><ele>35.000000</ele><time>2010-06-09T11:30:07Z</time></trkpt>
	<trkpt lat="52.11191833" lon="-2.167145"><ele>38.000000</ele><time>2010-06-09T11:30:12Z</time></trkpt>
	<trkpt lat="52.11186667" lon="-2.167115"><ele>38.000000</ele><time>2010-06-09T11:30:17Z</time></trkpt>
	<trkpt lat="52.11182333" lon="-2.167085"><ele>38.000000</ele><time>2010-06-09T11:30:22Z</time></trkpt>
	<trkpt lat="52.11177333" lon="-2.167051667"><ele>36.000000</ele><time>2010-06-09T11:30:27Z</time></trkpt>
	<trkpt lat="52.11172833" lon="-2.16702"><ele>35.000000</ele><time>2010-06-09T11:30:32Z</time></trkpt>
	<trkpt lat="52.11169167" lon="-2.167"><ele>36.000000</ele><time>2010-06-09T11:30:37Z</time></trkpt>
	<trkpt lat="52.11165333" lon="-2.166978333"><ele>36.000000</ele><time>2010-06-09T11:30:42Z</time></trkpt>
	<trkpt lat="52.11160333" lon="-2.166951667"><ele>36.000000</ele><time>2010-06-09T11:30:47Z</time></trkpt>
	<trkpt lat="52.111555" lon="-2.166931667"><ele>35.000000</ele><time>2010-06-09T11:30:52Z</time></trkpt>
	<trkpt lat="52.11151167" lon="-2.166908333"><ele>34.000000</ele><time>2010-06-09T11:30:57Z</time></trkpt>
	<trkpt lat="52.11145333" lon="-2.166888333"><ele>34.000000</ele><time>2010-06-09T11:31:02Z</time></trkpt>
	<trkpt lat="52.11140833" lon="-2.166875"><ele>33.000000</ele><time>2010-06-09T11:31:07Z</time></trkpt>
	<trkpt lat="52.11136" lon="-2.16687"><ele>33.000000</ele><time>2010-06-09T11:31:12Z</time></trkpt>
	<trkpt lat="52.11131833" lon="-2.166861667"><ele>33.000000</ele><time>2010-06-09T11:31:17Z</time></trkpt>
	<trkpt lat="52.11127667" lon="-2.166845"><ele>32.000000</ele><time>2010-06-09T11:31:22Z</time></trkpt>
	<trkpt lat="52.11123833" lon="-2.166826667"><ele>32.000000</ele><time>2010-06-09T11:31:27Z</time></trkpt>
	<trkpt lat="52.11119" lon="-2.166805"><ele>31.000000</ele><time>2010-06-09T11:31:32Z</time></trkpt>
	<trkpt lat="52.11114833" lon="-2.166788333"><ele>30.000000</ele><time>2010-06-09T11:31:37Z</time></trkpt>
	<trkpt lat="52.11110667" lon="-2.166768333"><ele>31.000000</ele><time>2010-06-09T11:31:42Z</time></trkpt>
	<trkpt lat="52.11106167" lon="-2.166748333"><ele>32.000000</ele><time>2010-06-09T11:31:47Z</time></trkpt>
	<trkpt lat="52.111015" lon="-2.16673"><ele>32.000000</ele><time>2010-06-09T11:31:52Z</time></trkpt>
	<trkpt lat="52.11097" lon="-2.166716667"><ele>33.000000</ele><time>2010-06-09T11:31:57Z</time></trkpt>
	<trkpt lat="52.11096667" lon="-2.166716667"><ele>34.000000</ele><time>2010-06-09T11:32:02Z</time></trkpt>
	<trkpt lat="52.11097167" lon="-2.16671"><ele>36.000000</ele><time>2010-06-09T11:32:07Z</time></trkpt>
	<trkpt lat="52.11092833" lon="-2.166686667"><ele>34.000000</ele><time>2010-06-09T11:32:12Z</time></trkpt>
	<trkpt lat="52.11087833" lon="-2.166675"><ele>34.000000</ele><time>2010-06-09T11:32:17Z</time></trkpt>
	<trkpt lat="52.11081833" lon="-2.16666"><ele>34.000000</ele><time>2010-06-09T11:32:22Z</time></trkpt>
	<trkpt lat="52.11076" lon="-2.16664"><ele>33.000000</ele><time>2010-06-09T11:32:27Z</time></trkpt>
	<trkpt lat="52.11070333" lon="-2.166625"><ele>33.000000</ele><time>2010-06-09T11:32:32Z</time></trkpt>
	<trkpt lat="52.11066667" lon="-2.166626667"><ele>34.000000</ele><time>2010-06-09T11:32:37Z</time></trkpt>
	<trkpt lat="52.11068167" lon="-2.166608333"><ele>34.000000</ele><time>2010-06-09T11:32:42Z</time></trkpt>
	<trkpt lat="52.11065833" lon="-2.166575"><ele>34.000000</ele><time>2010-06-09T11:32:47Z</time></trkpt>
	<trkpt lat="52.110605" lon="-2.166551667"><ele>33.000000</ele><time>2010-06-09T11:32:52Z</time></trkpt>
	<trkpt lat="52.110555" lon="-2.166521667"><ele>33.000000</ele><time>2010-06-09T11:32:57Z</time></trkpt>
	<trkpt lat="52.11050667" lon="-2.166493333"><ele>33.000000</ele><time>2010-06-09T11:33:02Z</time></trkpt>
	<trkpt lat="52.110465" lon="-2.166461667"><ele>33.000000</ele><time>2010-06-09T11:33:07Z</time></trkpt>
	<trkpt lat="52.11042333" lon="-2.166428333"><ele>33.000000</ele><time>2010-06-09T11:33:12Z</time></trkpt>
	<trkpt lat="52.11038167" lon="-2.166395"><ele>33.000000</ele><time>2010-06-09T11:33:17Z</time></trkpt>
	<trkpt lat="52.11034167" lon="-2.166368333"><ele>33.000000</ele><time>2010-06-09T11:33:22Z</time></trkpt>
	<trkpt lat="52.11029833" lon="-2.166341667"><ele>34.000000</ele><time>2010-06-09T11:33:27Z</time></trkpt>
	<trkpt lat="52.11026167" lon="-2.16633"><ele>35.000000</ele><time>2010-06-09T11:33:32Z</time></trkpt>
	<trkpt lat="52.11021167" lon="-2.166316667"><ele>35.000000</ele><time>2010-06-09T11:33:37Z</time></trkpt>
	<trkpt lat="52.11016333" lon="-2.166306667"><ele>35.000000</ele><time>2010-06-09T11:33:42Z</time></trkpt>
	<trkpt lat="52.11011167" lon="-2.166305"><ele>35.000000</ele><time>2010-06-09T11:33:47Z</time></trkpt>
	<trkpt lat="52.11005833" lon="-2.166301667"><ele>34.000000</ele><time>2010-06-09T11:33:52Z</time></trkpt>
	<trkpt lat="52.11001167" lon="-2.166298333"><ele>34.000000</ele><time>2010-06-09T11:33:57Z</time></trkpt>
	<trkpt lat="52.109965" lon="-2.166273333"><ele>34.000000</ele><time>2010-06-09T11:34:02Z</time></trkpt>
	<trkpt lat="52.10992167" lon="-2.16624"><ele>34.000000</ele><time>2010-06-09T11:34:07Z</time></trkpt>
	<trkpt lat="52.10988" lon="-2.166195"><ele>34.000000</ele><time>2010-06-09T11:34:12Z</time></trkpt>
	<trkpt lat="52.10983667" lon="-2.166148333"><ele>35.000000</ele><time>2010-06-09T11:34:17Z</time></trkpt>
	<trkpt lat="52.10979667" lon="-2.166088333"><ele>35.000000</ele><time>2010-06-09T11:34:22Z</time></trkpt>
	<trkpt lat="52.10976167" lon="-2.166023333"><ele>34.000000</ele><time>2010-06-09T11:34:27Z</time></trkpt>
	<trkpt lat="52.10972833" lon="-2.16596"><ele>33.000000</ele><time>2010-06-09T11:34:32Z</time></trkpt>
	<trkpt lat="52.10969333" lon="-2.1659"><ele>33.000000</ele><time>2010-06-09T11:34:37Z</time></trkpt>
	<trkpt lat="52.109655" lon="-2.16584"><ele>33.000000</ele><time>2010-06-09T11:34:42Z</time></trkpt>
	<trkpt lat="52.109615" lon="-2.165786667"><ele>32.000000</ele><time>2010-06-09T11:34:47Z</time></trkpt>
	<trkpt lat="52.10957667" lon="-2.165738333"><ele>32.000000</ele><time>2010-06-09T11:34:52Z</time></trkpt>
	<trkpt lat="52.10955" lon="-2.165708333"><ele>33.000000</ele><time>2010-06-09T11:34:57Z</time></trkpt>
	<trkpt lat="52.10951333" lon="-2.16567"><ele>33.000000</ele><time>2010-06-09T11:35:02Z</time></trkpt>
	<trkpt lat="52.10947167" lon="-2.165635"><ele>33.000000</ele><time>2010-06-09T11:35:07Z</time></trkpt>
	<trkpt lat="52.10943" lon="-2.165603333"><ele>32.000000</ele><time>2010-06-09T11:35:12Z</time></trkpt>
	<trkpt lat="52.10940833" lon="-2.165596667"><ele>31.000000</ele><time>2010-06-09T11:35:17Z</time></trkpt>
	<trkpt lat="52.10940833" lon="-2.165591667"><ele>31.000000</ele><time>2010-06-09T11:35:22Z</time></trkpt>
	<trkpt lat="52.1094" lon="-2.165583333"><ele>31.000000</ele><time>2010-06-09T11:35:27Z</time></trkpt>
	<trkpt lat="52.10936833" lon="-2.165553333"><ele>30.000000</ele><time>2010-06-09T11:35:32Z</time></trkpt>
	<trkpt lat="52.109325" lon="-2.165528333"><ele>30.000000</ele><time>2010-06-09T11:35:37Z</time></trkpt>
	<trkpt lat="52.10928333" lon="-2.165505"><ele>30.000000</ele><time>2010-06-09T11:35:42Z</time></trkpt>
	<trkpt lat="52.10923833" lon="-2.165485"><ele>30.000000</ele><time>2010-06-09T11:35:47Z</time></trkpt>
	<trkpt lat="52.109195" lon="-2.165465"><ele>30.000000</ele><time>2010-06-09T11:35:52Z</time></trkpt>
	<trkpt lat="52.10915" lon="-2.165445"><ele>30.000000</ele><time>2010-06-09T11:35:57Z</time></trkpt>
	<trkpt lat="52.109105" lon="-2.165433333"><ele>30.000000</ele><time>2010-06-09T11:36:02Z</time></trkpt>
	<trkpt lat="52.10906" lon="-2.165418333"><ele>29.000000</ele><time>2010-06-09T11:36:07Z</time></trkpt>
	<trkpt lat="52.109025" lon="-2.165398333"><ele>29.000000</ele><time>2010-06-09T11:36:12Z</time></trkpt>
	<trkpt lat="52.10898333" lon="-2.165383333"><ele>28.000000</ele><time>2010-06-09T11:36:17Z</time></trkpt>
	<trkpt lat="52.10894167" lon="-2.165378333"><ele>28.000000</ele><time>2010-06-09T11:36:22Z</time></trkpt>
	<trkpt lat="52.10890333" lon="-2.165363333"><ele>25.000000</ele><time>2010-06-09T11:36:27Z</time></trkpt>
	<trkpt lat="52.10887167" lon="-2.16535"><ele>27.000000</ele><time>2010-06-09T11:36:32Z</time></trkpt>
	<trkpt lat="52.10883333" lon="-2.165353333"><ele>26.000000</ele><time>2010-06-09T11:36:37Z</time></trkpt>
	<trkpt lat="52.108795" lon="-2.16536"><ele>27.000000</ele><time>2010-06-09T11:36:42Z</time></trkpt>
	<trkpt lat="52.10876667" lon="-2.165351667"><ele>27.000000</ele><time>2010-06-09T11:36:47Z</time></trkpt>
	<trkpt lat="52.10873667" lon="-2.165365"><ele>26.000000</ele><time>2010-06-09T11:36:52Z</time></trkpt>
	<trkpt lat="52.10869667" lon="-2.165373333"><ele>25.000000</ele><time>2010-06-09T11:36:57Z</time></trkpt>
	<trkpt lat="52.10868333" lon="-2.165376667"><ele>23.000000</ele><time>2010-06-09T11:37:02Z</time></trkpt>
	<trkpt lat="52.10866833" lon="-2.165403333"><ele>27.000000</ele><time>2010-06-09T11:37:07Z</time></trkpt>
	<trkpt lat="52.10865333" lon="-2.165406667"><ele>31.000000</ele><time>2010-06-09T11:37:12Z</time></trkpt>
	<trkpt lat="52.10861167" lon="-2.165406667"><ele>29.000000</ele><time>2010-06-09T11:37:17Z</time></trkpt>
	<trkpt lat="52.108575" lon="-2.1654"><ele>28.000000</ele><time>2010-06-09T11:37:22Z</time></trkpt>
	<trkpt lat="52.10854167" lon="-2.165393333"><ele>29.000000</ele><time>2010-06-09T11:37:27Z</time></trkpt>
	<trkpt lat="52.10850833" lon="-2.165393333"><ele>29.000000</ele><time>2010-06-09T11:37:32Z</time></trkpt>
	<trkpt lat="52.10848167" lon="-2.165396667"><ele>30.000000</ele><time>2010-06-09T11:37:37Z</time></trkpt>
	<trkpt lat="52.10844333" lon="-2.165398333"><ele>31.000000</ele><time>2010-06-09T11:37:42Z</time></trkpt>
	<trkpt lat="52.108415" lon="-2.165403333"><ele>31.000000</ele><time>2010-06-09T11:37:47Z</time></trkpt>
	<trkpt lat="52.10838667" lon="-2.165393333"><ele>32.000000</ele><time>2010-06-09T11:37:52Z</time></trkpt>
	<trkpt lat="52.10834833" lon="-2.165406667"><ele>33.000000</ele><time>2010-06-09T11:37:57Z</time></trkpt>
	<trkpt lat="52.10829833" lon="-2.16541"><ele>32.000000</ele><time>2010-06-09T11:38:02Z</time></trkpt>
	<trkpt lat="52.10824667" lon="-2.1654"><ele>33.000000</ele><time>2010-06-09T11:38:07Z</time></trkpt>
	<trkpt lat="52.10820167" lon="-2.165405"><ele>32.000000</ele><time>2010-06-09T11:38:12Z</time></trkpt>
	<trkpt lat="52.10815333" lon="-2.165393333"><ele>31.000000</ele><time>2010-06-09T11:38:17Z</time></trkpt>
	<trkpt lat="52.10811" lon="-2.165391667"><ele>30.000000</ele><time>2010-06-09T11:38:22Z</time></trkpt>
	<trkpt lat="52.10807167" lon="-2.1654"><ele>29.000000</ele><time>2010-06-09T11:38:27Z</time></trkpt>
	<trkpt lat="52.10802833" lon="-2.165401667"><ele>28.000000</ele><time>2010-06-09T11:38:32Z</time></trkpt>
	<trkpt lat="52.10799333" lon="-2.1654"><ele>31.000000</ele><time>2010-06-09T11:38:37Z</time></trkpt>
	<trkpt lat="52.10794667" lon="-2.165408333"><ele>31.000000</ele><time>2010-06-09T11:38:42Z</time></trkpt>
	<trkpt lat="52.10790833" lon="-2.165396667"><ele>31.000000</ele><time>2010-06-09T11:38:47Z</time></trkpt>
	<trkpt lat="52.10786333" lon="-2.165396667"><ele>30.000000</ele><time>2010-06-09T11:38:52Z</time></trkpt>
	<trkpt lat="52.10780833" lon="-2.165395"><ele>31.000000</ele><time>2010-06-09T11:38:57Z</time></trkpt>
	<trkpt lat="52.10776333" lon="-2.165385"><ele>30.000000</ele><time>2010-06-09T11:39:02Z</time></trkpt>
	<trkpt lat="52.107715" lon="-2.165386667"><ele>30.000000</ele><time>2010-06-09T11:39:07Z</time></trkpt>
	<trkpt lat="52.10767167" lon="-2.165391667"><ele>30.000000</ele><time>2010-06-09T11:39:12Z</time></trkpt>
	<trkpt lat="52.10762833" lon="-2.165386667"><ele>30.000000</ele><time>2010-06-09T11:39:17Z</time></trkpt>
	<trkpt lat="52.10758167" lon="-2.16538"><ele>30.000000</ele><time>2010-06-09T11:39:22Z</time></trkpt>
	<trkpt lat="52.10753" lon="-2.165366667"><ele>29.000000</ele><time>2010-06-09T11:39:27Z</time></trkpt>
	<trkpt lat="52.10748" lon="-2.165353333"><ele>27.000000</ele><time>2010-06-09T11:39:32Z</time></trkpt>
	<trkpt lat="52.10742833" lon="-2.165345"><ele>27.000000</ele><time>2010-06-09T11:39:37Z</time></trkpt>
	<trkpt lat="52.10738" lon="-2.165336667"><ele>27.000000</ele><time>2010-06-09T11:39:42Z</time></trkpt>
	<trkpt lat="52.10734" lon="-2.165308333"><ele>28.000000</ele><time>2010-06-09T11:39:47Z</time></trkpt>
	<trkpt lat="52.10730667" lon="-2.165275"><ele>30.000000</ele><time>2010-06-09T11:39:52Z</time></trkpt>
	<trkpt lat="52.107265" lon="-2.165283333"><ele>31.000000</ele><time>2010-06-09T11:39:57Z</time></trkpt>
	<trkpt lat="52.10722167" lon="-2.165285"><ele>31.000000</ele><time>2010-06-09T11:40:02Z</time></trkpt>
	<trkpt lat="52.10718167" lon="-2.165278333"><ele>30.000000</ele><time>2010-06-09T11:40:07Z</time></trkpt>
	<trkpt lat="52.10716" lon="-2.165273333"><ele>31.000000</ele><time>2010-06-09T11:40:12Z</time></trkpt>
	<trkpt lat="52.10712" lon="-2.165265"><ele>31.000000</ele><time>2010-06-09T11:40:17Z</time></trkpt>
	<trkpt lat="52.10708" lon="-2.165241667"><ele>32.000000</ele><time>2010-06-09T11:40:22Z</time></trkpt>
	<trkpt lat="52.10704" lon="-2.165236667"><ele>31.000000</ele><time>2010-06-09T11:40:27Z</time></trkpt>
	<trkpt lat="52.107" lon="-2.165228333"><ele>31.000000</ele><time>2010-06-09T11:40:32Z</time></trkpt>
	<trkpt lat="52.10695667" lon="-2.165213333"><ele>31.000000</ele><time>2010-06-09T11:40:37Z</time></trkpt>
	<trkpt lat="52.10691667" lon="-2.165201667"><ele>31.000000</ele><time>2010-06-09T11:40:42Z</time></trkpt>
	<trkpt lat="52.10687" lon="-2.165191667"><ele>30.000000</ele><time>2010-06-09T11:40:47Z</time></trkpt>
	<trkpt lat="52.10683" lon="-2.165196667"><ele>30.000000</ele><time>2010-06-09T11:40:52Z</time></trkpt>
	<trkpt lat="52.106825" lon="-2.165193333"><ele>29.000000</ele><time>2010-06-09T11:40:57Z</time></trkpt>
	<trkpt lat="52.10678167" lon="-2.165183333"><ele>29.000000</ele><time>2010-06-09T11:41:02Z</time></trkpt>
	<trkpt lat="52.10673833" lon="-2.165166667"><ele>30.000000</ele><time>2010-06-09T11:41:07Z</time></trkpt>
	<trkpt lat="52.10669833" lon="-2.165156667"><ele>31.000000</ele><time>2010-06-09T11:41:12Z</time></trkpt>
	<trkpt lat="52.10666833" lon="-2.165123333"><ele>28.000000</ele><time>2010-06-09T11:41:17Z</time></trkpt>
	<trkpt lat="52.10667333" lon="-2.16512"><ele>36.000000</ele><time>2010-06-09T11:41:22Z</time></trkpt>
	<trkpt lat="52.10665167" lon="-2.165111667"><ele>33.000000</ele><time>2010-06-09T11:41:27Z</time></trkpt>
	<trkpt lat="52.10663333" lon="-2.165058333"><ele>28.000000</ele><time>2010-06-09T11:41:32Z</time></trkpt>
	<trkpt lat="52.10660667" lon="-2.165073333"><ele>28.000000</ele><time>2010-06-09T11:41:37Z</time></trkpt>
	<trkpt lat="52.10657333" lon="-2.165061667"><ele>27.000000</ele><time>2010-06-09T11:41:42Z</time></trkpt>
	<trkpt lat="52.10655333" lon="-2.165043333"><ele>26.000000</ele><time>2010-06-09T11:41:47Z</time></trkpt>
	<trkpt lat="52.10656" lon="-2.165068333"><ele>30.000000</ele><time>2010-06-09T11:41:52Z</time></trkpt>
	<trkpt lat="52.10652167" lon="-2.165068333"><ele>31.000000</ele><time>2010-06-09T11:41:57Z</time></trkpt>
	<trkpt lat="52.10647" lon="-2.165063333"><ele>35.000000</ele><time>2010-06-09T11:42:02Z</time></trkpt>
	<trkpt lat="52.10641667" lon="-2.165065"><ele>34.000000</ele><time>2010-06-09T11:42:07Z</time></trkpt>
	<trkpt lat="52.10638833" lon="-2.165063333"><ele>37.000000</ele><time>2010-06-09T11:42:12Z</time></trkpt>
	<trkpt lat="52.10634833" lon="-2.165026667"><ele>36.000000</ele><time>2010-06-09T11:42:17Z</time></trkpt>
	<trkpt lat="52.106305" lon="-2.164995"><ele>35.000000</ele><time>2010-06-09T11:42:22Z</time></trkpt>
	<trkpt lat="52.10627167" lon="-2.164963333"><ele>32.000000</ele><time>2010-06-09T11:42:27Z</time></trkpt>
	<trkpt lat="52.10623" lon="-2.16495"><ele>32.000000</ele><time>2010-06-09T11:42:32Z</time></trkpt>
	<trkpt lat="52.10619167" lon="-2.164918333"><ele>33.000000</ele><time>2010-06-09T11:42:37Z</time></trkpt>
	<trkpt lat="52.10614" lon="-2.164895"><ele>32.000000</ele><time>2010-06-09T11:42:42Z</time></trkpt>
	<trkpt lat="52.10610667" lon="-2.164873333"><ele>31.000000</ele><time>2010-06-09T11:42:47Z</time></trkpt>
	<trkpt lat="52.106055" lon="-2.164848333"><ele>32.000000</ele><time>2010-06-09T11:42:52Z</time></trkpt>
	<trkpt lat="52.10600167" lon="-2.164831667"><ele>34.000000</ele><time>2010-06-09T11:42:57Z</time></trkpt>
	<trkpt lat="52.10595333" lon="-2.164813333"><ele>35.000000</ele><time>2010-06-09T11:43:02Z</time></trkpt>
	<trkpt lat="52.105915" lon="-2.16479"><ele>36.000000</ele><time>2010-06-09T11:43:07Z</time></trkpt>
	<trkpt lat="52.10588833" lon="-2.16477"><ele>36.000000</ele><time>2010-06-09T11:43:12Z</time></trkpt>
	<trkpt lat="52.10585" lon="-2.164741667"><ele>34.000000</ele><time>2010-06-09T11:43:17Z</time></trkpt>
	<trkpt lat="52.10580667" lon="-2.164715"><ele>34.000000</ele><time>2010-06-09T11:43:22Z</time></trkpt>
	<trkpt lat="52.10577667" lon="-2.164688333"><ele>33.000000</ele><time>2010-06-09T11:43:27Z</time></trkpt>
	<trkpt lat="52.10575" lon="-2.164665"><ele>34.000000</ele><time>2010-06-09T11:43:32Z</time></trkpt>
	<trkpt lat="52.105715" lon="-2.16465"><ele>33.000000</ele><time>2010-06-09T11:43:37Z</time></trkpt>
	<trkpt lat="52.10568" lon="-2.164636667"><ele>33.000000</ele><time>2010-06-09T11:43:42Z</time></trkpt>
	<trkpt lat="52.10563833" lon="-2.164621667"><ele>32.000000</ele><time>2010-06-09T11:43:47Z</time></trkpt>
	<trkpt lat="52.10559833" lon="-2.164608333"><ele>32.000000</ele><time>2010-06-09T11:43:52Z</time></trkpt>
	<trkpt lat="52.10557" lon="-2.164588333"><ele>33.000000</ele><time>2010-06-09T11:43:57Z</time></trkpt>
	<trkpt lat="52.10553" lon="-2.164583333"><ele>33.000000</ele><time>2010-06-09T11:44:02Z</time></trkpt>
	<trkpt lat="52.10552333" lon="-2.164586667"><ele>34.000000</ele><time>2010-06-09T11:44:07Z</time></trkpt>
	<trkpt lat="52.10551333" lon="-2.16459"><ele>35.000000</ele><time>2010-06-09T11:44:12Z</time></trkpt>
	<trkpt lat="52.1055" lon="-2.164578333"><ele>35.000000</ele><time>2010-06-09T11:44:17Z</time></trkpt>
	<trkpt lat="52.10547" lon="-2.164575"><ele>35.000000</ele><time>2010-06-09T11:44:22Z</time></trkpt>
	<trkpt lat="52.10544833" lon="-2.164563333"><ele>40.000000</ele><time>2010-06-09T11:44:27Z</time></trkpt>
	<trkpt lat="52.10542167" lon="-2.164615"><ele>42.000000</ele><time>2010-06-09T11:44:32Z</time></trkpt>
	<trkpt lat="52.10540833" lon="-2.164685"><ele>41.000000</ele><time>2010-06-09T11:44:37Z</time></trkpt>
	<trkpt lat="52.10539833" lon="-2.164763333"><ele>41.000000</ele><time>2010-06-09T11:44:42Z</time></trkpt>
	<trkpt lat="52.10538167" lon="-2.164833333"><ele>40.000000</ele><time>2010-06-09T11:44:47Z</time></trkpt>
	<trkpt lat="52.10536833" lon="-2.164903333"><ele>39.000000</ele><time>2010-06-09T11:44:52Z</time></trkpt>
	<trkpt lat="52.105365" lon="-2.164955"><ele>38.000000</ele><time>2010-06-09T11:44:57Z</time></trkpt>
	<trkpt lat="52.10534667" lon="-2.165011667"><ele>36.000000</ele><time>2010-06-09T11:45:02Z</time></trkpt>
	<trkpt lat="52.10533" lon="-2.165075"><ele>36.000000</ele><time>2010-06-09T11:45:07Z</time></trkpt>
	<trkpt lat="52.10531667" lon="-2.165141667"><ele>35.000000</ele><time>2010-06-09T11:45:12Z</time></trkpt>
	<trkpt lat="52.1053" lon="-2.16521"><ele>35.000000</ele><time>2010-06-09T11:45:17Z</time></trkpt>
	<trkpt lat="52.105275" lon="-2.165271667"><ele>34.000000</ele><time>2010-06-09T11:45:22Z</time></trkpt>
	<trkpt lat="52.10523833" lon="-2.165303333"><ele>34.000000</ele><time>2010-06-09T11:45:27Z</time></trkpt>
	<trkpt lat="52.1052" lon="-2.165323333"><ele>33.000000</ele><time>2010-06-09T11:45:32Z</time></trkpt>
	<trkpt lat="52.10515833" lon="-2.165348333"><ele>33.000000</ele><time>2010-06-09T11:45:37Z</time></trkpt>
	<trkpt lat="52.10511833" lon="-2.165373333"><ele>33.000000</ele><time>2010-06-09T11:45:42Z</time></trkpt>
	<trkpt lat="52.10507833" lon="-2.165381667"><ele>33.000000</ele><time>2010-06-09T11:45:47Z</time></trkpt>
	<trkpt lat="52.105035" lon="-2.165371667"><ele>33.000000</ele><time>2010-06-09T11:45:52Z</time></trkpt>
	<trkpt lat="52.10499333" lon="-2.165366667"><ele>32.000000</ele><time>2010-06-09T11:45:57Z</time></trkpt>
	<trkpt lat="52.104955" lon="-2.16535"><ele>33.000000</ele><time>2010-06-09T11:46:02Z</time></trkpt>
	<trkpt lat="52.10492167" lon="-2.165338333"><ele>34.000000</ele><time>2010-06-09T11:46:07Z</time></trkpt>
	<trkpt lat="52.10489167" lon="-2.165341667"><ele>35.000000</ele><time>2010-06-09T11:46:12Z</time></trkpt>
	<trkpt lat="52.10485833" lon="-2.165348333"><ele>36.000000</ele><time>2010-06-09T11:46:17Z</time></trkpt>
	<trkpt lat="52.10482" lon="-2.165401667"><ele>35.000000</ele><time>2010-06-09T11:46:22Z</time></trkpt>
	<trkpt lat="52.10480167" lon="-2.165413333"><ele>35.000000</ele><time>2010-06-09T11:46:27Z</time></trkpt>
	<trkpt lat="52.10479833" lon="-2.165416667"><ele>35.000000</ele><time>2010-06-09T11:46:32Z</time></trkpt>
	<trkpt lat="52.10480667" lon="-2.165421667"><ele>35.000000</ele><time>2010-06-09T11:46:37Z</time></trkpt>
	<trkpt lat="52.10481" lon="-2.165433333"><ele>35.000000</ele><time>2010-06-09T11:46:42Z</time></trkpt>
	<trkpt lat="52.10480667" lon="-2.165431667"><ele>35.000000</ele><time>2010-06-09T11:46:47Z</time></trkpt>
	<trkpt lat="52.10480167" lon="-2.165433333"><ele>36.000000</ele><time>2010-06-09T11:46:52Z</time></trkpt>
	<trkpt lat="52.10479333" lon="-2.165438333"><ele>36.000000</ele><time>2010-06-09T11:46:57Z</time></trkpt>
	<trkpt lat="52.10478833" lon="-2.165443333"><ele>36.000000</ele><time>2010-06-09T11:47:02Z</time></trkpt>
	<trkpt lat="52.10478833" lon="-2.165446667"><ele>37.000000</ele><time>2010-06-09T11:47:07Z</time></trkpt>
	<trkpt lat="52.10478333" lon="-2.165446667"><ele>38.000000</ele><time>2010-06-09T11:47:12Z</time></trkpt>
	<trkpt lat="52.10478333" lon="-2.165446667"><ele>38.000000</ele><time>2010-06-09T11:47:17Z</time></trkpt>
	<trkpt lat="52.10478167" lon="-2.165446667"><ele>39.000000</ele><time>2010-06-09T11:47:22Z</time></trkpt>
	<trkpt lat="52.10478" lon="-2.165448333"><ele>39.000000</ele><time>2010-06-09T11:47:27Z</time></trkpt>
	<trkpt lat="52.10477667" lon="-2.165451667"><ele>38.000000</ele><time>2010-06-09T11:47:32Z</time></trkpt>
	<trkpt lat="52.104775" lon="-2.165448333"><ele>39.000000</ele><time>2010-06-09T11:47:37Z</time></trkpt>
	<trkpt lat="52.10477333" lon="-2.165448333"><ele>40.000000</ele><time>2010-06-09T11:47:42Z</time></trkpt>
	<trkpt lat="52.104775" lon="-2.165448333"><ele>41.000000</ele><time>2010-06-09T11:47:47Z</time></trkpt>
	<trkpt lat="52.10477333" lon="-2.16545"><ele>41.000000</ele><time>2010-06-09T11:47:52Z</time></trkpt>
	<trkpt lat="52.104775" lon="-2.16545"><ele>41.000000</ele><time>2010-06-09T11:47:57Z</time></trkpt>
	<trkpt lat="52.10479333" lon="-2.16544"><ele>41.000000</ele><time>2010-06-09T11:48:02Z</time></trkpt>
	<trkpt lat="52.10480667" lon="-2.165433333"><ele>41.000000</ele><time>2010-06-09T11:48:07Z</time></trkpt>
	<trkpt lat="52.104805" lon="-2.165431667"><ele>40.000000</ele><time>2010-06-09T11:48:12Z</time></trkpt>
	<trkpt lat="52.10480333" lon="-2.165433333"><ele>39.000000</ele><time>2010-06-09T11:48:17Z</time></trkpt>
	<trkpt lat="52.10480167" lon="-2.165431667"><ele>39.000000</ele><time>2010-06-09T11:48:22Z</time></trkpt>
	<trkpt lat="52.10479833" lon="-2.165431667"><ele>38.000000</ele><time>2010-06-09T11:48:27Z</time></trkpt>
	<trkpt lat="52.10480167" lon="-2.16543"><ele>38.000000</ele><time>2010-06-09T11:48:32Z</time></trkpt>
	<trkpt lat="52.10480333" lon="-2.165425"><ele>38.000000</ele><time>2010-06-09T11:48:37Z</time></trkpt>
	<trkpt lat="52.10480667" lon="-2.165416667"><ele>38.000000</ele><time>2010-06-09T11:48:42Z</time></trkpt>
	<trkpt lat="52.10480833" lon="-2.165411667"><ele>38.000000</ele><time>2010-06-09T11:48:47Z</time></trkpt>
	<trkpt lat="52.10481" lon="-2.16541"><ele>38.000000</ele><time>2010-06-09T11:48:52Z</time></trkpt>
	<trkpt lat="52.10481" lon="-2.165408333"><ele>38.000000</ele><time>2010-06-09T11:48:57Z</time></trkpt>
	<trkpt lat="52.10481" lon="-2.16541"><ele>38.000000</ele><time>2010-06-09T11:49:02Z</time></trkpt>
	<trkpt lat="52.10481167" lon="-2.16541"><ele>37.000000</ele><time>2010-06-09T11:49:07Z</time></trkpt>
	<trkpt lat="52.10481167" lon="-2.16541"><ele>37.000000</ele><time>2010-06-09T11:49:12Z</time></trkpt>
	<trkpt lat="52.10481333" lon="-2.165406667"><ele>37.000000</ele><time>2010-06-09T11:49:17Z</time></trkpt>
	<trkpt lat="52.10481333" lon="-2.165405"><ele>37.000000</ele><time>2010-06-09T11:49:22Z</time></trkpt>
	<trkpt lat="52.10481333" lon="-2.165403333"><ele>37.000000</ele><time>2010-06-09T11:49:27Z</time></trkpt>
	<trkpt lat="52.10481333" lon="-2.165401667"><ele>38.000000</ele><time>2010-06-09T11:49:32Z</time></trkpt>
	<trkpt lat="52.10481667" lon="-2.1654"><ele>38.000000</ele><time>2010-06-09T11:49:37Z</time></trkpt>
	<trkpt lat="52.10481667" lon="-2.165398333"><ele>38.000000</ele><time>2010-06-09T11:49:42Z</time></trkpt>
	<trkpt lat="52.10481667" lon="-2.165398333"><ele>38.000000</ele><time>2010-06-09T11:49:47Z</time></trkpt>
	<trkpt lat="52.10481667" lon="-2.165398333"><ele>38.000000</ele><time>2010-06-09T11:49:52Z</time></trkpt>
	<trkpt lat="52.10482333" lon="-2.165396667"><ele>38.000000</ele><time>2010-06-09T11:49:57Z</time></trkpt>
	<trkpt lat="52.104825" lon="-2.165398333"><ele>38.000000</ele><time>2010-06-09T11:50:02Z</time></trkpt>
	<trkpt lat="52.10482333" lon="-2.1654"><ele>38.000000</ele><time>2010-06-09T11:50:07Z</time></trkpt>
	<trkpt lat="52.10482333" lon="-2.165398333"><ele>38.000000</ele><time>2010-06-09T11:50:12Z</time></trkpt>
	<trkpt lat="52.10482333" lon="-2.165398333"><ele>38.000000</ele><time>2010-06-09T11:50:17Z</time></trkpt>
	<trkpt lat="52.10482333" lon="-2.165396667"><ele>38.000000</ele><time>2010-06-09T11:50:22Z</time></trkpt>
	<trkpt lat="52.10482333" lon="-2.165396667"><ele>38.000000</ele><time>2010-06-09T11:50:27Z</time></trkpt>
	<trkpt lat="52.10482333" lon="-2.165396667"><ele>38.000000</ele><time>2010-06-09T11:50:32Z</time></trkpt>
	<trkpt lat="52.10482167" lon="-2.165395"><ele>38.000000</ele><time>2010-06-09T11:50:37Z</time></trkpt>
	<trkpt lat="52.10482167" lon="-2.165395"><ele>38.000000</ele><time>2010-06-09T11:50:42Z</time></trkpt>
	<trkpt lat="52.10482167" lon="-2.165395"><ele>37.000000</ele><time>2010-06-09T11:50:47Z</time></trkpt>
	<trkpt lat="52.10482" lon="-2.165395"><ele>37.000000</ele><time>2010-06-09T11:50:52Z</time></trkpt>
	<trkpt lat="52.10481667" lon="-2.165396667"><ele>36.000000</ele><time>2010-06-09T11:50:57Z</time></trkpt>
	<trkpt lat="52.10481667" lon="-2.165398333"><ele>36.000000</ele><time>2010-06-09T11:51:02Z</time></trkpt>
	<trkpt lat="52.10481333" lon="-2.165398333"><ele>36.000000</ele><time>2010-06-09T11:51:07Z</time></trkpt>
	<trkpt lat="52.10481167" lon="-2.1654"><ele>36.000000</ele><time>2010-06-09T11:51:12Z</time></trkpt>
	<trkpt lat="52.10481" lon="-2.165401667"><ele>36.000000</ele><time>2010-06-09T11:51:17Z</time></trkpt>
	<trkpt lat="52.10480667" lon="-2.165403333"><ele>35.000000</ele><time>2010-06-09T11:51:22Z</time></trkpt>
	<trkpt lat="52.104805" lon="-2.165405"><ele>35.000000</ele><time>2010-06-09T11:51:27Z</time></trkpt>
	<trkpt lat="52.10480333" lon="-2.165406667"><ele>35.000000</ele><time>2010-06-09T11:51:32Z</time></trkpt>
	<trkpt lat="52.10480333" lon="-2.165406667"><ele>35.000000</ele><time>2010-06-09T11:51:37Z</time></trkpt>
	<trkpt lat="52.10479833" lon="-2.165408333"><ele>35.000000</ele><time>2010-06-09T11:51:42Z</time></trkpt>
	<trkpt lat="52.10479833" lon="-2.165406667"><ele>35.000000</ele><time>2010-06-09T11:51:47Z</time></trkpt>
	<trkpt lat="52.10479833" lon="-2.165406667"><ele>35.000000</ele><time>2010-06-09T11:51:52Z</time></trkpt>
	<trkpt lat="52.10479667" lon="-2.165406667"><ele>35.000000</ele><time>2010-06-09T11:51:57Z</time></trkpt>
	<trkpt lat="52.10479667" lon="-2.165406667"><ele>35.000000</ele><time>2010-06-09T11:52:02Z</time></trkpt>
	<trkpt lat="52.104795" lon="-2.165408333"><ele>35.000000</ele><time>2010-06-09T11:52:07Z</time></trkpt>
	<trkpt lat="52.10479167" lon="-2.165411667"><ele>34.000000</ele><time>2010-06-09T11:52:12Z</time></trkpt>
	<trkpt lat="52.10478833" lon="-2.165411667"><ele>34.000000</ele><time>2010-06-09T11:52:17Z</time></trkpt>
	<trkpt lat="52.10478333" lon="-2.165413333"><ele>34.000000</ele><time>2010-06-09T11:52:22Z</time></trkpt>
	<trkpt lat="52.10478333" lon="-2.165413333"><ele>34.000000</ele><time>2010-06-09T11:52:27Z</time></trkpt>
	<trkpt lat="52.10478333" lon="-2.165413333"><ele>34.000000</ele><time>2010-06-09T11:52:32Z</time></trkpt>
	<trkpt lat="52.10478333" lon="-2.165413333"><ele>34.000000</ele><time>2010-06-09T11:52:37Z</time></trkpt>
	<trkpt lat="52.10478333" lon="-2.165415"><ele>35.000000</ele><time>2010-06-09T11:52:42Z</time></trkpt>
	<trkpt lat="52.10478333" lon="-2.165415"><ele>35.000000</ele><time>2010-06-09T11:52:47Z</time></trkpt>
	<trkpt lat="52.10478333" lon="-2.165413333"><ele>35.000000</ele><time>2010-06-09T11:52:52Z</time></trkpt>
	<trkpt lat="52.10478333" lon="-2.165415"><ele>35.000000</ele><time>2010-06-09T11:52:57Z</time></trkpt>
	<trkpt lat="52.10478833" lon="-2.165403333"><ele>35.000000</ele><time>2010-06-09T11:53:02Z</time></trkpt>
</trkseg>
</trk>
</gpx>
